[[{"header":{"parameterUnit":"m.s-1","parameterCategory":1,"la1":30.6,"la2":29.2853,"lo1":-89.7004,"lo2":-87.6739,"dy":0.0162,"dx":0.0183,"nx":112,"ny":82,"refTime":"2023-08-12T06:00:00:Z","depth":0,"parameterNumber":2,"parameterNumberName":"U-component_of_WINDS"},"data":[0.0,0.0,0.0,0.0,0.0,0.0,0.0,0.0,0.0,0.0,0.0,0.0,0.0,0.0,0.0,0.0,0.0,0.0,0.0,0.0,0.0,0.0,0.0,0.0,0.0,0.0,0.0,0.0,0.0,0.0,0.0,0.0,0.0,0.0,0.0,0.0,0.0,0.0,0.0,0.0,0.0,0.0,0.0,0.0,0.0,0.0,0.0,0.0,0.0,0.0,0.0,0.0,0.0,0.0,0.0,0.0,0.0,0.0,0.0,0.0,0.0,0.0,0.0,0.0,0.0,0.0,0.0,0.0,0.0,0.0,0.0,0.0,0.0,0.0,0.0,0.0,0.0,0.0,0.0,0.0,0.0,0.0,0.0,0.0,0.0,0.0,0.0,0.0,0.0,0.0,-4.9843,-5.0108,-5.0231,-5.0302,-5.0302,-5.0302,-5.0302,-5.0302,0.0,0.0,0.0,0.0,0.0,0.0,0.0,0.0,0.0,0.0,0.0,0.0,0.0,0.0,0.0,0.0,0.0,0.0,0.0,0.0,0.0,0.0,0.0,0.0,0.0,0.0,0.0,0.0,0.0,0.0,0.0,0.0,0.0,0.0,0.0,0.0,0.0,0.0,0.0,0.0,0.0,0.0,0.0,0.0,0.0,0.0,0.0,0.0,0.0,0.0,0.0,0.0,0.0,0.0,0.0,0.0,0.0,0.0,0.0,0.0,0.0,0.0,0.0,0.0,0.0,0.0,0.0,0.0,0.0,0.0,0.0,0.0,0.0,0.0,0.0,0.0,0.0,0.0,0.0,0.0,0.0,0.0,0.0,0.0,0.0,0.0,0.0,0.0,0.0,0.0,0.0,0.0,0.0,0.0,0.0,0.0,0.0,0.0,0.0,0.0,0.0,0.0,0.0,0.0,-5.0108,-5.0255,-5.0278,-5.0302,-5.0302,-5.0302,-5.0302,-5.0302,0.0,0.0,0.0,0.0,0.0,0.0,0.0,0.0,0.0,0.0,0.0,0.0,0.0,0.0,0.0,0.0,0.0,0.0,0.0,0.0,0.0,0.0,0.0,0.0,0.0,0.0,0.0,0.0,0.0,0.0,0.0,0.0,0.0,0.0,0.0,0.0,0.0,0.0,0.0,0.0,0.0,0.0,0.0,0.0,0.0,0.0,0.0,0.0,0.0,0.0,0.0,0.0,0.0,0.0,0.0,0.0,0.0,0.0,0.0,0.0,0.0,0.0,0.0,0.0,0.0,0.0,0.0,0.0,0.0,0.0,0.0,0.0,0.0,0.0,0.0,0.0,0.0,0.0,0.0,0.0,0.0,0.0,0.0,0.0,0.0,0.0,0.0,0.0,0.0,0.0,0.0,0.0,0.0,0.0,0.0,0.0,0.0,0.0,0.0,0.0,0.0,0.0,0.0,-5.0133,-5.0231,-5.0302,-5.0302,-5.0302,-5.0302,-5.0302,-5.0302,-5.0302,-5.0144,0.0,0.0,0.0,0.0,0.0,0.0,0.0,0.0,0.0,0.0,0.0,0.0,0.0,0.0,0.0,0.0,0.0,0.0,0.0,0.0,0.0,0.0,0.0,0.0,0.0,0.0,0.0,0.0,0.0,0.0,0.0,0.0,0.0,0.0,0.0,0.0,0.0,0.0,0.0,0.0,0.0,0.0,0.0,0.0,0.0,0.0,0.0,0.0,0.0,0.0,0.0,0.0,0.0,0.0,0.0,0.0,0.0,0.0,0.0,0.0,0.0,0.0,0.0,0.0,0.0,0.0,0.0,0.0,0.0,0.0,0.0,0.0,0.0,0.0,0.0,0.0,0.0,0.0,0.0,0.0,0.0,0.0,0.0,0.0,0.0,0.0,0.0,0.0,0.0,0.0,0.0,0.0,0.0,0.0,0.0,0.0,0.0,0.0,0.0,0.0,0.0,0.0,-5.0188,-5.0302,-5.0302,-5.0302,-5.0302,-5.0302,-5.0302,-5.0302,-5.0302,-4.9981,0.0,0.0,0.0,0.0,0.0,0.0,0.0,0.0,0.0,0.0,0.0,0.0,0.0,0.0,0.0,0.0,0.0,0.0,0.0,0.0,0.0,0.0,0.0,0.0,0.0,0.0,0.0,0.0,0.0,0.0,0.0,0.0,0.0,0.0,0.0,0.0,0.0,0.0,0.0,0.0,0.0,0.0,0.0,0.0,0.0,0.0,0.0,0.0,0.0,0.0,0.0,0.0,0.0,0.0,0.0,0.0,0.0,0.0,0.0,0.0,0.0,0.0,0.0,0.0,0.0,0.0,0.0,0.0,0.0,0.0,0.0,0.0,0.0,0.0,0.0,0.0,0.0,0.0,0.0,0.0,0.0,0.0,0.0,0.0,0.0,0.0,0.0,0.0,0.0,0.0,0.0,0.0,0.0,0.0,0.0,0.0,0.0,0.0,0.0,0.0,0.0,0.0,-5.01,-5.0302,-5.0302,-5.0302,-5.0302,-5.0302,-5.0302,-5.0302,-5.0302,-4.9981,0.0,0.0,0.0,0.0,0.0,0.0,0.0,0.0,0.0,0.0,0.0,0.0,0.0,0.0,0.0,0.0,0.0,0.0,0.0,0.0,0.0,0.0,0.0,0.0,0.0,0.0,0.0,0.0,0.0,0.0,0.0,0.0,0.0,0.0,0.0,0.0,0.0,0.0,0.0,0.0,0.0,0.0,0.0,0.0,0.0,0.0,0.0,0.0,0.0,0.0,0.0,0.0,0.0,0.0,0.0,0.0,0.0,0.0,0.0,0.0,0.0,0.0,0.0,0.0,0.0,0.0,0.0,0.0,0.0,0.0,0.0,0.0,0.0,0.0,0.0,0.0,0.0,0.0,0.0,0.0,0.0,0.0,0.0,0.0,0.0,0.0,0.0,0.0,0.0,0.0,0.0,0.0,0.0,0.0,0.0,0.0,0.0,0.0,0.0,0.0,0.0,0.0,-4.9929,-5.0076,-5.0278,-5.0302,-5.0302,-5.0302,-5.0302,-5.0212,-4.9981,0.0,0.0,0.0,0.0,0.0,0.0,0.0,0.0,0.0,0.0,0.0,0.0,0.0,0.0,0.0,0.0,0.0,0.0,0.0,0.0,0.0,0.0,0.0,0.0,0.0,0.0,0.0,0.0,0.0,0.0,0.0,0.0,0.0,0.0,0.0,0.0,0.0,0.0,0.0,0.0,0.0,0.0,0.0,0.0,0.0,0.0,0.0,0.0,0.0,0.0,0.0,0.0,0.0,0.0,0.0,0.0,0.0,0.0,0.0,0.0,0.0,0.0,0.0,0.0,0.0,0.0,0.0,0.0,0.0,0.0,0.0,0.0,0.0,0.0,0.0,0.0,0.0,0.0,0.0,0.0,0.0,0.0,0.0,0.0,0.0,0.0,0.0,0.0,0.0,0.0,0.0,0.0,0.0,0.0,0.0,0.0,0.0,0.0,0.0,0.0,0.0,0.0,-4.9589,-4.973,-4.9929,-5.0259,-5.0193,-5.0144,-5.0144,-5.0025,-4.983,-4.9618,0.0,0.0,0.0,0.0,0.0,0.0,0.0,0.0,0.0,0.0,0.0,0.0,0.0,0.0,0.0,0.0,0.0,0.0,0.0,0.0,0.0,0.0,0.0,0.0,0.0,0.0,0.0,0.0,0.0,0.0,0.0,0.0,0.0,0.0,0.0,0.0,0.0,0.0,0.0,0.0,0.0,0.0,0.0,0.0,0.0,0.0,0.0,0.0,0.0,0.0,0.0,0.0,0.0,0.0,0.0,0.0,0.0,0.0,0.0,0.0,0.0,0.0,0.0,0.0,0.0,0.0,0.0,0.0,0.0,0.0,0.0,0.0,0.0,0.0,0.0,0.0,0.0,0.0,0.0,0.0,0.0,0.0,0.0,0.0,0.0,0.0,0.0,0.0,0.0,0.0,0.0,0.0,0.0,0.0,0.0,0.0,0.0,0.0,0.0,0.0,0.0,0.0,-4.9221,-4.957,-4.9929,-5.0236,-4.9981,-4.9784,-4.9784,-4.9442,-4.9214,0.0,0.0,0.0,0.0,0.0,0.0,0.0,0.0,0.0,0.0,0.0,0.0,0.0,0.0,0.0,0.0,0.0,0.0,0.0,0.0,0.0,0.0,0.0,0.0,0.0,0.0,0.0,0.0,0.0,0.0,0.0,0.0,0.0,0.0,0.0,0.0,0.0,0.0,0.0,0.0,0.0,0.0,0.0,0.0,0.0,0.0,0.0,0.0,0.0,0.0,0.0,0.0,0.0,0.0,0.0,0.0,0.0,0.0,0.0,0.0,0.0,0.0,0.0,0.0,0.0,0.0,0.0,0.0,0.0,0.0,0.0,0.0,0.0,0.0,0.0,0.0,0.0,0.0,0.0,0.0,0.0,0.0,0.0,0.0,0.0,0.0,0.0,0.0,0.0,0.0,0.0,0.0,0.0,0.0,0.0,0.0,0.0,0.0,0.0,0.0,0.0,0.0,0.0,-4.89,-4.9015,-4.9209,-4.957,-4.9512,-4.9424,-4.9382,-4.9259,-4.9067,-4.8709,0.0,0.0,0.0,0.0,0.0,0.0,0.0,0.0,0.0,0.0,0.0,0.0,0.0,0.0,0.0,0.0,0.0,0.0,0.0,0.0,0.0,0.0,0.0,0.0,0.0,0.0,0.0,0.0,0.0,0.0,0.0,0.0,0.0,0.0,0.0,0.0,0.0,0.0,0.0,0.0,0.0,0.0,0.0,0.0,0.0,0.0,0.0,0.0,0.0,0.0,0.0,0.0,0.0,0.0,0.0,0.0,0.0,0.0,0.0,0.0,0.0,0.0,0.0,0.0,0.0,0.0,0.0,0.0,0.0,0.0,0.0,0.0,0.0,0.0,0.0,0.0,0.0,0.0,0.0,0.0,0.0,0.0,0.0,0.0,0.0,0.0,0.0,0.0,0.0,0.0,0.0,0.0,0.0,0.0,0.0,0.0,0.0,0.0,0.0,0.0,0.0,0.0,-4.8746,-4.8781,-4.89,-4.9252,-4.9145,-4.9034,-4.9019,-4.8781,-4.855,-4.8269,0.0,0.0,0.0,0.0,0.0,0.0,0.0,0.0,0.0,0.0,0.0,0.0,0.0,0.0,0.0,0.0,0.0,0.0,0.0,0.0,0.0,0.0,0.0,0.0,0.0,0.0,0.0,0.0,0.0,0.0,0.0,0.0,0.0,0.0,0.0,0.0,0.0,0.0,0.0,0.0,0.0,0.0,0.0,0.0,0.0,0.0,0.0,0.0,0.0,0.0,0.0,0.0,0.0,0.0,0.0,0.0,0.0,0.0,0.0,0.0,0.0,0.0,0.0,0.0,0.0,0.0,0.0,0.0,0.0,0.0,0.0,0.0,0.0,0.0,0.0,0.0,0.0,0.0,0.0,0.0,0.0,0.0,0.0,0.0,0.0,0.0,0.0,0.0,0.0,0.0,0.0,0.0,0.0,0.0,0.0,0.0,0.0,0.0,0.0,0.0,0.0,0.0,-4.8676,-4.8694,-4.8781,-4.9126,-4.8832,-4.8623,-4.8641,-4.8169,-4.7902,-4.7861,0.0,0.0,0.0,0.0,0.0,0.0,0.0,0.0,0.0,0.0,0.0,0.0,0.0,0.0,0.0,0.0,0.0,0.0,0.0,0.0,0.0,0.0,0.0,0.0,0.0,0.0,0.0,0.0,0.0,0.0,0.0,0.0,0.0,0.0,0.0,0.0,0.0,0.0,0.0,0.0,0.0,0.0,0.0,0.0,0.0,0.0,0.0,0.0,0.0,0.0,0.0,0.0,0.0,0.0,0.0,0.0,0.0,0.0,0.0,0.0,-5.2214,-5.2195,0.0,0.0,0.0,0.0,0.0,0.0,0.0,0.0,0.0,0.0,0.0,0.0,0.0,0.0,0.0,0.0,0.0,0.0,0.0,0.0,0.0,0.0,0.0,0.0,0.0,0.0,0.0,0.0,0.0,0.0,0.0,0.0,0.0,0.0,0.0,0.0,0.0,0.0,0.0,0.0,-4.8324,-4.8229,-4.8192,-4.8251,-4.8192,-4.8111,-4.8068,-4.7984,-4.7861,-4.7759,-4.7717,0.0,0.0,0.0,0.0,0.0,0.0,0.0,0.0,0.0,0.0,0.0,0.0,0.0,0.0,0.0,0.0,0.0,0.0,0.0,0.0,0.0,0.0,0.0,0.0,0.0,0.0,0.0,0.0,0.0,0.0,0.0,0.0,0.0,0.0,0.0,0.0,0.0,0.0,0.0,0.0,0.0,0.0,0.0,0.0,0.0,0.0,0.0,0.0,0.0,0.0,0.0,0.0,0.0,0.0,0.0,0.0,0.0,0.0,0.0,-5.1625,-5.1528,0.0,0.0,0.0,0.0,0.0,0.0,0.0,0.0,0.0,0.0,0.0,0.0,0.0,0.0,0.0,0.0,0.0,0.0,0.0,0.0,0.0,0.0,0.0,0.0,0.0,0.0,0.0,0.0,0.0,0.0,0.0,0.0,0.0,0.0,0.0,0.0,0.0,0.0,0.0,0.0,-4.809,-4.801,-4.797,-4.7992,-4.797,-4.7925,-4.7902,-4.7861,-4.7759,-4.7699,-4.7717,0.0,0.0,0.0,0.0,0.0,0.0,0.0,0.0,0.0,0.0,0.0,0.0,0.0,0.0,0.0,0.0,0.0,0.0,0.0,0.0,0.0,0.0,0.0,0.0,0.0,0.0,0.0,0.0,0.0,0.0,0.0,0.0,0.0,0.0,0.0,0.0,0.0,0.0,0.0,0.0,0.0,0.0,0.0,0.0,0.0,0.0,0.0,0.0,0.0,0.0,0.0,0.0,0.0,-5.2266,-5.2222,-5.2341,-5.2341,-5.1546,-5.0212,-5.09,-5.0629,-4.9675,-4.9153,0.0,0.0,0.0,0.0,0.0,0.0,0.0,0.0,0.0,0.0,0.0,0.0,0.0,0.0,0.0,0.0,0.0,0.0,0.0,0.0,0.0,0.0,0.0,0.0,-4.7717,-4.7717,-4.7717,0.0,0.0,0.0,0.0,0.0,0.0,0.0,0.0,0.0,0.0,0.0,-4.797,-4.7925,-4.7884,-4.7929,-4.7925,-4.7861,-4.7861,-4.7759,-4.7717,-4.7717,-4.7717,-4.7717,0.0,0.0,0.0,0.0,0.0,0.0,0.0,0.0,0.0,0.0,0.0,0.0,0.0,0.0,0.0,0.0,0.0,0.0,0.0,0.0,0.0,0.0,0.0,0.0,0.0,0.0,0.0,0.0,0.0,0.0,0.0,0.0,-4.8841,-4.9068,0.0,0.0,0.0,0.0,0.0,0.0,0.0,0.0,0.0,0.0,0.0,0.0,0.0,-5.045,-5.045,-5.0546,-5.0603,-5.0627,-5.0603,-5.0555,-5.0456,-5.0456,-5.0218,-4.9784,-4.959,0.0,-4.895,-4.8236,0.0,0.0,0.0,0.0,0.0,0.0,0.0,0.0,0.0,0.0,0.0,0.0,0.0,0.0,0.0,0.0,0.0,0.0,0.0,0.0,0.0,0.0,-4.7717,-4.7717,-4.7717,-4.7717,0.0,-4.7717,-4.7717,-4.7717,-4.7717,0.0,0.0,0.0,0.0,0.0,0.0,0.0,-4.7902,-4.7801,-4.7717,-4.7741,-4.7741,-4.7717,-4.7717,-4.7717,-4.7717,-4.7717,-4.7717,-4.7717,-4.7717,-4.7717,0.0,0.0,0.0,0.0,0.0,0.0,0.0,0.0,0.0,0.0,0.0,0.0,0.0,0.0,0.0,0.0,0.0,0.0,0.0,0.0,0.0,0.0,0.0,0.0,0.0,0.0,0.0,0.0,0.0,-4.8587,-4.9015,-4.9197,-4.9244,-4.9295,0.0,0.0,0.0,0.0,0.0,0.0,0.0,0.0,0.0,-5.0207,-5.0278,-5.0302,-5.0302,-5.0231,-5.0231,-5.0302,-5.0231,-5.0158,-5.0108,-5.0108,-4.9833,-4.9408,-4.9246,-4.8896,-4.8443,-4.8138,-4.8107,-4.8206,0.0,0.0,0.0,0.0,-4.7717,-4.7717,-4.7717,-4.7717,-4.7717,-4.7717,0.0,0.0,0.0,0.0,0.0,0.0,0.0,0.0,0.0,0.0,-4.7717,-4.7717,-4.7717,-4.7717,-4.7717,-4.7717,-4.7717,0.0,-4.7717,-4.7717,-4.7717,0.0,0.0,0.0,0.0,-4.7861,-4.7819,-4.7717,-4.7717,-4.7717,-4.7717,-4.7717,-4.7717,-4.7717,-4.7717,-4.7717,-4.7717,-4.7717,-4.7717,-4.7717,-4.7717,0.0,0.0,0.0,0.0,0.0,0.0,0.0,0.0,0.0,0.0,0.0,0.0,0.0,0.0,0.0,0.0,0.0,0.0,0.0,0.0,0.0,0.0,0.0,0.0,0.0,0.0,0.0,0.0,-4.881,-4.8907,-4.9206,-4.8933,-4.8796,0.0,0.0,0.0,0.0,0.0,0.0,-5.0114,-5.0158,-5.0207,-5.0302,-5.0302,-5.0302,-5.0302,-5.0207,-5.0207,-5.0302,-5.0158,-5.0108,-5.0108,-5.0031,-4.975,-4.9327,-4.9201,-4.8816,-4.8231,-4.8249,-4.8032,-4.7717,-4.7819,-4.7801,-4.7717,-4.7717,-4.7717,-4.7717,-4.7717,-4.7717,-4.7717,-4.7717,-4.7717,-4.7663,-4.7464,0.0,0.0,0.0,0.0,-4.7138,-4.7355,-4.7391,-4.7446,-4.7663,-4.7717,-4.7717,-4.7717,-4.7717,-4.7717,0.0,-4.7717,-4.7717,-4.7717,0.0,0.0,-4.7717,-4.7759,-4.7801,-4.7699,-4.7717,-4.7717,-4.7717,-4.7518,-4.7391,-4.7391,-4.721,-4.7102,-4.7102,-4.7102,-4.7192,-4.7391,-4.721,-4.7192,-4.7391,0.0,0.0,0.0,0.0,0.0,0.0,0.0,0.0,0.0,0.0,0.0,0.0,0.0,0.0,0.0,0.0,0.0,0.0,0.0,0.0,0.0,0.0,0.0,0.0,0.0,0.0,0.0,0.0,0.0,-4.9085,-4.7841,0.0,0.0,0.0,0.0,-4.8583,-4.8666,-4.9112,-5.024,-5.0278,-5.0302,-5.0302,-5.0302,-5.0302,-5.0302,-5.0302,-5.0302,-5.0302,-5.0158,-5.0108,-5.0082,-4.9835,-4.9692,-4.9663,-4.9206,-4.8837,-4.855,-4.8231,-4.7933,-4.7717,-4.7717,-4.7717,-4.7717,-4.7717,-4.7717,-4.7717,-4.7717,-4.7717,-4.7717,-4.7717,-4.7717,-4.7572,-4.6794,-4.6558,0.0,0.0,-4.5417,-4.5599,-4.6359,-4.6558,-4.6757,-4.7518,-4.7717,-4.7717,-4.7717,-4.7717,-4.7717,0.0,-4.7717,-4.7717,-4.7717,0.0,-4.7717,-4.7717,-4.7717,-4.7717,-4.7717,-4.7717,-4.7717,-4.7717,-4.7029,-4.6558,-4.6558,-4.5852,-4.5417,-4.5417,-4.5417,-4.5761,-4.654,-4.5834,-4.578,-4.6558,-4.578,0.0,0.0,0.0,0.0,0.0,0.0,0.0,0.0,0.0,0.0,0.0,0.0,0.0,0.0,0.0,0.0,0.0,0.0,0.0,0.0,0.0,0.0,0.0,0.0,0.0,0.0,0.0,0.0,-4.7654,-4.726,0.0,-4.7406,-4.7181,-4.7222,-4.7787,-4.7832,-4.8093,-4.8655,-4.8697,-4.8697,-4.8697,-4.8697,-4.8965,-4.9519,-4.9411,-4.963,-5.0182,-5.0031,-4.9925,-4.9843,-4.975,-4.9525,-4.9257,-4.9075,-4.8416,-4.748,-4.7366,-4.746,-4.7717,-4.7717,-4.7717,-4.7717,-4.7717,-4.7373,-4.6939,-4.6939,-4.6595,-4.616,-4.616,-4.616,-4.6106,-4.5816,-4.5725,-4.5671,-4.5381,-4.5291,-4.5363,-4.5653,-4.5725,-4.5798,-4.6087,-4.616,-4.616,-4.616,-4.616,-4.616,-4.616,-4.6993,-4.7717,-4.7717,-4.7283,-4.6939,-4.6939,-4.6486,-4.616,-4.616,-4.616,-4.616,-4.616,-4.5906,-4.5725,-4.5725,-4.5454,-4.5291,-4.5291,-4.5291,-4.5436,-4.5725,-4.5454,-4.5436,-4.5725,-4.4928,-4.453,0.0,0.0,0.0,0.0,0.0,0.0,0.0,0.0,0.0,0.0,0.0,0.0,0.0,0.0,0.0,0.0,0.0,0.0,0.0,0.0,0.0,0.0,0.0,0.0,0.0,-4.6531,-4.6414,-4.6775,-4.6416,-4.6232,-4.6542,-4.6317,-4.6375,-4.6935,-4.6954,-4.7169,-4.7777,-4.7754,-4.7754,-4.7818,-4.799,-4.835,-4.8914,-4.9186,-4.9531,-4.9955,-4.9879,-4.9807,-4.9692,-4.9653,-4.9402,-4.8974,-4.8906,-4.8255,-4.7273,-4.69,-4.6979,-4.7283,-4.7011,-4.6902,-4.6902,-4.6902,-4.6558,-4.6106,-4.6106,-4.5703,-4.521,-4.521,-4.5129,-4.5052,-4.4782,-4.4732,-4.4718,-4.4447,-4.4455,-4.4548,-4.482,-4.4892,-4.4965,-4.5236,-4.5291,-4.5291,-4.5291,-4.5291,-4.5291,-4.5291,-4.616,-4.6902,-4.6902,-4.645,-4.6106,-4.6106,-4.5635,-4.5291,-4.5291,-4.5291,-4.5291,-4.5291,-4.5055,-4.4892,-4.4892,-4.4639,-4.4476,-4.4476,-4.4476,-4.4603,-4.4874,-4.4621,-4.4621,-4.4892,-4.4095,-4.3697,-4.3697,0.0,0.0,0.0,0.0,0.0,0.0,0.0,0.0,0.0,0.0,0.0,0.0,0.0,0.0,0.0,0.0,0.0,0.0,0.0,0.0,0.0,0.0,0.0,-4.5983,-4.5746,-4.5668,-4.6514,-4.5327,-4.474,-4.5585,-4.4965,-4.4944,-4.6064,-4.6044,-4.6468,-4.7662,-4.759,-4.759,-4.7739,-4.8235,-4.8533,-4.8599,-4.967,-5.0031,-4.9728,-4.9693,-4.9692,-4.9692,-4.9551,-4.9295,-4.8974,-4.8695,-4.8365,-4.7965,-4.6898,-4.645,-4.6359,-4.5599,-4.5291,-4.5291,-4.5291,-4.5273,-4.5254,-4.5236,-4.5098,-4.4934,-4.4934,-4.4785,-4.4489,-4.3721,-4.3596,-4.3598,-4.2789,-4.2711,-4.3027,-4.3788,-4.4005,-4.4222,-4.5001,-4.52,-4.5236,-4.5236,-4.5236,-4.5236,-4.5236,-4.5236,-4.5236,-4.5291,-4.5273,-4.5254,-4.5254,-4.5236,0.0,-4.5236,-4.5236,-4.5236,-4.5236,-4.453,-4.4059,-4.4059,-4.3335,-4.29,-4.2882,-4.29,-4.3244,-4.4023,-4.3299,-4.3262,-4.4041,-4.3299,-4.2882,-4.2882,0.0,0.0,0.0,0.0,0.0,0.0,0.0,0.0,0.0,0.0,0.0,0.0,0.0,0.0,0.0,0.0,0.0,0.0,0.0,0.0,0.0,-4.3796,-4.4288,-4.4983,-4.4795,-4.4685,-4.492,-4.4664,-4.4562,-4.4815,-4.4646,-4.47,-4.5211,-4.5129,-4.53,-4.5814,-4.5811,-4.6096,-4.6748,-4.6415,-4.6984,-4.858,-4.832,-4.8745,-4.9854,-4.9661,-4.9551,-4.9551,-4.9521,-4.9197,-4.8695,-4.8623,-4.7957,-4.6862,-4.6001,-4.5291,-4.4802,-4.5164,-4.5291,-4.5291,-4.5291,-4.4928,-4.4349,-4.3751,-4.3436,-4.3256,-4.3256,-4.3135,-4.2894,-4.268,-4.265,-4.253,-4.1725,-4.1651,-4.1733,-4.1429,-4.1829,-4.2429,-4.2647,-4.3136,-4.3552,-4.3552,-4.3552,-4.3552,-4.3552,-4.3552,-4.3914,-4.5091,-4.482,-4.4421,-4.4421,-4.3914,0.0,-4.3552,-4.3552,-4.3552,-4.3552,-4.3353,-4.3226,-4.3226,-4.3009,-4.2862,-4.267,-4.2824,-4.2915,-4.2994,-4.2933,-4.2991,-4.3226,-4.3009,-4.2882,0.0,0.0,0.0,0.0,0.0,0.0,0.0,0.0,0.0,0.0,0.0,0.0,0.0,0.0,0.0,0.0,0.0,0.0,0.0,0.0,0.0,0.0,-4.2858,-4.3487,-4.4226,-4.4239,-4.4226,-4.4285,-4.4373,-4.443,-4.4487,-4.4515,-4.4578,-4.4796,-4.4685,-4.4719,-4.4991,-4.5005,-4.5228,-4.5808,-4.547,-4.5916,-4.7212,-4.7935,-4.8777,-4.9736,-4.9589,-4.9509,-4.9509,-4.9509,-4.923,-4.8767,-4.866,-4.805,-4.7088,-4.5802,-4.5019,0.0,0.0,0.0,0.0,0.0,-4.3987,-4.3516,-4.2987,-4.2631,-4.245,-4.2351,-4.2187,-4.1995,-4.1995,-4.1848,-4.1576,-4.1194,-4.1017,-4.0867,-4.0473,-4.1053,-4.1723,-4.1723,-4.2321,-4.2882,-4.2882,-4.2882,-4.2882,-4.2882,-4.2882,0.0,-4.4132,-4.3896,-4.3588,-4.3588,-4.319,-4.2882,-4.2882,-4.2882,-4.2882,-4.2882,-4.2806,-4.2786,-4.2786,-4.2709,0.0,0.0,0.0,-4.2747,-4.2709,-4.2862,0.0,0.0,0.0,-4.2882,-4.2882,0.0,0.0,0.0,-4.163,-4.123,0.0,0.0,0.0,0.0,0.0,0.0,0.0,0.0,0.0,0.0,0.0,0.0,0.0,0.0,0.0,0.0,-4.147,-4.2292,-4.3573,-4.3812,-4.3974,-4.4285,-4.4314,-4.4373,-4.4487,-4.4515,-4.457,-4.4685,-4.4597,-4.4605,-4.487,-4.4827,0.0,0.0,0.0,-4.5674,-4.5801,-4.8277,-4.9491,-4.9509,-4.9509,-4.9509,-4.9509,-4.9509,-4.9313,-4.8974,-4.8767,-4.8384,-4.7819,-4.6066,-4.524,-4.4892,-4.3444,-4.2882,-4.2882,-4.2882,-4.29,-4.2862,-4.267,0.0,0.0,-4.1977,-4.1762,-4.1587,-4.1499,-4.112,-4.0748,-4.0798,-4.0459,-4.0147,-4.0312,-4.0944,-4.1615,-4.1705,-4.2321,-4.2882,-4.2882,-4.2882,-4.2882,-4.2882,-4.2882,-4.2882,-4.2882,-4.2882,-4.2882,-4.2882,-4.2882,-4.2882,-4.2882,-4.2882,-4.2882,-4.2882,0.0,0.0,-4.2631,-4.245,-4.2409,-4.2609,-4.2609,-4.267,-4.2882,-4.2882,-4.2882,-4.2882,-4.2882,-4.2882,-4.2882,-4.2882,-4.24,-4.1481,-4.1481,-4.123,0.0,0.0,0.0,0.0,0.0,0.0,0.0,0.0,0.0,0.0,0.0,0.0,0.0,0.0,0.0,-4.0092,-4.085,-4.1746,-4.2728,-4.2946,-4.3341,-4.421,-4.4344,-4.4411,-4.4487,-4.4515,-4.457,-4.4685,-4.4597,-4.4551,-4.4738,-4.4712,-4.5032,-4.5783,-4.6947,-4.8026,-4.8985,-4.9334,-4.9491,-4.9509,0.0,0.0,-4.9509,-4.9509,-4.9313,-4.8974,-4.894,-4.8217,-4.7053,-4.6101,-4.48,-4.3317,-4.3009,-4.2882,-4.2882,-4.2882,-4.2786,-4.2631,-4.2609,-4.231,-4.1977,-4.1934,-4.1762,-4.1499,-4.0884,-4.0629,0.0,-3.9226,-3.8943,-3.9081,-3.9301,-4.0059,-4.0908,-4.156,-4.2321,-4.2882,-4.2882,-4.2882,-4.2882,-4.2882,-4.2882,-4.2882,-4.2882,-4.2882,-4.2882,-4.2882,-4.2882,-4.2882,-4.2882,-4.2882,-4.2882,-4.2882,-4.2709,-4.2688,-4.2824,-4.267,-4.257,-4.2609,-4.2609,-4.267,-4.2882,-4.2882,-4.2882,-4.2882,-4.2882,-4.2882,-4.2882,-4.2882,-4.24,-4.1481,-4.1481,-4.1047,0.0,0.0,0.0,0.0,0.0,0.0,0.0,0.0,0.0,0.0,0.0,-3.7288,-3.7126,0.0,-3.9079,-3.9272,-4.0065,-4.0948,-4.1828,-4.2063,-4.2667,-4.4095,-4.4314,-4.4373,-4.444,-4.4487,-4.4542,-4.4578,-4.4542,-4.4542,-4.4605,-4.4605,-4.4785,-4.5237,-4.5922,-4.6986,-4.8447,-4.9163,-4.9499,-4.9514,-4.949,-4.9509,-4.949,-4.9039,-4.8771,-4.8589,-4.7979,-4.7352,-4.6613,-4.568,-4.4491,-4.3232,-4.2995,-4.2862,-4.2747,-4.2747,-4.2631,-4.245,-4.231,-4.2103,-4.1874,-4.1805,-4.1675,-4.1464,-4.0709,-4.02,-3.968,-3.8691,-3.8224,-3.8142,-3.8722,-3.9569,-4.0416,-4.1225,-4.2016,-4.2591,-4.2591,-4.2591,-4.2591,-4.2591,-4.2591,-4.2591,-4.2591,-4.2591,-4.267,-4.2844,-4.2882,-4.2882,-4.2882,-4.2882,-4.2882,-4.2882,-4.2709,-4.2609,-4.2591,-4.2374,-4.231,-4.245,-4.253,-4.267,-4.2882,-4.2882,-4.2882,-4.2882,-4.2882,-4.2882,-4.2882,-4.2882,-4.2537,-4.1846,-4.1613,-4.1001,0.0,0.0,0.0,0.0,0.0,0.0,0.0,-3.3492,-3.3767,-3.5071,-3.5917,-3.632,-3.6007,-3.7126,-3.8167,-3.8378,-3.9195,-4.0056,-4.0929,-4.1151,-4.1865,-4.3472,-4.389,-4.4071,-4.4158,-4.4365,-4.4487,-4.4515,-4.4515,-4.4515,-4.4515,-4.4515,-4.4505,-4.4486,-4.4636,-4.5302,-4.6494,-4.8055,-4.8893,-4.9017,-4.892,-4.887,-4.8852,-4.8251,-4.7969,-4.7913,-4.6757,-4.6238,-4.615,-4.5041,-4.4152,-4.3529,-4.3178,-4.2862,-4.2591,-4.2552,-4.2409,-4.2187,-4.1959,-4.1874,-4.1805,-4.1648,-4.1499,-4.1253,-4.0481,-3.9691,-3.8942,-3.8333,-3.7863,-3.7724,-3.8679,-3.9557,-4.0342,-4.1145,-4.1823,-4.2287,-4.2287,-4.2287,-4.2287,-4.2287,-4.2287,-4.2287,-4.2287,-4.2287,-4.2391,-4.2729,-4.2768,-4.2768,-4.2768,-4.2768,-4.2768,-4.2768,-4.2591,-4.2391,-4.2246,-4.2061,-4.2061,-4.2287,-4.245,-4.2631,-4.2806,-4.2862,-4.2862,-4.2882,-4.2882,-4.2882,-4.2882,-4.2882,-4.2673,-4.2198,-4.1717,-4.1047,-2.7717,-2.8695,-2.9568,-2.9631,-3.0102,-3.076,0.0,-3.2664,-3.3563,-3.4739,-3.5312,-3.5667,-3.579,-3.665,-3.7334,-3.7429,-3.8292,-3.9227,-4.0038,-4.027,-4.0711,-4.1705,-4.256,-4.3135,-4.3334,-4.3999,-4.4458,-4.4515,-4.4515,-4.4515,-4.4515,-4.4515,-4.4515,-4.4487,-4.5209,-4.5312,-4.4767,-4.5977,-4.6813,-4.7256,-4.6813,-4.6577,-4.6577,-4.6945,-4.7143,-4.7057,-4.5854,-4.5337,-4.5249,-4.411,-4.3605,-4.3532,-4.3444,-4.305,-4.2498,-4.2391,-4.2145,-4.1934,-4.1917,-4.1805,-4.1648,-4.1604,-4.1148,-4.0463,-3.9691,-3.8883,-3.8116,-3.7556,-3.7845,-3.8504,-3.9498,-4.036,-4.1163,-4.1966,-4.2216,-4.2287,-4.2287,-4.2287,-4.2287,-4.2287,-4.2287,-4.2287,-4.2287,-4.2287,-4.2328,-4.2369,-4.2369,-4.2369,-4.2369,-4.2369,-4.2369,-4.2369,-4.2145,-4.1959,-4.1934,-4.2145,-4.2287,-4.2287,-4.2328,-4.2409,-4.2649,-4.2631,-4.2709,-4.29,-4.2882,-4.2882,-4.2882,-4.2882,-4.2673,-4.2198,-4.1717,-4.123,-2.7346,-2.8143,-2.8853,-2.9435,-2.9856,-3.0495,-3.2028,-3.2718,-3.3303,-3.4529,-3.4994,-3.5367,-3.5958,-3.662,-3.721,-3.765,-3.8216,-3.8793,-3.9234,-3.9361,-3.9597,-3.9997,-4.0855,-4.1874,-4.2969,-4.3867,-4.4411,-4.4487,-4.4515,-4.4515,-4.4515,-4.4515,-4.4515,-4.4515,-4.4834,-4.4824,-4.4496,-4.5444,-4.6006,-4.6261,-4.6532,-4.6663,-4.6663,-4.6373,-4.5998,-4.55,-4.498,-4.4722,-4.4685,-4.4141,-4.3915,-4.3883,-4.3545,-4.3266,-4.3014,-4.2882,-4.2374,-4.1762,-4.1984,-4.1874,-4.1534,-4.1095,-4.0744,-4.0235,-3.8989,-3.8374,-3.7953,-3.7316,-3.7651,-3.843,-3.9323,-4.0159,-4.0937,-4.1715,-4.1892,-4.1892,-4.1892,-4.1892,-4.1892,-4.1892,-4.1892,-4.1892,-4.1892,-4.1892,-4.1892,-4.1892,-4.2121,-4.2287,-4.2287,-4.2287,-4.2287,-4.2287,-4.2061,-4.1874,-4.1874,-4.1892,-4.1934,-4.2061,-4.2187,-4.2409,-4.2609,-4.2709,-4.2824,-4.2882,-4.2882,-4.2882,-4.2882,-4.2882,-4.2673,-4.2198,-4.1717,-4.123,-2.7278,-2.7842,-2.8287,-2.9044,-2.9594,-3.03,-3.1804,-3.2501,-3.3108,-3.4184,-3.4739,-3.5241,-3.5968,-3.6684,-3.7303,-3.7844,-3.8267,-3.8572,-3.8732,-3.8851,-3.8939,-3.8968,-3.9824,-4.0979,-4.2501,-4.3483,-4.4139,-4.4468,-4.4487,-4.4515,-4.4515,-4.4515,-4.4515,-4.4515,-4.4515,-4.4515,-4.4515,-4.5078,-4.5378,-4.5378,-4.6017,-4.6317,-4.6298,-4.566,-4.5031,-4.4487,-4.4383,-4.4354,-4.4344,-4.4195,-4.4135,-4.4104,-4.3712,-4.3508,-4.3406,-4.3426,-4.2732,-4.1788,-4.2092,-4.18,-4.12,-4.0656,-4.0182,-3.9603,-3.8444,-3.797,-3.769,-3.7128,-3.7532,-3.8304,-3.9111,-3.9901,-4.0674,-4.1411,-4.1604,-4.1552,-4.1341,-4.1288,-4.1236,-4.1007,-4.0972,-4.0972,-4.0972,-4.0972,-4.0972,-4.0972,-4.1255,-4.1552,-4.1766,-4.1606,-4.1481,-4.1481,-4.1297,-4.117,-4.117,-4.1041,-4.1016,-4.117,-4.1422,-4.1645,-4.1827,-4.2042,-4.2193,-4.223,-4.223,-4.223,-4.223,-4.2118,-4.189,-4.1556,-4.0954,-4.0513,-2.6998,-2.7403,-2.759,-2.7776,-2.8853,-2.9917,-3.048,-3.1747,-3.2964,-3.3591,-3.4513,-3.5299,-3.5654,-3.6626,-3.7487,-3.7756,-3.8183,-3.8559,-3.8689,-3.884,-3.891,-3.8892,-3.9795,-4.0746,-4.1632,-4.252,-4.3427,-4.4327,-4.444,-4.4515,-4.4515,-4.4515,-4.4515,-4.4515,-4.4515,-4.4515,-4.4515,-4.4533,-4.4552,-4.4552,-4.4571,-4.459,-4.459,-4.4552,-4.4505,-4.4383,-4.4344,-4.4274,-4.4184,-4.4055,-4.4005,-4.4005,-4.4005,-4.3744,-4.344,-4.3809,-4.3212,-4.2157,-4.2216,-4.1463,-4.0516,-4.0524,-3.9427,-3.8164,-3.8111,-3.7602,-3.7023,-3.7027,-3.7532,-3.8304,-3.9111,-3.9901,-4.0674,-4.1411,-4.1604,-4.1394,-4.0674,-4.0516,-4.0288,-3.9533,-3.9375,-3.9375,-3.9375,-3.9375,-3.9375,-3.9375,-3.9375,-3.9656,-4.0453,-3.9891,-3.9375,-3.9375,-3.9375,-3.9375,-3.9375,-3.9375,-3.9375,-3.9375,-3.9564,-3.9749,-3.9985,-4.0177,-4.0364,-4.0582,-4.0582,-4.0582,-4.0582,-4.0179,-3.9988,-3.995,-3.9076,-3.8656,-2.6564,-2.6905,-2.743,-2.8505,-2.9331,-3.0133,-3.1334,-3.2089,-3.2711,-3.3293,-3.4118,-3.4894,-3.5514,-3.6487,-3.7394,-3.7913,-3.8234,-3.8496,-3.8658,-3.881,-3.891,-3.891,-3.9425,-4.0288,-4.15,-4.2472,-4.3409,-4.4327,-4.444,-4.4515,-4.4515,-4.4515,-4.4515,-4.4515,-4.4515,-4.4515,-4.4515,-4.4515,-4.4515,-4.4515,-4.4515,-4.4515,-4.4515,-4.4515,-4.444,-4.4383,-4.4344,-4.4255,-4.4184,-4.4055,-4.4005,-4.4005,-4.4005,-4.3923,-4.3809,-4.3955,-4.3262,-4.2214,-4.2214,-4.1776,-4.1035,-3.9743,-3.8933,-3.8362,-3.7594,-3.718,-3.6987,-3.6987,-3.7532,-3.8164,-3.8444,-3.9111,-3.9779,-4.0024,-4.0077,-4.0024,-3.9761,-3.9708,-3.9621,-3.9357,-3.9305,-3.9305,-3.9305,-3.9305,-3.9129,-3.8585,-3.8971,-3.941,-3.9673,-3.948,-3.9305,-3.9305,-3.9305,-3.9305,-3.9305,-3.9305,-3.9305,-3.9305,-3.9494,-3.97,-3.9875,-4.0123,-4.0347,-4.051,-4.051,-4.0347,-4.0107,-3.9955,-3.9585,-3.9048,-3.872,-3.8425,-2.6139,-2.6496,-2.7015,-2.8363,-2.9129,-2.9875,-3.1291,-3.1951,-3.2413,-3.2904,-3.3783,-3.4638,-3.5329,-3.6429,-3.7394,-3.7966,-3.8252,-3.8446,-3.8609,-3.8862,-3.9045,-3.9045,-3.9408,-4.022,-4.1758,-4.2464,-4.3273,-4.4308,-4.4458,-4.4515,-4.4515,-4.4515,-4.4515,-4.4515,-4.4515,-4.4515,-4.4515,-4.4515,-4.4515,-4.4515,-4.4487,-4.444,-4.444,-4.443,-4.4401,-4.4314,-4.4285,-4.4195,-4.4135,-4.4055,-4.4005,-4.4005,-4.4005,-4.3819,-4.3578,-4.3578,-4.2915,-4.2009,-4.2154,-4.1572,-4.051,-3.9153,-3.8485,-3.8127,-3.7267,-3.6987,-3.6987,-3.6987,-3.7338,-3.7777,-3.8041,-3.8497,-3.8954,-3.9252,-3.9305,-3.9234,-3.8936,-3.8883,-3.8796,-3.8532,-3.848,-3.848,-3.848,-3.848,-3.8304,-3.7777,-3.8146,-3.848,-3.848,-3.848,-3.848,-3.848,-3.848,-3.848,-3.848,-3.848,-3.848,-3.848,-3.8664,-3.8844,-3.8978,-3.9262,-3.9482,-3.9571,-3.9642,-3.9571,-3.9282,-3.9002,-3.8554,-3.7992,-3.7688,-3.7365,-2.5791,-2.6164,-2.6414,-2.7471,-2.8298,-2.9192,-3.0269,-3.1248,-3.2038,-3.2342,-3.3499,-3.4589,-3.5115,-3.6377,-3.7504,-3.7949,-3.8219,-3.8446,-3.8523,-3.898,-3.9324,-3.9324,-3.966,-4.0566,-4.2237,-4.2538,-4.3107,-4.4252,-4.444,-4.4515,-4.4515,-4.4515,-4.4515,-4.4515,-4.4515,-4.4515,-4.4515,-4.4515,-4.4515,-4.4515,-4.4458,-4.4411,-4.4411,-4.4344,-4.4274,-4.4214,-4.4184,-4.4135,-4.4005,-4.4005,-4.3986,-4.3949,-4.3949,-4.3448,-4.2742,-4.2742,-4.2222,-4.1598,-4.1977,-4.0857,-3.9155,-3.8759,-3.813,-3.7432,-3.7126,-3.6987,-3.6987,-3.6987,-3.6987,-3.7145,-3.7865,-3.8041,-3.8251,-3.9006,-3.9199,-3.8971,-3.8216,-3.8041,-3.7848,-3.7128,-3.6987,-3.6987,-3.6987,-3.6987,-3.6987,-3.6987,-3.697,-3.6987,-3.6987,-3.6987,-3.6987,-3.6987,-3.6987,-3.697,-3.6987,-3.6987,-3.6987,-3.6987,-3.7182,-3.7297,-3.7297,-3.7685,-3.7864,-3.7864,-3.8072,-3.814,-3.8106,-3.7301,-3.686,-3.6821,-3.5985,-3.5622,-2.5594,-2.5523,-2.5709,-2.7338,-2.7762,-2.8309,-3.0072,-3.0822,-3.1364,-3.2367,-3.3255,-3.417,-3.5031,-3.6172,-3.7188,-3.7826,-3.8227,-3.8633,-3.9036,-3.9383,-3.9599,-3.9599,-3.9901,-4.0711,-4.2259,-4.266,-4.3407,-4.4782,-4.4789,-4.4739,-4.4739,-4.4587,-4.4515,-4.4515,-4.4515,-4.4515,-4.4515,-4.4515,-4.4515,-4.4515,-4.4487,-4.4468,-4.4468,-4.443,-4.4344,-4.4255,-4.4214,-4.4135,-4.4005,-4.4005,-4.3652,-4.3113,-4.3113,-4.2612,-4.1906,-4.1906,-4.1386,-4.0717,-4.0815,-4.0333,-3.9436,-3.8205,-3.7666,-3.7432,-3.7126,-3.6987,-3.6987,-3.6987,-3.6987,-3.7023,-3.7216,-3.7268,-3.7321,-3.7532,-3.7584,-3.7514,-3.7303,-3.7268,-3.7198,-3.7023,-3.6987,-3.6987,-3.6987,-3.6987,-3.6987,-3.6987,-3.6891,-3.6869,-3.6869,-3.6869,-3.6869,-3.6869,-3.6869,-3.6908,-3.6987,-3.6987,-3.6987,-3.6987,-3.7066,-3.7143,-3.7297,-3.741,-3.7521,-3.7667,-3.7864,-3.7649,-3.7013,-3.6956,-3.658,-3.5941,-3.5694,-3.5622,-2.5241,-2.5312,-2.5557,-2.7391,-2.7776,-2.8141,-2.9827,-3.0524,-3.116,-3.213,-3.3151,-3.4203,-3.5018,-3.6147,-3.7132,-3.7771,-3.8319,-3.8792,-3.9268,-3.9632,-3.9835,-3.988,-4.0175,-4.085,-4.2104,-4.2758,-4.3612,-4.4801,-4.4932,-4.4919,-4.48,-4.4688,-4.4595,-4.4515,-4.4515,-4.4515,-4.4515,-4.4515,-4.4515,-4.4515,-4.4487,-4.4458,-4.4401,-4.4344,-4.405,-4.3655,0.0,-4.336,-4.2946,-4.2946,-4.2686,-4.2259,-4.2259,-4.1776,-4.107,-4.107,-4.055,-3.9825,-3.9663,-3.9478,-3.9135,-3.8241,-3.7877,-3.7703,-3.7319,-3.7126,-3.6987,-3.6987,-3.6987,-3.6987,-3.6987,-3.6987,-3.6987,-3.6987,-3.6987,-3.6987,-3.6987,-3.6987,-3.6987,-3.6987,-3.6987,-3.6987,-3.6908,-3.6908,-3.6908,-3.6869,-3.6788,-3.6748,-3.6667,-3.6708,-3.6766,-3.6766,-3.6788,-3.6829,-3.6908,-3.6987,-3.6987,-3.6987,-3.6987,-3.7066,-3.7182,-3.7259,-3.7279,-3.7261,-3.7466,-3.7243,-3.662,-3.658,-3.635,-3.5915,-3.5711,-3.5622,-2.4874,-2.5312,-2.5779,-2.7524,-2.7855,-2.8182,-2.9546,-3.0389,-3.1145,-3.1931,-3.3203,-3.4382,-3.5203,-3.6298,-3.7285,-3.7902,-3.8499,-3.9036,-3.9432,-3.984,-4.0082,-4.0156,-4.0431,-4.0977,-4.1912,-4.2744,-4.3608,-4.4537,-4.4949,-4.5048,-4.49,-4.4872,-4.4764,-4.4551,-4.4496,-4.4515,-4.4515,-4.4402,-4.4346,-4.4346,-4.4158,-4.4064,-4.3978,-4.3908,-4.3427,-4.266,-4.263,-4.224,-4.159,-4.159,-4.1534,-4.1441,-4.1441,-4.094,-4.0215,-4.0215,-3.9751,-3.9073,-3.8778,-3.8688,-3.864,-3.8548,-3.8346,-3.8016,-3.7685,-3.7394,-3.7126,-3.7087,-3.7087,-3.7048,-3.7009,-3.6987,-3.6987,-3.6987,-3.6987,-3.6987,-3.6987,-3.6987,-3.697,-3.697,-3.6987,-3.6908,-3.6829,-3.6788,-3.6748,-3.6702,-3.6684,-3.6643,-3.6502,-3.6602,-3.6643,-3.6643,-3.6708,-3.6788,-3.6788,-3.6869,-3.6948,-3.6987,-3.6891,-3.6891,-3.6948,-3.7048,-3.6956,-3.6596,-3.6738,-3.6667,-3.633,-3.6101,-3.6002,-3.6061,-3.5732,-3.5622,-2.5312,-2.5511,-2.607,-2.731,-2.7351,-2.7577,-2.9518,-3.0208,-3.0896,-3.2633,-3.3427,-3.4333,-3.5831,-3.6614,-3.7344,-3.8462,-3.8979,-3.94,-3.9979,-4.0251,-4.0441,-4.0508,-4.0602,-4.1042,-4.1989,-4.2238,-4.2986,-4.4555,-4.4738,-4.4959,-4.5361,-4.5223,-4.5007,-4.4745,-4.4587,-4.4515,-4.4515,-4.3839,-4.3501,-4.3501,-4.276,-4.2423,-4.2396,-4.2259,-4.2128,-4.1969,-4.1853,0.0,-4.159,-4.159,-4.12,-4.0606,-4.0606,-4.0067,-3.9324,-3.9324,-3.9231,-3.9101,-3.9027,-3.8998,-3.8913,-3.8378,-3.8135,-3.8101,-3.8034,-3.7966,-3.7844,-3.7523,-3.7395,-3.7339,-3.7087,-3.6987,-3.6987,-3.6987,-3.6987,-3.6987,-3.6987,-3.6891,-3.6811,-3.6811,-3.6788,-3.6725,-3.6725,-3.6742,-3.6684,-3.6702,-3.6602,-3.6544,-3.6502,-3.6502,-3.6544,-3.6544,-3.6544,-3.6585,-3.6684,-3.6544,-3.655,-3.6829,-3.6367,-3.6224,-3.6568,-3.6308,-3.5872,-3.5328,-3.5521,-3.5186,-3.4294,-3.5018,-3.5187,-3.4822,-3.5362,-3.5622,-2.5721,-2.6,-2.6471,-2.7934,-2.8117,-2.84,-2.9983,-3.0778,-3.1519,-3.2779,-3.3838,-3.4872,-3.6086,-3.7029,-3.7902,-3.8823,-3.9333,-3.98,-4.0342,-4.0492,-4.0579,-4.07,-4.0732,-4.0936,-4.1427,-4.1884,-4.2496,-4.333,-4.3796,-4.4273,-4.4861,-4.4249,-4.3783,-4.3512,-4.3428,-4.334,-4.3219,-4.2825,-4.2618,-4.2618,-4.2205,-4.1991,-4.1965,-4.1884,-4.1577,-4.1129,-4.1063,-4.0746,-4.029,-4.029,-4.0067,-3.9714,-3.9714,-3.9472,-3.9101,-3.9101,-3.9101,-3.9101,-3.9101,-3.9101,-3.9045,-3.8718,-3.8504,-3.8346,-3.8168,-3.7948,-3.7703,-3.7339,-3.7243,-3.7206,-3.7048,-3.6987,-3.6987,-3.6987,-3.6987,-3.6987,-3.6908,-3.6869,-3.6788,-3.6748,-3.6725,-3.6702,-3.6602,-3.6273,-3.6012,-3.5913,-3.5544,-3.5244,-3.5244,-3.5244,-3.5399,-3.578,-3.5873,-3.5798,-3.5536,-3.5427,-3.5409,-3.5431,-3.5175,-3.5053,-3.5105,-3.4947,-3.4634,-3.4167,-3.4316,-3.412,-3.3507,-3.3955,-3.4083,-3.3931,-3.4303,-3.4472,-2.6126,-2.6496,-2.7015,-2.8556,-2.9002,-2.9317,-3.054,-3.1462,-3.229,-3.3029,-3.4332,-3.5623,-3.6423,-3.7523,-3.8504,-3.917,-3.9675,-4.0139,-4.0539,-4.0607,-4.0675,-4.0812,-4.0815,-4.0848,-4.0898,-4.1548,-4.2015,-4.2218,-4.2781,-4.3431,-4.4066,-4.3278,-4.2699,-4.2476,-4.2408,-4.2309,-4.2102,-4.1856,-4.1755,-4.1755,-4.1586,-4.1466,-4.1413,-4.1386,-4.0969,-4.0262,-4.0235,-3.9788,-3.9101,-3.9101,-3.9101,-3.9101,-3.9101,-3.9101,-3.9101,-3.9101,-3.9101,-3.9101,-3.9101,-3.9101,-3.9101,-3.9101,-3.8865,-3.8548,-3.8281,-3.7948,-3.7559,-3.7223,-3.7126,-3.7069,-3.7009,-3.6987,-3.697,-3.697,-3.6948,-3.6895,-3.6619,-3.6544,-3.6469,-3.6255,-3.6197,-3.6116,-3.6017,-3.5515,-3.5094,-3.4996,-3.4456,-3.4093,-3.4093,-3.4093,-3.4209,-3.4541,-3.491,-3.4891,-3.4401,-3.437,-3.4352,-3.4279,-3.4164,-3.4024,-3.39,-3.3865,-3.3618,-3.316,-3.3236,-3.3126,-3.2749,-3.29,-3.3026,-3.3169,-3.3339,-3.3406,-2.6483,-2.6905,-2.7656,-2.8597,-2.8903,-2.9366,-3.0793,-3.1901,-3.2892,-3.3855,-3.5073,-3.6219,-3.729,-3.8077,-3.8841,-3.9694,-4.0063,-4.0351,-4.0559,-4.0642,-4.073,-4.0869,-4.0897,-4.0921,-4.0974,-4.1059,-4.1434,-4.2233,-4.2295,-4.2645,-4.3439,-4.3217,-4.3054,-4.3038,-4.262,-4.2382,-4.236,-4.1399,-4.091,-4.091,-4.0159,-3.9802,-3.9802,-3.9745,-3.9657,-3.9504,-3.9368,-3.923,0.0,-3.9101,-3.9101,-3.9101,-3.9101,-3.9101,-3.9101,-3.9101,-3.9101,-3.9101,-3.9101,-3.9101,-3.9101,-3.9101,-3.8865,-3.8579,-3.8548,-3.8314,-3.7948,-3.7578,-3.7469,-3.7358,-3.7087,-3.6987,-3.6987,-3.6869,-3.6829,-3.6636,-3.5955,-3.564,-3.5352,-3.4815,-3.4561,-3.4424,-3.4406,-3.4354,-3.4281,-3.4219,-3.4128,-3.4093,-3.4093,-3.4093,-3.3716,-3.2666,-3.3568,-3.4224,-3.4216,-3.4076,-3.4116,-3.4466,-3.3968,-3.3825,-3.4155,-3.3825,-3.3199,-3.2334,-3.2317,-3.1955,-3.1217,-3.1873,-3.2293,-3.2432,-3.3085,-3.3406,-2.755,-2.7894,-2.8417,-2.9656,-3.0025,-3.054,-3.2124,-3.2833,-3.3499,-3.4828,-3.5857,-3.6841,-3.7729,-3.8654,-3.9463,-4.0059,-4.0369,-4.0591,-4.0772,-4.0839,-4.0904,-4.094,-4.0954,-4.0968,-4.1006,-4.1006,-4.1143,-4.1482,-4.149,-4.1602,-4.1888,-4.1815,-4.1693,-4.1552,-4.1396,-4.1169,-4.0908,-4.0454,-4.0203,-4.0065,-3.9771,-3.9602,-3.9602,-3.9571,-3.952,-3.9444,-3.9399,-3.9301,0.0,-3.9156,-3.9129,-3.9101,-3.9101,-3.9101,-3.9101,-3.9101,-3.9101,-3.9101,-3.9101,-3.9101,-3.9101,-3.9101,-3.8865,-3.8609,-3.8609,-3.8378,-3.8034,-3.7614,-3.7339,-3.7079,-3.6429,-3.5952,-3.5601,-3.5563,-3.5524,-3.5399,-3.4987,-3.484,-3.4675,-3.4324,-3.4177,-3.4155,-3.4155,-3.3757,-3.3408,-3.3369,-3.299,-3.2714,-3.2714,-3.2714,-3.2555,-3.2038,-3.261,-3.273,-3.2076,-3.2116,-3.2139,-3.2145,-3.21,-3.1996,-3.1955,-3.1914,-3.1698,-3.1314,-3.1395,-3.1301,-3.1015,-3.1398,-3.159,-3.163,-3.1935,-3.2087,-2.8698,-2.8967,-2.9282,-3.051,-3.1028,-3.1618,-3.3029,-3.3754,-3.4445,-3.5674,-3.6663,-3.7558,-3.8266,-3.9171,-3.9929,-4.0289,-4.0591,-4.0788,-4.0894,-4.0944,-4.0979,-4.1003,-4.0971,-4.0971,-4.1007,-4.1027,-4.1037,-4.1032,-4.1,-4.0986,-4.0932,-4.0935,-4.0829,-4.0616,-4.0617,-4.0438,-4.0119,-3.9983,-3.9832,-3.9684,-3.9626,-3.9602,-3.9602,-3.9602,-3.9571,-3.9495,-3.9495,-3.9399,0.0,-3.921,-3.9156,-3.9101,-3.9101,-3.9101,-3.9101,-3.9101,-3.9101,-3.9101,-3.9101,-3.9101,-3.9101,-3.9101,-3.8942,-3.8663,-3.8364,-3.8196,-3.798,-3.7433,-3.6897,-3.6297,-3.5656,-3.5092,-3.4688,-3.4614,-3.4614,-3.4506,-3.4091,-3.3963,-3.3856,-3.3571,-3.3481,-3.3442,-3.3442,-3.2976,-3.2596,-3.2576,-3.2127,-3.18,-3.18,-3.18,-3.1746,-3.1634,-3.181,-3.1658,-3.1021,-3.1201,-3.1201,-3.0948,-3.114,-3.1117,-3.0797,-3.0878,-3.0895,-3.0773,-3.0935,-3.0975,-3.0975,-3.1072,-3.1151,-3.119,-3.119,-3.119,-3.0011,-2.995,-3.0133,-3.0852,-3.1588,-3.24,-3.3156,-3.4603,-3.5882,-3.6307,-3.7453,-3.8529,-3.9005,-3.9638,-4.0179,-4.0444,-4.0719,-4.0894,-4.0899,-4.0892,-4.0937,-4.0992,-4.0943,-4.0921,-4.099,-4.1066,-4.1109,-4.1096,-4.105,-4.0994,-4.0987,-4.0999,-4.0971,-4.0907,-4.0711,-4.0604,-4.059,-4.0138,-3.9901,-3.988,-3.9708,-3.9602,-3.9602,-3.9602,-3.9571,-3.9495,-3.9495,-3.9399,0.0,-3.921,-3.9156,-3.9101,-3.9101,-3.9101,-3.9101,-3.9101,-3.9101,-3.9101,-3.9101,-3.9101,-3.9101,-3.9101,-3.9101,-3.8878,-3.7742,-3.7739,-3.7938,-3.7054,-3.5978,-3.5065,-3.478,-3.4705,-3.4651,-3.4463,-3.4387,-3.4178,-3.3301,-3.3014,-3.2772,-3.2211,-3.2001,-3.1929,-3.1929,-3.1912,-3.1893,-3.18,-3.18,-3.18,-3.18,-3.18,-3.1617,-3.1162,-3.1123,-3.1317,-3.1858,-3.202,-3.2001,-3.18,-3.1839,-3.1748,-3.1504,-3.1483,-3.1329,-3.1015,-3.1015,-3.0992,-3.0912,-3.0912,-3.0992,-3.119,-3.119,-3.119,-3.1245,-3.1444,-3.1754,-3.2694,-3.33,-3.3941,-3.4725,-3.5581,-3.6457,-3.7523,-3.8253,-3.8885,-3.9596,-4.0038,-4.0408,-4.0725,-4.0873,-4.0974,-4.0965,-4.1013,-4.1014,-4.0937,-4.0948,-4.0986,-4.1055,-4.1086,-4.1104,-4.1109,-4.109,-4.1057,-4.0994,-4.1,-4.0999,-4.098,-4.0869,-4.0734,-4.0604,-4.0423,-4.0173,-3.9901,-3.9829,-3.9731,-3.9602,-3.9602,-3.9596,-3.9571,-3.9571,-3.9476,-3.9346,-3.9346,-3.9229,-3.9101,-3.9101,-3.9101,-3.9101,-3.9101,-3.9101,-3.9101,-3.9101,-3.8729,-3.8284,-3.8229,-3.7683,-3.7024,-3.6842,-3.7009,-3.6988,-3.5616,-3.4552,-3.3792,-3.3717,-3.3296,-3.2912,-3.284,-3.284,-3.2734,-3.2364,-3.2239,-3.2152,-3.1944,-3.1856,-3.1819,-3.1819,-3.1819,-3.1819,-3.18,-3.18,-3.18,-3.18,-3.18,-3.1746,-3.1579,-3.1295,-3.0908,-3.0485,-3.0804,-3.0845,-3.046,-3.0764,-3.0902,-3.0838,-3.0838,-3.0757,-3.0634,-3.0733,-3.0773,-3.0773,-3.0871,-3.0952,-3.1055,-3.1055,-3.1112,-3.2972,-3.3129,-3.3441,-3.4121,-3.4742,-3.5382,-3.6063,-3.6717,-3.7451,-3.8551,-3.902,-3.9456,-4.0077,-4.0421,-4.0662,-4.0895,-4.0974,-4.1016,-4.1022,-4.1003,-4.0969,-4.0859,-4.0933,-4.1007,-4.1027,-4.1073,-4.1099,-4.1104,-4.1108,-4.1078,-4.1047,-4.1037,-4.1033,-4.0999,-4.0924,-4.0849,-4.0711,-4.0597,-4.0358,-4.0005,-3.9941,-3.9804,-3.9602,-3.9602,-3.9602,-3.9596,-3.9571,-3.9495,0.0,-3.9346,-3.9248,-3.9101,-3.9101,-3.9101,-3.9064,-3.8767,-3.8655,-3.8599,-3.8275,-3.7829,-3.7394,-3.734,-3.6546,-3.5637,-3.5799,-3.5985,-3.5842,-3.4606,-3.3634,-3.2931,-3.2841,-3.2457,-3.2108,-3.2108,-3.2073,-3.1984,-3.1875,-3.1875,-3.1839,-3.18,-3.18,-3.18,-3.18,-3.18,-3.18,-3.18,-3.18,-3.18,-3.18,-3.18,-3.18,-3.18,-3.1542,-3.1083,-3.0335,-3.0535,-3.0535,-3.0241,-3.051,-3.0651,-3.0526,-3.0526,-3.0526,-3.0526,-3.0568,-3.0651,-3.0692,-3.0871,-3.0935,-3.1015,-3.1055,-3.1112,0.0,-3.5081,-3.5166,-3.5267,-3.598,-3.6756,-3.7149,-3.794,0.0,-3.9353,-3.9775,-4.0145,-4.047,-4.0734,-4.0917,-4.099,-4.0994,-4.102,-4.1075,-4.0924,-4.0804,-4.0808,-4.0924,-4.098,-4.0925,-4.1032,-4.1105,-4.1099,-4.1094,-4.1111,-4.1108,-4.1109,-4.1061,-4.0994,-4.0941,-4.0888,-4.0907,-4.0711,-4.0482,-4.0221,-4.0005,-3.981,-3.9626,-3.962,-3.9602,0.0,-3.9546,-3.9469,-3.9391,-3.9256,-3.9137,-3.9008,-3.9008,-3.899,-3.8841,-3.8079,-3.7801,-3.7681,-3.6867,-3.6562,-3.6488,-3.6325,-3.5579,-3.4728,-3.4652,-3.4652,-3.4504,-3.3886,-3.3137,-3.2506,-3.2249,-3.2108,-3.2073,-3.2073,-3.1984,-3.1875,-3.1819,-3.18,-3.18,-3.18,-3.18,-3.18,-3.18,-3.18,-3.18,-3.18,-3.18,-3.18,-3.18,-3.18,-3.18,-3.18,-3.1746,-3.1542,-3.1123,-3.1044,-3.0998,-3.0871,-3.0952,-3.0855,-3.051,-3.0526,-3.0526,-3.0526,-3.0526,-3.0568,-3.0692,-3.0895,-3.0975,-3.1015,-3.1112,-3.119,-3.7633,0.0,-3.6783,-3.7202,-3.7784,-3.8297,0.0,-3.8976,-3.9515,-3.9915,-4.0211,-4.047,-4.0758,-4.0859,-4.0918,-4.0983,-4.0953,-4.0906,-4.0888,-4.0826,-4.0846,-4.0949,-4.0974,-4.1011,-4.1058,-4.1073,-4.111,-4.1105,-4.1101,-4.1094,-4.1108,-4.1109,-4.1061,-4.0994,-4.0984,-4.0943,-4.0907,-4.0858,-4.0687,-4.0434,-4.0245,-4.0022,-3.9826,-3.9656,-3.9602,-3.9602,-3.9577,-3.952,-3.9391,-3.9373,-3.8902,-3.8172,-3.8172,-3.7774,-3.7145,-3.6978,-3.6859,-3.6786,-3.6601,-3.6139,-3.5438,-3.443,-3.4091,-3.3927,-3.3424,-3.3144,-3.2918,-3.2751,-3.2389,-3.1965,-3.191,-3.1873,-3.1873,-3.1873,-3.1873,-3.1819,-3.18,-3.18,-3.18,-3.18,-3.18,-3.18,-3.18,-3.18,-3.18,-3.18,-3.18,-3.18,-3.18,-3.18,-3.18,-3.18,-3.1218,-3.0845,-3.0885,-3.1196,-3.1173,-3.0651,-3.0814,-3.079,-3.051,-3.0526,-3.0526,-3.0526,-3.0526,-3.0568,-3.0692,-3.0733,-3.0855,-3.1015,-3.1015,-3.1112,-3.926,-3.8726,-3.8203,-3.8544,-3.8964,-3.9305,-3.9501,-3.9793,-4.0106,-4.0451,-4.0616,-4.0742,-4.0914,-4.0945,-4.0953,-4.0937,-4.0897,-4.0839,-4.0812,-4.0792,-4.0826,-4.0888,-4.0904,-4.094,-4.1037,-4.1043,-4.1074,-4.1108,-4.1101,-4.1097,-4.1111,-4.1097,-4.1076,-4.0994,-4.0993,-4.0976,-4.0907,-4.0888,-4.0776,-4.0538,-4.0389,-4.0192,-3.9897,-3.9781,-3.9679,-3.9583,-3.9139,-3.8896,-3.8756,-3.8376,-3.7869,-3.7336,-3.7336,-3.705,-3.6597,-3.6226,-3.6051,-3.5917,-3.5502,-3.5043,-3.4475,-3.364,-3.3465,-3.3465,-3.2952,-3.2586,-3.2403,-3.2553,-3.23,-3.202,-3.2073,-3.1965,-3.18,-3.1856,-3.1819,-3.18,-3.18,-3.18,-3.18,-3.18,-3.18,-3.18,-3.18,-3.18,-3.18,-3.18,-3.18,-3.18,-3.18,-3.18,-3.1662,-3.1317,-3.0709,-3.0208,-2.9989,-3.0049,-3.0157,-3.0351,-3.0485,-3.0419,-3.0029,-3.0013,-2.9864,-2.9533,-2.9533,-2.9573,-2.9629,-2.9692,-2.9772,-2.9945,-2.9967,-3.0044,-4.0252,-3.9908,-3.9502,-3.9566,-3.9771,-4.0027,-4.0301,-4.0419,-4.0563,-4.0851,-4.0913,-4.0935,-4.0992,-4.0986,-4.0949,-4.0888,-4.0828,-4.0792,-4.0803,-4.0804,-4.0796,-4.0803,-4.0815,-4.0858,-4.0981,-4.1012,-4.103,-4.1108,-4.1103,-4.1097,-4.1111,-4.1108,-4.1074,-4.1019,-4.1013,-4.0901,-4.0722,-4.083,-4.0809,-4.0649,-4.0422,-4.0134,-3.9793,-3.9596,-3.9403,-3.9194,0.0,0.0,-3.786,-3.7112,-3.6708,-3.6519,-3.6519,-3.6426,-3.6222,-3.5528,-3.5217,-3.5073,-3.4257,-3.3895,-3.3734,-3.3465,-3.3379,-3.3302,-3.3001,-3.2684,-3.2504,-3.2731,-3.2519,-3.2249,-3.23,-3.2038,-3.1819,-3.1875,-3.1856,-3.18,-3.18,-3.18,-3.18,-3.18,-3.18,-3.18,-3.18,-3.18,-3.18,-3.18,-3.18,-3.1765,-3.1645,-3.1627,-3.1334,-3.0593,-3.0148,-2.9692,-2.9064,-2.8557,-2.8758,-2.9821,-2.9903,-2.9708,-2.9284,-2.9251,-2.8986,-2.839,-2.8412,-2.8428,-2.8412,-2.8472,-2.8603,-2.8716,-2.8774,-2.8864,-4.0436,-4.0586,-4.0673,-4.0397,-4.0494,-4.0654,-4.0634,-4.0725,-4.0857,-4.0957,-4.0971,-4.0998,-4.1,-4.0915,-4.0839,-4.0828,-4.0812,-4.0803,-4.079,-4.0803,-4.0796,-4.0803,-4.0856,-4.0924,-4.0987,-4.1046,-4.1086,-4.1108,-4.1107,-4.1101,-4.1111,-4.1108,-4.1097,-4.1086,-4.1025,-4.0643,-3.9898,-4.0557,-4.0888,-4.0837,-3.9915,-3.9427,-3.9265,-3.8195,-3.7671,-3.7648,0.0,-3.7149,-3.7075,-3.687,-3.6373,-3.5665,-3.5665,-3.5194,-3.4494,-3.4289,-3.4201,-3.4105,-3.3897,-3.3834,-3.3788,-3.3734,-3.3734,-3.3652,-3.3302,-3.3202,-3.3093,-3.2876,-3.2369,-3.1893,-3.1893,-3.1856,-3.18,-3.1819,-3.18,-3.18,-3.18,-3.18,-3.18,-3.18,-3.18,-3.18,-3.18,-3.18,-3.18,-3.18,-3.18,-3.1576,-3.0938,-3.0869,-3.0558,-2.9782,-2.9327,-2.9059,-2.8979,-2.8367,-2.8115,-2.8385,-2.8576,-2.8638,-2.8539,-2.8539,-2.8528,-2.8412,-2.8412,-2.8412,-2.8472,-2.8603,-2.8716,-2.8774,-2.879,-2.8811,-4.0757,-4.092,-4.1026,-4.0866,-4.089,-4.0932,-4.0875,-4.0917,-4.0943,-4.0944,-4.0942,-4.0921,-4.0906,-4.0839,-4.0792,-4.08,-4.0796,-4.079,-4.079,-4.0778,-4.0759,-4.079,-4.0788,-4.0828,-4.0941,-4.1019,-4.1042,-4.1054,-4.1072,-4.1103,-4.1091,-4.0659,-4.0398,-4.0394,-3.992,-3.9435,-3.9011,-3.936,-3.9539,-3.9491,-3.8999,-3.8691,-3.8532,-3.7806,-3.7414,-3.7255,0.0,-3.6325,-3.6216,-3.5658,-3.52,-3.4791,-3.4791,-3.4525,-3.4148,-3.4049,-3.3947,-3.3895,-3.3815,-3.3807,-3.3762,-3.3597,-3.3231,-3.2811,-3.2475,-3.2068,-3.1697,-3.1546,-3.1784,-3.2055,-3.2055,-3.1929,-3.18,-3.18,-3.18,-3.18,-3.18,-3.18,-3.18,-3.18,-3.18,-3.18,-3.18,-3.18,-3.1662,-3.1265,-3.1196,-3.092,-3.0144,-3.0058,-2.9765,-2.8989,-2.8544,-2.8146,-2.7775,-2.7061,-2.6948,-2.7842,-2.7728,-2.7663,-2.7624,-2.7375,-2.7214,-2.7214,-2.7214,-2.7251,-2.7271,-2.7308,-2.7381,-2.7456,-2.7456,-2.7509,-4.1003,-4.1062,-4.1094,-4.1087,-4.1087,-4.1064,-4.0988,-4.0972,-4.0954,-4.0882,-4.0878,-4.0868,-4.0807,-4.0781,-4.0784,-4.079,-4.079,-4.079,-4.079,-4.0746,-4.0746,-4.079,-4.0746,-4.0776,-4.0898,-4.0949,-4.0978,-4.1008,-4.0879,-4.0796,-4.0798,-3.9976,-3.952,-3.9525,-3.8867,-3.839,-3.813,-3.8097,-3.816,-3.8297,-3.8093,-3.7912,-3.7758,-3.7302,-3.7007,-3.6825,-3.5934,-3.5533,-3.5408,-3.4619,-3.4269,-3.4197,-3.4197,-3.4173,-3.4148,-3.4049,-3.3836,-3.3592,-3.354,-3.3403,-3.3211,-3.2948,-3.2428,-3.1864,-3.1547,-3.1017,-3.0487,-3.0428,-3.1083,-3.1841,-3.1774,-3.1516,-3.1265,-3.1265,-3.1265,-3.1265,-3.1265,-3.1265,-3.1265,-3.1265,-3.1265,-3.1265,-3.1265,-3.1265,-3.1058,-3.0489,-3.042,-3.0127,-2.9351,-2.9248,-2.8921,-2.8097,-2.7726,-2.7266,-2.6555,-2.5924,-2.6043,-2.7138,-2.6912,-2.6733,-2.6733,-2.6392,-2.622,-2.622,-2.622,-2.622,-2.622,-2.6203,-2.6258,-2.6295,-2.6295,-2.6347,-4.1082,-4.1094,-4.1097,-4.1018,-4.1008,-4.0998,-4.0921,-4.0913,-4.0888,-4.082,-4.0807,-4.08,-4.08,-4.0752,-4.07,-4.07,-4.0759,-4.079,-4.079,-4.079,-4.079,-4.079,-4.079,-4.082,-4.0898,-4.0897,-4.0928,-4.1006,-4.0306,-3.9883,-3.9881,-3.9136,-3.8687,-3.8687,-3.8571,-3.811,-3.7286,-3.7218,-3.7577,-3.8297,-3.7473,-3.7094,-3.7033,-3.6029,-3.5551,-3.5523,-3.5077,-3.4827,-3.4747,-3.4427,-3.4269,-3.4197,-3.4197,-3.4124,-3.4023,-3.3998,-3.346,-3.2687,-3.2706,-3.221,-3.1568,-3.1524,-3.1488,-3.14,-3.1048,-3.0902,-3.0792,-3.0487,-3.0457,-3.0485,-3.024,-2.9932,-2.9679,-2.9679,-2.9679,-2.9679,-2.9679,-2.9679,-2.9679,-2.9679,-2.9679,-2.9679,-2.9679,-2.9679,-2.9661,-2.9592,-2.9592,-2.9317,-2.8575,-2.8472,-2.8029,-2.6928,-2.6809,-2.6521,-2.5941,-2.5758,-2.5696,-2.5751,-2.5868,-2.5963,-2.5963,-2.6112,-2.622,-2.622,-2.622,-2.622,-2.622,-2.6277,-2.6295,-2.6295,-2.6295,-2.6295,-4.1093,-4.1077,-4.1037,-4.1019,-4.0874,-4.0761,-4.083,-4.0839,-4.0773,-4.0596,-4.0621,-4.0626,-4.0466,-4.0579,-4.0673,-4.0534,-4.0673,-4.079,-4.079,-4.079,-4.079,-4.079,-4.079,-4.0815,-4.0843,-4.0383,-4.0093,-4.0131,-3.9419,-3.8998,-3.8998,-3.8235,-3.7782,-3.7789,-3.7206,-3.6727,-3.6395,-3.6324,-3.6442,-3.6735,-3.6358,-3.6183,-3.6172,-3.5637,-3.5405,-3.5391,-3.5045,-3.4851,-3.4753,-3.4548,-3.4413,-3.4245,-3.4173,-3.3778,-3.3259,-3.3209,-3.2617,-3.1843,-3.1843,-3.1641,-3.1384,-3.1384,-3.1054,-3.0626,-3.0508,-3.0129,-2.9703,-2.9559,-2.9411,-2.944,-3.0077,-3.0033,-2.9791,-2.9791,-2.9642,-2.9506,-2.9506,-2.9506,-2.9506,-2.9506,-2.9506,-2.9506,-2.9506,-2.9506,-2.9351,-2.8885,-2.8816,-2.8558,-2.7799,-2.7713,-2.7463,-2.6759,-2.647,-2.6139,-2.5652,-2.5594,-2.546,-2.5224,-2.5508,-2.5749,-2.5881,-2.6096,-2.622,-2.622,-2.622,-2.622,-2.622,-2.6239,-2.6222,-2.6222,-2.6222,-2.6222,-4.1103,-4.1051,-4.098,-4.096,-4.082,-4.0687,-4.0792,-4.0725,-4.0635,-4.0489,-4.0473,-4.0438,-4.0353,-4.0434,-4.0515,-4.0469,-4.0626,-4.0746,-4.079,-4.079,-4.0778,-4.079,-4.0558,-4.0384,-4.0384,-3.9633,-3.9179,-3.9208,-3.8502,-3.8063,-3.8086,-3.7323,-3.6889,-3.6858,-3.6231,-3.5903,-3.5897,-3.583,-3.581,-3.5793,-3.5747,-3.5718,-3.5707,-3.5558,-3.5464,-3.5391,-3.5127,-3.4906,-3.4753,-3.4569,-3.4263,-3.3878,-3.3505,-3.3006,-3.2434,-3.2379,-3.1814,-3.1042,-3.1042,-3.0852,-3.0632,-3.0632,-3.0265,-2.9824,-2.9824,-2.9457,-2.8994,-2.8905,-2.8743,-2.8778,-2.9497,-2.9478,-2.9267,-2.9158,-2.8965,-2.8816,-2.8816,-2.8816,-2.8816,-2.8816,-2.8816,-2.8816,-2.8816,-2.8816,-2.8627,-2.8127,-2.804,-2.7868,-2.7351,-2.7299,-2.7137,-2.6725,-2.6245,-2.5799,-2.554,-2.5389,-2.5269,-2.5123,-2.5333,-2.5562,-2.5696,-2.597,-2.6096,-2.6096,-2.6168,-2.622,-2.622,-2.622,-2.622,-2.622,-2.622,-2.622,-4.1094,-4.1057,-4.0981,-4.0921,-4.0849,-4.0796,-4.0803,-4.0598,-4.0441,-4.0573,-4.037,-4.0283,-4.0558,-4.037,-4.0281,-4.0559,-4.0588,-4.0635,-4.0771,-4.0726,-4.0713,-4.0771,-3.9997,-3.9487,-3.9487,-3.8702,-3.8248,-3.839,-3.7572,-3.7118,-3.718,-3.6426,-3.5973,-3.5908,-3.5903,-3.5897,-3.5905,-3.5842,-3.5799,-3.5799,-3.5793,-3.5757,-3.5707,-3.5695,-3.5589,-3.5391,-3.5127,-3.4868,-3.4674,-3.4394,-3.3785,-3.2897,-3.2098,-3.176,-3.1691,-3.1621,-3.1033,-3.0286,-3.0215,-2.9677,-2.8994,-2.8994,-2.8994,-2.8994,-2.8994,-2.8994,-2.8929,-2.8694,-2.8601,-2.8507,-2.8183,-2.7897,-2.7612,-2.7376,-2.7299,-2.7299,-2.7299,-2.7299,-2.7299,-2.7299,-2.7299,-2.7299,-2.7299,-2.7299,-2.7299,-2.7299,-2.7299,-2.7299,-2.7299,-2.7299,-2.7137,-2.6725,-2.598,-2.5503,-2.5503,-2.5208,-2.51,-2.5294,-2.5294,-2.5294,-2.5294,-2.5712,-2.5897,-2.5897,-2.6096,-2.622,-2.622,-2.622,-2.622,-2.622,-2.622,-2.622,-4.1085,-4.1042,-4.0974,-4.0924,-4.0768,-4.0662,-4.0713,-4.0515,-4.0336,-4.0321,-4.0269,-4.0213,-4.0304,-4.0408,-4.0457,-4.0334,-4.0481,-4.0428,-3.9895,-3.9799,-3.958,-3.9032,-3.8748,-3.8586,-3.8586,-3.7793,-3.7315,-3.7404,-3.6642,-3.6203,-3.6282,-3.6052,-3.5933,-3.5973,-3.591,-3.5895,-3.5897,-3.583,-3.5799,-3.5791,-3.5756,-3.5728,-3.5699,-3.5707,-3.5665,-3.5608,-3.5331,-3.4767,-3.3994,-3.3002,-3.2426,-3.2117,-3.1784,-3.1293,-3.0771,-3.0654,-3.0092,-2.9389,-2.9365,-2.9195,-2.8994,-2.8994,-2.8994,-2.8994,-2.8994,-2.8994,-2.8994,-2.8905,-2.8743,-2.8507,-2.8183,-2.7897,-2.7672,-2.76,-2.7452,-2.7299,-2.7299,-2.7299,-2.7299,-2.7299,-2.7299,-2.7299,-2.7299,-2.7299,-2.7299,-2.7299,-2.7299,-2.7299,-2.7299,-2.7055,-2.6725,-2.6315,-2.5799,-2.5389,-2.5169,-2.5045,-2.5021,-2.51,-2.5084,-2.5201,-2.5508,-2.577,-2.5897,-2.5897,-2.6096,-2.622,-2.622,-2.622,-2.622,-2.622,-2.622,-2.622,-4.108,-4.1057,-4.0974,-4.0924,-4.0798,-4.0662,-4.0593,-4.0504,-4.0406,-4.0339,-4.0251,-4.0233,-4.0304,-4.0392,-4.031,-3.9912,-3.9969,-3.9807,-3.9006,-3.8878,-3.8717,-3.8247,-3.7885,-3.7677,-3.7677,-3.6922,-3.6441,-3.6474,-3.6027,-3.5795,-3.5883,-3.5895,-3.5913,-3.5956,-3.5929,-3.59,-3.586,-3.5859,-3.5834,-3.5791,-3.5756,-3.5563,-3.5224,-3.5553,-3.5461,-3.5044,-3.4347,-3.3718,-3.3031,-3.1854,-3.1362,-3.1281,-3.0898,-3.0409,-2.9961,-2.983,-2.9467,-2.904,-2.9017,-2.8994,-2.8994,-2.8994,-2.8994,-2.8994,-2.8994,-2.8994,-2.8994,-2.8881,-2.8626,-2.8334,-2.8037,-2.7742,-2.7539,-2.7539,-2.7421,-2.7299,-2.7299,-2.7299,-2.7299,-2.7299,-2.7299,-2.7299,-2.7299,-2.7299,-2.7299,-2.7299,-2.7299,-2.725,-2.7072,-2.6842,-2.6539,-2.6139,-2.5726,-2.5406,-2.5208,-2.5068,-2.5005,-2.5005,-2.5005,-2.5123,-2.5339,-2.5621,-2.577,-2.577,-2.6059,-2.6168,-2.6096,-2.6168,-2.622,-2.622,-2.622,-2.622,-4.1074,-4.1046,-4.0994,-4.0929,-4.0849,-4.073,-4.0466,-4.0466,-4.0477,-4.0489,-4.0281,-4.0172,-4.0358,-4.0166,-3.9825,-3.9273,-3.9191,-3.8902,-3.8086,-3.7983,-3.7977,-3.7945,-3.7266,-3.6787,-3.6787,-3.6129,-3.5706,-3.5699,-3.5708,-3.5765,-3.5872,-3.5903,-3.5908,-3.5903,-3.5898,-3.5879,-3.5817,-3.5794,-3.5748,-3.5682,-3.5599,-3.5154,-3.4409,-3.5213,-3.4998,-3.3909,-3.2646,-3.2053,-3.1899,-3.0908,-3.0504,-3.0429,-2.9665,-2.9365,-2.9302,-2.9218,-2.9175,-2.9089,-2.904,-2.9017,-2.9017,-2.9017,-2.8994,-2.8994,-2.8994,-2.8994,-2.8952,-2.8718,-2.8404,-2.8075,-2.7858,-2.7539,-2.7345,-2.7345,-2.733,-2.7299,-2.7299,-2.7299,-2.7299,-2.7299,-2.7299,-2.7299,-2.7299,-2.7299,-2.7299,-2.7299,-2.7299,-2.7186,-2.6808,-2.6725,-2.6539,-2.6139,-2.5726,-2.5503,-2.5465,-2.5169,-2.5005,-2.5005,-2.5005,-2.5005,-2.5045,-2.5394,-2.5567,-2.5605,-2.597,-2.6096,-2.5934,-2.6096,-2.622,-2.622,-2.622,-2.6253,-4.0996,-4.1008,-4.1003,-4.0986,-4.0888,-4.0773,-4.0668,-4.0125,-3.976,-4.0183,-3.9854,-3.9515,-3.9546,-3.8958,-3.8424,-3.8296,-3.8277,-3.7969,-3.7118,-3.7049,-3.6858,-3.624,-3.5987,-3.5894,-3.5955,-3.58,-3.5695,-3.5706,-3.5708,-3.5736,-3.5826,-3.5878,-3.5894,-3.5907,-3.5908,-3.5898,-3.5877,-3.5208,-3.4853,-3.4769,-3.4085,-3.3652,-3.3518,-3.4304,-3.4071,-3.2938,-3.1867,-3.1293,-3.1015,-3.0048,-2.9667,-2.9628,-2.9418,-2.9323,-2.9302,-2.9175,-2.9152,-2.9156,-2.904,-2.904,-2.9085,-2.9017,-2.8994,-2.8994,-2.8994,-2.8994,-2.8994,-2.8929,-2.8718,-2.8482,-2.8404,-2.8,-2.763,-2.763,-2.7434,-2.7299,-2.7299,-2.7299,-2.7299,-2.7299,-2.7299,-2.7299,-2.7299,-2.7299,-2.7299,-2.7299,-2.7299,-2.7267,-2.7186,-2.6892,-2.6539,-2.6139,-2.5726,-2.5406,-2.5146,-2.5045,-2.5005,-2.5005,-2.5005,-2.5045,-2.5217,-2.5333,-2.5432,-2.5605,-2.5844,-2.6007,-2.6132,-2.6184,-2.622,-2.622,-2.622,-2.6518,-4.0941,-4.0991,-4.105,-4.1011,-4.0902,-4.0694,-4.0277,-3.9779,-3.9372,-3.9273,-3.895,-3.8681,-3.8681,-3.8315,-3.7853,-3.745,-3.7373,-3.7084,-3.6238,-3.6183,-3.6068,-3.5649,-3.5639,-3.5654,-3.5704,-3.5704,-3.5704,-3.5704,-3.5697,-3.5718,-3.5791,-3.5842,-3.5872,-3.5899,-3.5929,-3.572,-3.5276,-3.4827,-3.4364,-3.3915,-3.3436,-3.2956,-3.2551,-3.2968,-3.283,-3.2204,-3.1199,-3.0636,-3.0371,-2.9795,-2.9471,-2.9407,-2.9365,-2.9323,-2.924,-2.9156,-2.9112,-2.9089,-2.9017,-2.9017,-2.9062,-2.9017,-2.8994,-2.8994,-2.8994,-2.8994,-2.8994,-2.8994,-2.8791,-2.8601,-2.8601,-2.8165,-2.7701,-2.7701,-2.7496,-2.7299,-2.7299,-2.7299,-2.7299,-2.7299,-2.7299,-2.7299,-2.7299,-2.7299,-2.7299,-2.7299,-2.7299,-2.7218,-2.7023,-2.6657,-2.6245,-2.5872,-2.5481,-2.5208,-2.5005,-2.5005,-2.5005,-2.5005,-2.5005,-2.506,-2.5139,-2.5178,-2.5317,-2.5605,-2.5807,-2.597,-2.6059,-2.6132,-2.6385,-2.6717,-2.6717,-2.7114,-4.0867,-4.0972,-4.1074,-4.1016,-4.0799,-4.0435,-3.9753,-3.9282,-3.8786,-3.8124,-3.788,-3.7791,-3.7791,-3.7676,-3.7315,-3.6622,-3.6488,-3.6257,-3.5584,-3.5554,-3.5591,-3.5591,-3.5639,-3.5673,-3.5673,-3.5673,-3.5684,-3.5684,-3.5684,-3.5737,-3.5791,-3.5799,-3.576,-3.5675,-3.5732,-3.5302,-3.4373,-3.4239,-3.378,-3.3068,-3.2865,-3.2328,-3.1594,-3.1584,-3.1594,-3.1526,-3.0664,-3.0209,-3.0022,-2.9803,-2.9608,-2.945,-2.9409,-2.9326,-2.9222,-2.9222,-2.9134,-2.9062,-2.904,-2.904,-2.904,-2.9017,-2.9017,-2.8994,-2.8994,-2.8994,-2.8994,-2.8994,-2.8791,-2.8601,-2.8601,-2.8165,-2.7701,-2.7701,-2.7496,-2.7299,-2.7299,-2.7299,-2.7299,-2.7299,-2.7299,-2.7299,-2.7299,-2.7299,-2.7299,-2.7299,-2.7299,-2.7137,-2.6758,-2.6367,-2.5944,-2.554,-2.5208,-2.5005,-2.5005,-2.5005,-2.5005,-2.5005,-2.5005,-2.5005,-2.5005,-2.5005,-2.5201,-2.5605,-2.577,-2.5881,-2.597,-2.6264,-2.67,-2.7317,-2.7433,-2.7898,-4.0694,-4.0871,-4.1015,-4.1008,-4.0424,-3.9804,-3.9638,-3.8421,-3.7279,-3.7123,-3.7012,-3.6974,-3.6953,-3.6337,-3.5797,-3.568,-3.5661,-3.5636,-3.5509,-3.5515,-3.5528,-3.5591,-3.5604,-3.5616,-3.5616,-3.5608,-3.5612,-3.5612,-3.5673,-3.5737,-3.5791,-3.5799,-3.5488,-3.4798,-3.4789,-3.4362,-3.3476,-3.2712,-3.2296,-3.2156,-3.134,-3.0873,-3.0768,-3.0752,-3.0733,-3.0665,-3.0421,-3.026,-3.0144,-2.9834,-2.9662,-2.9645,-2.947,-2.9386,-2.9365,-2.9323,-2.9323,-2.9326,-2.92,-2.9156,-2.9156,-2.9108,-2.9062,-2.8994,-2.8994,-2.8994,-2.8994,-2.8994,-2.8791,-2.8601,-2.8601,-2.8165,-2.7701,-2.7701,-2.7496,-2.7299,-2.7299,-2.7299,-2.7299,-2.7299,-2.7299,-2.7299,-2.7299,-2.7299,-2.7299,-2.7299,-2.7299,-2.7137,-2.6758,-2.6367,-2.5944,-2.554,-2.5208,-2.5005,-2.5005,-2.5005,-2.5005,-2.5005,-2.5005,-2.5005,-2.5005,-2.5005,-2.5201,-2.5605,-2.5642,-2.5807,-2.6168,-2.6833,-2.7218,-2.7334,-2.798,-2.8605,-4.0692,-4.0809,-4.0799,-4.0425,-4.0019,-3.9444,-3.8478,-3.7637,-3.6903,-3.6347,-3.6203,-3.617,-3.6132,-3.5785,-3.5502,-3.5509,-3.5501,-3.5507,-3.5501,-3.5489,-3.5515,-3.5547,-3.5591,-3.5591,-3.5591,-3.5604,-3.5608,-3.5601,-3.5631,-3.5474,-3.5096,-3.5064,-3.4695,-3.3899,-3.3902,-3.3516,-3.2633,-3.2206,-3.1744,-3.1261,-3.0855,-3.0637,-3.0602,-3.0595,-3.0588,-3.0559,-3.049,-3.0394,-3.0248,-2.9973,-2.9801,-2.9681,-2.9472,-2.9388,-2.9344,-2.9323,-2.9283,-2.9283,-2.9222,-2.92,-2.92,-2.9156,-2.9152,-2.9108,-2.9085,-2.9062,-2.9062,-2.9017,-2.8791,-2.8601,-2.8601,-2.8165,-2.7701,-2.7701,-2.7496,-2.7299,-2.7299,-2.7299,-2.7299,-2.7299,-2.7299,-2.7299,-2.7299,-2.7299,-2.7299,-2.7299,-2.7105,-2.6908,-2.6725,-2.6175,-2.5689,-2.554,-2.5208,-2.5005,-2.5005,-2.5005,-2.5005,-2.5005,-2.5005,-2.5005,-2.5005,-2.5005,-2.5123,-2.5432,-2.5546,-2.602,-2.6816,-2.7151,-2.7732,-2.8472,-2.8804,-2.935,-4.0623,-4.0552,-4.0296,-3.9847,-3.9387,-3.8705,-3.7456,-3.6986,-3.6582,-3.5879,-3.5728,-3.5702,-3.5637,-3.5577,-3.5528,-3.5496,-3.5495,-3.5501,-3.5501,-3.5509,-3.5515,-3.5515,-3.5528,-3.556,-3.5566,-3.5579,-3.5572,-3.5577,-3.5388,-3.5035,-3.4497,-3.427,-3.3794,-3.2999,-3.3025,-3.265,-3.178,-3.1717,-3.1359,-3.0703,-3.0707,-3.0673,-3.061,-3.0613,-3.0595,-3.0607,-3.0598,-3.05,-3.0352,-3.0103,-2.9912,-2.9751,-2.9493,-2.937,-2.9323,-2.9323,-2.9283,-2.9262,-2.9262,-2.924,-2.924,-2.924,-2.92,-2.9178,-2.9112,-2.9089,-2.9067,-2.8929,-2.8676,-2.8456,-2.8378,-2.7989,-2.76,-2.76,-2.7452,-2.7299,-2.7299,-2.7299,-2.7299,-2.7299,-2.7299,-2.7299,-2.7299,-2.7299,-2.7299,-2.7299,-2.6957,-2.6657,-2.6539,-2.5944,-2.5465,-2.5368,-2.513,-2.5005,-2.5005,-2.5163,-2.5274,-2.5274,-2.5448,-2.5519,-2.5519,-2.5519,-2.564,-2.5838,-2.5995,-2.6428,-2.7243,-2.7569,-2.8334,-2.9417,-2.9599,-2.9996,-4.037,-3.9856,-3.9322,-3.9481,-3.8373,-3.721,-3.7123,-3.6504,-3.5929,-3.5821,-3.5788,-3.5766,-3.571,-3.563,-3.5558,-3.5515,-3.5502,-3.5502,-3.5502,-3.5502,-3.5515,-3.5515,-3.5496,-3.5509,-3.5507,-3.5509,-3.5515,-3.5515,-3.4793,-3.4378,-3.4391,-3.3688,-3.29,-3.2084,-3.2138,-3.1742,-3.0872,-3.0857,-3.081,-3.0697,-3.071,-3.07,-3.07,-3.0637,-3.0593,-3.0595,-3.0607,-3.0598,-3.055,-3.0157,-3.0003,-2.9946,-2.9551,-2.939,-2.9386,-2.9386,-2.9386,-2.9386,-2.9386,-2.9344,-2.9302,-2.9302,-2.924,-2.9178,-2.9112,-2.9089,-2.9021,-2.8718,-2.8386,-2.8075,-2.78,-2.7509,-2.7313,-2.7313,-2.7313,-2.7299,-2.7299,-2.7299,-2.7299,-2.7299,-2.7299,-2.7299,-2.7299,-2.7299,-2.7299,-2.7299,-2.6957,-2.6539,-2.6175,-2.5762,-2.5368,-2.5068,-2.5005,-2.5005,-2.5005,-2.5566,-2.5945,-2.5945,-2.6609,-2.6988,-2.6988,-2.6988,-2.7074,-2.7294,-2.7294,-2.7219,-2.7033,-2.8378,-2.9149,-2.9433,-3.0145,-3.0435,-3.9451,-3.9229,-3.8858,-3.7931,-3.7287,-3.6789,-3.6353,-3.6033,-3.5845,-3.5854,-3.586,-3.5841,-3.5786,-3.5702,-3.5639,-3.5584,-3.5528,-3.5502,-3.5515,-3.5501,-3.5501,-3.5501,-3.5501,-3.5501,-3.5507,-3.4982,-3.4681,-3.4674,-3.3928,-3.3261,-3.2754,-3.2502,-3.1984,-3.1134,-3.1177,-3.1079,-3.0797,-3.08,-3.0777,-3.0703,-3.0704,-3.0704,-3.0703,-3.068,-3.0665,-3.0657,-3.0623,-3.0597,-3.0588,-3.0302,-3.0112,-2.9988,-2.975,-2.9551,-2.9411,-2.9411,-2.9409,-2.9407,-2.9407,-2.9386,-2.9365,-2.9365,-2.9365,-2.9304,-2.924,-2.9218,-2.9152,-2.8839,-2.8464,-2.8102,-2.7829,-2.7526,-2.7299,-2.7299,-2.7299,-2.7299,-2.7299,-2.7299,-2.7299,-2.7299,-2.7299,-2.7299,-2.7299,-2.7233,-2.7201,-2.7282,-2.6708,-2.6208,-2.6033,-2.5885,-2.5735,-2.5497,-2.589,-2.6241,-2.6241,-2.6461,-2.6603,-2.6704,-2.6957,-2.7099,-2.7099,-2.7099,-2.7142,-2.7227,-2.764,-2.8019,-2.8338,-2.8846,-2.9461,-3.0129,-3.0394,-3.0526,-3.8874,-3.8595,-3.8169,-3.6954,-3.6479,-3.6237,-3.581,-3.5748,-3.5786,-3.5847,-3.5877,-3.5898,-3.5845,-3.5797,-3.5725,-3.5618,-3.5562,-3.5534,-3.5501,-3.5493,-3.5493,-3.5493,-3.5238,-3.5064,-3.5064,-3.4276,-3.3769,-3.3756,-3.3017,0.0,-3.1804,-3.1574,-3.1202,-3.0649,-3.0678,-3.0724,-3.08,-3.0801,-3.0788,-3.0734,-3.0709,-3.0704,-3.069,-3.0695,-3.0707,-3.07,-3.0621,-3.0595,-3.0588,-3.037,-3.0177,-2.9984,-2.9848,-2.9662,-2.9433,-2.9412,-2.9411,-2.9409,-2.9407,-2.9407,-2.9407,-2.9407,-2.9407,-2.9386,-2.9283,-2.9262,-2.9197,-2.8707,-2.8394,-2.8129,-2.773,-2.7483,-2.7299,-2.7299,-2.7299,-2.7299,-2.7299,-2.725,-2.7233,-2.7233,-2.7218,-2.7186,-2.7186,-2.7343,-2.7415,-2.7349,-2.6969,-2.6644,-2.6423,-2.635,-2.6246,-2.6135,-2.6585,-2.6895,-2.6954,-2.7158,-2.7328,-2.7431,-2.7652,-2.7778,-2.7778,-2.7778,-2.7778,-2.7778,-2.8221,-2.8694,-2.9241,-2.9241,-2.9629,-3.0401,-3.0401,-3.0443,0.0,0.0,0.0,-3.6604,-3.5931,-3.5432,-3.5566,-3.564,-3.5713,-3.5768,-3.586,-3.5903,-3.5896,-3.5908,-3.5841,-3.5646,-3.5621,-3.5581,-3.5528,-3.5468,-3.5468,-3.5468,-3.468,-3.416,-3.416,-3.3372,-3.2852,-3.2852,-3.2107,-3.1661,-3.1664,-3.0994,-3.0626,-3.0697,-3.0703,-3.0735,-3.0796,-3.08,-3.0792,-3.0804,-3.0734,-3.0704,-3.0697,-3.069,-3.0703,-3.07,-3.0637,-3.0593,-3.0586,-3.0381,-3.019,-2.9984,-2.9864,-2.9681,-2.9492,-2.9433,-2.9412,-2.9392,-2.9388,-2.9407,-2.9407,-2.9407,-2.9407,-2.9386,-2.9262,-2.924,-2.9134,-2.8342,-2.8192,-2.8156,-2.7465,-2.7299,-2.7299,-2.7299,-2.7316,-2.7333,-2.7333,-2.7252,-2.7154,-2.7137,-2.7089,-2.7058,-2.7076,-2.764,-2.7946,-2.7506,-2.7789,-2.7882,-2.7278,-2.7036,-2.6926,-2.6926,-2.6942,-2.7001,-2.7162,-2.7747,-2.8126,-2.8126,-2.8758,-2.9075,-2.9075,-2.9075,-2.9075,-2.9075,-2.9075,-2.9213,-2.947,-2.9486,-2.9738,-3.0189,-3.0189,-3.0316,-3.7859,0.0,0.0,0.0,0.0,0.0,-3.5406,-3.5469,-3.5508,-3.5629,-3.5742,-3.5827,-3.5822,-3.5909,-3.5937,-3.5822,-3.578,-3.5714,-3.5646,-3.5059,-3.4618,-3.4618,-3.3812,-3.3256,-3.3256,-3.2526,-3.2025,0.0,-3.1237,-3.0791,-3.0827,-3.0675,-3.0623,-3.0642,-3.0678,-3.0726,-3.0806,-3.0799,-3.0795,-3.081,-3.0784,-3.0759,-3.071,-3.0704,-3.071,-3.0703,-3.068,-3.0585,-3.0462,-3.0501,-3.0333,-3.0061,-3.0032,-2.9817,-2.9588,-2.955,-2.9511,-2.9472,-2.9431,-2.9411,-2.9411,-2.9388,-2.9407,-2.9386,-2.9365,-2.9222,-2.898,-2.8446,-2.821,-2.7982,-2.7483,-2.733,-2.7299,-2.7299,-2.7713,-2.8092,-2.8092,-2.844,-2.8579,-2.7996,-2.7893,-2.8031,-2.851,-2.852,-2.8437,-2.835,-2.7981,-2.7607,-2.7442,-2.7608,-2.7661,-2.7482,-2.8011,-2.8355,-2.84,-2.8573,-2.873,-2.8837,-2.898,-2.9075,-2.9075,-2.9075,-2.9075,-2.9075,-2.9075,-2.9137,-2.9213,-2.9396,-2.9649,-2.9897,-3.0103,-3.0316,-3.7275,-3.6929,-3.6697,-3.5126,0.0,0.0,-3.5247,-3.5321,-3.5386,-3.5496,-3.5592,-3.5698,-3.5742,-3.5816,-3.5884,-3.5895,-3.5564,-3.5269,-3.5171,-3.4695,-3.4221,-3.3882,-3.3045,-3.2473,-3.245,-3.1686,-3.1191,-3.1164,-3.0679,-3.0433,-3.0458,-3.051,-3.0559,-3.0557,-3.0658,-3.0716,-3.0752,-3.0797,-3.0797,-3.0804,-3.0806,-3.076,-3.0703,-3.0704,-3.0704,-3.069,-3.0707,-3.0593,-3.0452,-3.0491,-3.0328,-3.0026,-3.0026,-2.9872,-2.9626,-2.9607,-2.9588,-2.9531,-2.9433,-2.9412,-2.9392,-2.9388,-2.9407,-2.9386,-2.9365,-2.9138,-2.8827,-2.842,-2.8037,-2.7729,-2.7851,-2.7811,-2.7833,-2.8144,-2.8558,-2.8868,-2.8868,-2.9179,-2.9265,-2.8716,-2.8492,-2.8471,-2.8822,-2.8824,-2.8715,-2.8563,-2.8436,-2.8297,-2.8053,-2.8268,-2.8369,-2.8232,-2.8622,-2.8904,-2.8967,-2.8967,-2.9013,-2.9075,-2.9075,-2.9075,-2.9075,-2.9075,-2.9075,-2.9075,-2.9075,-2.9075,-2.9075,-2.9259,-2.947,-2.9677,-3.006,-3.0274,-3.6869,-3.6638,-3.6446,-3.4866,-3.4751,0.0,-3.5038,-3.5162,-3.5289,-3.5339,-3.5438,-3.5504,-3.5523,-3.5538,-3.5539,-3.5573,-3.4939,-3.4437,-3.4429,-3.4252,-3.3866,-3.3153,-3.2285,-3.1728,-3.1673,-3.0978,-3.049,-3.0422,-3.0428,-3.0428,-3.043,-3.0482,-3.0511,-3.051,-3.0639,-3.0716,-3.0696,-3.0776,-3.0817,-3.0813,-3.0804,-3.0778,-3.0714,-3.0703,-3.0704,-3.0697,-3.0688,-3.0613,-3.0472,-3.0409,-3.0196,-2.9905,-2.9905,-2.9825,-2.9701,-2.9626,-2.9607,-2.9588,-2.9453,-2.9412,-2.9412,-2.9388,-2.9407,-2.9386,-2.9283,-2.903,-2.867,-2.8345,-2.7924,-2.7728,-2.8449,-2.8589,-2.8696,-2.9351,-2.9575,-2.9644,-2.9644,-2.9696,-2.9678,-2.9467,-2.9056,-2.8707,-2.8677,-2.8893,-2.8906,-2.851,-2.9083,-2.938,-2.8873,-2.8905,-2.8904,-2.8904,-2.8904,-2.8967,-2.9075,-2.9075,-2.9075,-2.9075,-2.9075,-2.9075,-2.9075,-2.9075,-2.9075,-2.9075,-2.9075,-2.9075,-2.9075,-2.9075,-2.9259,-2.9515,-2.987,-3.006,-3.6869,-3.6453,-3.6144,-3.463,-3.4431,0.0,-3.4693,-3.4927,-3.5145,-3.516,-3.5307,-3.5239,-3.46,-3.4536,-3.4367,-3.3748,-3.3495,-3.3691,-3.451,-3.3392,-3.2419,-3.2243,-3.141,-3.0847,-3.0839,-3.0684,-3.0587,-3.0567,-3.061,-3.0649,-3.063,-3.0651,-3.0637,-3.0574,-3.0706,-3.0755,-3.0696,-3.0818,-3.0874,-3.0886,-3.083,-3.0794,-3.0786,-3.0725,-3.0697,-3.071,-3.0634,-3.0511,-3.0329,-3.0273,-3.0142,-2.9981,-2.9921,-2.9825,-2.9701,-2.9701,-2.9683,-2.9664,-2.9531,-2.9472,-2.9472,-2.9409,-2.9407,-2.9365,-2.9134,-2.8803,-2.8495,-2.8511,-2.8771,-2.911,-2.9315,-2.9316,-2.9317,-2.9472,-2.9989,-3.0455,-3.0455,-3.092,-3.1225,-3.0738,-3.0078,-2.9727,-3.0252,-2.9871,-2.9452,-2.938,-2.9239,-2.9167,-2.9045,-2.9029,-2.9075,-2.9075,-2.9075,-2.9075,-2.9075,-2.9075,-2.9075,-2.9075,-2.9075,-2.9075,-2.9075,-2.9075,-2.9075,-2.9075,-2.9075,-2.9075,-2.9075,-2.9075,-2.9259,-2.947,-2.9273,-2.9303,-3.704,-3.6476,-3.5974,-3.4842,-3.4445,0.0,0.0,-3.4548,-3.4694,-3.4694,-3.4794,-3.4636,-3.392,-3.3819,-3.3653,-3.3062,-3.2589,-3.2511,-3.3151,-3.2505,-3.1805,-3.1401,-3.0976,-3.0694,-3.069,-3.068,-3.0633,-3.06,-3.0626,-3.0659,-3.0659,-3.0685,-3.0672,-3.0603,-3.0726,-3.0758,-3.0704,-3.0836,-3.0896,-3.0891,-3.0862,-3.083,-3.0798,-3.0778,-3.072,-3.0639,-3.0614,-3.0482,-3.029,-3.0222,-3.0099,-2.9934,-2.9891,-2.979,-2.9701,-2.9701,-2.9701,-2.9701,-2.9569,-2.9792,-3.0088,-3.0064,-3.0176,-3.0314,-3.0178,-2.9743,-2.9283,-2.9176,-2.9314,-2.9592,-3.0024,-3.0127,-3.0196,-3.0558,-3.0955,-3.1248,-3.1248,-3.1541,-3.1709,-3.1372,-3.0701,-3.0152,-3.0185,-2.9705,-2.9335,-2.9335,-2.9213,-2.9075,-2.9075,-2.9075,-2.9075,-2.9075,-2.9075,-2.9075,-2.9075,-2.9075,-2.9075,-2.9075,-2.9075,-2.9075,-2.9075,-2.9075,-2.9075,-2.9075,-2.9075,-2.9075,-2.9075,-2.892,-2.8967,-2.9305,-2.9243,-2.9182,-3.7261,-3.6508,-3.586,-3.5038,-3.4475,-3.4099,0.0,0.0,0.0,-3.4265,-3.4288,-3.4117,-3.3424,-3.3373,-3.3241,-3.2742,-3.2108,-3.1731,-3.1921,-3.1978,-3.1688,-3.0769,-3.0732,-3.0784,-3.0781,-3.0757,-3.0716,-3.0667,-3.0653,-3.0661,-3.0661,-3.0714,-3.0697,-3.0614,-3.0754,-3.0781,-3.0696,-3.0835,-3.0898,-3.0896,-3.0891,-3.0862,-3.0824,-3.0794,-3.0706,-3.0591,-3.0571,-3.0462,-3.0285,-3.0228,-3.009,-2.9888,-2.9842,-2.9774,-2.972,-2.987,-2.9927,-2.9964,-3.0057,-3.0466,-3.0947,-3.0942,-3.1066,-3.1203,-3.1125,-3.0722,-3.0261,-2.9986,-2.992,-3.0093,-3.0731,-3.0903,-3.1058,-3.1662,-3.18,-3.18,-3.18,-3.18,-3.1709,-3.1504,-3.0965,-3.0377,-2.9793,-2.938,-2.9075,-2.9075,-2.9075,-2.9075,-2.9075,-2.9075,-2.9075,-2.9075,-2.9075,-2.9075,-2.9075,-2.9075,-2.9075,-2.9075,-2.9075,-2.9075,-2.9075,-2.9075,-2.9075,-2.9075,-2.9029,-2.8967,-2.8982,-2.8574,-2.8559,-2.8982,-2.9059,-2.8951,-3.7229,-3.6431,-3.5652,-3.4836,-3.4207,-3.3753,-3.3753,0.0,-3.4203,-3.4203,0.0,-3.405,-3.3212,0.0,0.0,-3.2317,-3.2239,-3.2343,-3.2409,-3.2432,-3.1962,-3.0668,-3.0639,-3.0706,-3.0708,-3.0814,-3.0878,-3.0878,-3.0873,-3.0866,-3.0862,-3.086,-3.0824,-3.0681,-3.0824,-3.0833,-3.0696,-3.0832,-3.0898,-3.0898,-3.0894,-3.0907,-3.0884,-3.0769,-3.0658,-3.0587,-3.0462,-3.0371,-3.0304,-3.024,-3.0079,-2.9888,-2.9842,-2.9774,-2.9795,-3.0509,-3.0772,-3.0865,-3.1575,-3.1832,-3.1824,-3.1781,-3.1396,-3.0885,-3.0457,-3.0539,-3.0802,-3.0612,-3.1041,-3.1558,-3.1645,-3.1679,-3.1696,-3.1783,-3.18,-3.18,-3.18,-3.1709,-3.1504,-3.114,-3.0885,-3.0625,-3.0123,-2.9499,-2.9075,-2.8967,-2.9013,-2.9075,-2.9075,-2.9075,-2.9075,-2.9075,-2.9075,-2.9075,-2.9075,-2.9075,-2.9075,-2.9075,-2.9075,-2.9075,-2.9075,-2.9075,-2.9075,-2.9075,-2.8764,-2.8574,-2.8574,-2.8158,-2.8158,-2.8559,-2.791,-2.7675,-3.7842,-3.6761,-3.5729,-3.5385,-3.4395,-3.352,-3.352,-3.3615,-3.3726,-3.3726,0.0,0.0,0.0,0.0,0.0,0.0,-3.1942,-3.2045,-3.2241,-3.226,-3.196,-3.1114,-3.1139,0.0,-3.0721,-3.0751,-3.0816,-3.0897,-3.0858,-3.0859,-3.0897,-3.0855,-3.0827,-3.0824,-3.0838,-3.0823,-3.0819,-3.0873,-3.0898,-3.0898,-3.0895,-3.0864,-3.0785,-3.073,-3.062,-3.0479,-3.0413,-3.0629,-3.1,-3.0963,-3.1157,-3.145,-3.1347,-3.0922,-3.049,-3.1297,-3.1598,-3.1654,-3.1991,-3.2358,-3.2713,-3.2716,-3.2529,-3.2191,-3.1647,-3.1548,-3.1585,-3.1532,-3.1668,-3.18,-3.18,-3.18,-3.18,-3.18,-3.18,-3.18,-3.1709,-3.1617,-3.1466,-3.0885,-3.0584,-3.0208,-2.9601,-2.9409,-2.9243,-2.8951,-2.8967,-2.9013,-2.9075,-2.9075,-2.9075,-2.9075,-2.9075,-2.9075,-2.9075,-2.9075,-2.9075,-2.9075,-2.9075,-2.9075,-2.9075,-2.9075,-2.9075,-2.9075,-2.8716,-2.8511,-2.8511,-2.7894,-2.771,-2.786,-2.7745,-2.761,-3.8225,-3.7033,-3.582,-3.582,-3.4606,-3.3393,-3.3393,-3.3393,-3.3393,-3.3393,-3.3393,0.0,0.0,0.0,-3.269,-3.2312,0.0,-3.2391,-3.2512,-3.2596,-3.239,-3.1764,-3.1782,-3.1706,0.0,-3.1287,-3.1248,-3.111,-3.1077,-3.1014,-3.0856,-3.08,-3.08,-3.0871,-3.0847,-3.0849,-3.0873,-3.0895,-3.0898,-3.0898,-3.0853,-3.0796,-3.07,-3.0661,-3.07,-3.0769,-3.0736,-3.1149,-3.1828,-3.1828,-3.2126,-3.2618,-3.2741,-3.2316,-3.1693,-3.2236,-3.2461,-3.2499,-3.2705,-3.3047,-3.3412,-3.3322,-3.3262,-3.3063,-3.2523,-3.2232,-3.2073,-3.2073,-3.1929,-3.18,-3.18,-3.18,-3.18,-3.18,-3.18,-3.1709,-3.147,-3.1487,-3.1334,-3.0567,-3.0293,-2.9951,-2.9212,-2.9198,-2.9213,-2.8936,-2.8873,-2.8967,-2.9075,-2.9075,-2.9075,-2.9075,-2.9075,-2.9075,-2.9075,-2.9075,-2.9075,-2.9075,-2.9075,-2.9075,-2.9075,-2.9075,-2.9075,-2.9075,-2.8622,-2.8367,-2.8304,-2.7625,-2.7248,-2.7248,-2.7494,-2.7458,0.0,0.0,0.0,-3.582,0.0,0.0,-3.3393,-3.3393,-3.3393,-3.3393,-3.3393,-3.3393,-3.3357,-3.3541,-3.3662,-3.3625,-3.3795,0.0,0.0,-3.381,-3.3557,-3.2486,-3.248,-3.2579,0.0,-3.2742,-3.2484,-3.1642,-3.1697,-3.1468,-3.0739,-3.0699,-3.0737,-3.0797,-3.0855,-3.0873,-3.079,-3.0875,-3.0898,-3.0898,-3.0762,-3.0696,-3.07,-3.0576,-3.0936,-3.1653,-3.1591,-3.1981,-3.2653,-3.2653,-3.2641,-3.2676,-3.3456,-3.3618,-3.341,-3.3385,-3.3362,-3.3475,-3.4245,-3.4284,-3.391,-3.3447,-3.3093,-3.2749,-3.2335,-3.2144,-3.2073,-3.1948,-3.1856,-3.18,-3.18,-3.18,-3.18,-3.18,-3.18,-3.1654,-3.1033,-3.1218,-3.1196,-3.0133,-3.0234,-3.0208,-2.9257,-2.8951,-2.8794,-2.8794,-2.8842,-2.8967,-2.9075,-2.9075,-2.9075,-2.9075,-2.9075,-2.9075,-2.9075,-2.9075,-2.9075,-2.9075,-2.9075,-2.9075,-2.9075,-2.9075,-2.9075,-2.9075,-2.8319,-2.7898,-2.7898,-2.7167,-2.6832,-2.6832,-2.6832,-2.6832,0.0,0.0,-3.5675,-3.515,0.0,0.0,0.0,0.0,0.0,-3.3393,-3.3393,-3.3393,-3.3393,-3.3452,-3.3509,-3.3509,-3.3444,-3.3437,0.0,-3.3597,-3.3532,-3.3167,-3.2705,-3.2452,-3.2575,-3.2683,-3.2673,-3.2482,-3.2532,-3.2499,-3.2299,-3.2285,-3.2337,-3.2453,-3.2475,-3.2477,-3.2456,-3.1908,-3.1604,-3.1543,-3.093,-3.0911,-3.1433,-3.137,-3.1794,-3.2494,-3.2428,-3.2852,-3.3559,-3.3563,-3.3856,-3.4339,-3.4469,-3.4415,-3.4237,-3.4293,-3.4271,-3.4205,-3.4292,-3.4197,-3.3921,-3.335,-3.3001,-3.2749,-3.2422,-3.2232,-3.2073,-3.2037,-3.1929,-3.18,-3.18,-3.18,-3.18,-3.18,-3.1746,-3.1487,-3.0948,-3.0868,-3.0584,-2.9585,-2.9467,-2.9393,-2.8748,-2.8668,-2.8684,-2.8794,-2.8858,-2.8967,-2.9075,-2.9075,-2.9075,-2.9075,-2.9075,-2.9075,-2.9075,-2.9075,-2.9075,-2.9075,-2.9075,-2.9075,-2.9075,-2.9075,-2.8982,-2.8716,-2.8158,-2.7765,-2.7575,-2.7026,-2.6779,-2.6779,-2.6779,-2.6779,-3.7229,-3.6399,0.0,-3.4806,-3.4009,0.0,-3.3393,0.0,-3.3393,0.0,0.0,0.0,-3.3208,-3.3286,-3.3334,-3.3135,-3.3104,-3.3147,0.0,-3.3255,-3.3296,-3.3343,-3.3087,-3.2949,-3.3053,-3.3276,-3.3347,-3.319,-3.3263,-3.3234,-3.3045,-3.3052,-3.3114,-3.3229,-3.3247,-3.3251,-3.3262,-3.2701,-3.2401,-3.235,-3.1739,-3.1732,-3.2222,-3.2201,-3.2605,-3.3319,-3.3278,-3.3714,-3.447,-3.4442,-3.4683,-3.5035,-3.4908,-3.4693,-3.4461,-3.4583,-3.4517,-3.4363,-3.4173,-3.3928,-3.3662,-3.3214,-3.2894,-3.2621,-3.2439,-3.2267,-3.2056,-3.176,-3.1721,-3.1731,-3.1472,-3.1593,-3.18,-3.18,-3.1579,-3.1184,-3.0649,-3.0444,-3.0048,-2.9044,-2.8997,-2.8951,-2.8493,-2.8493,-2.8636,-2.8794,-2.8858,-2.8967,-2.9075,-2.9075,-2.9075,-2.9075,-2.9075,-2.9075,-2.9075,-2.9075,-2.9075,-2.9075,-2.9075,-2.9075,-2.9075,-2.9075,-2.8982,-2.8716,-2.8158,-2.7765,-2.7575,-2.7026,-2.6779,-2.6779,-2.6779,-2.6727]},{"header":{"parameterUnit":"m.s-1","parameterCategory":1,"la1":30.6,"la2":29.2853,"lo1":-89.7004,"lo2":-87.6739,"dy":0.0162,"dx":0.0183,"nx":112,"ny":82,"refTime":"2023-08-12T06:00:00:Z","depth":0,"parameterNumber":3,"parameterNumberName":"V-component_of_WINDS"},"data":[0.0,0.0,0.0,0.0,0.0,0.0,0.0,0.0,0.0,0.0,0.0,0.0,0.0,0.0,0.0,0.0,0.0,0.0,0.0,0.0,0.0,0.0,0.0,0.0,0.0,0.0,0.0,0.0,0.0,0.0,0.0,0.0,0.0,0.0,0.0,0.0,0.0,0.0,0.0,0.0,0.0,0.0,0.0,0.0,0.0,0.0,0.0,0.0,0.0,0.0,0.0,0.0,0.0,0.0,0.0,0.0,0.0,0.0,0.0,0.0,0.0,0.0,0.0,0.0,0.0,0.0,0.0,0.0,0.0,0.0,0.0,0.0,0.0,0.0,0.0,0.0,0.0,0.0,0.0,0.0,0.0,0.0,0.0,0.0,0.0,0.0,0.0,0.0,0.0,0.0,-1.2659,-1.1568,-1.1021,-1.0692,-1.0692,-1.0692,-1.0692,-1.0692,0.0,0.0,0.0,0.0,0.0,0.0,0.0,0.0,0.0,0.0,0.0,0.0,0.0,0.0,0.0,0.0,0.0,0.0,0.0,0.0,0.0,0.0,0.0,0.0,0.0,0.0,0.0,0.0,0.0,0.0,0.0,0.0,0.0,0.0,0.0,0.0,0.0,0.0,0.0,0.0,0.0,0.0,0.0,0.0,0.0,0.0,0.0,0.0,0.0,0.0,0.0,0.0,0.0,0.0,0.0,0.0,0.0,0.0,0.0,0.0,0.0,0.0,0.0,0.0,0.0,0.0,0.0,0.0,0.0,0.0,0.0,0.0,0.0,0.0,0.0,0.0,0.0,0.0,0.0,0.0,0.0,0.0,0.0,0.0,0.0,0.0,0.0,0.0,0.0,0.0,0.0,0.0,0.0,0.0,0.0,0.0,0.0,0.0,0.0,0.0,0.0,0.0,0.0,0.0,-1.1568,-1.0911,-1.0802,-1.0692,-1.0692,-1.0692,-1.0692,-1.0692,0.0,0.0,0.0,0.0,0.0,0.0,0.0,0.0,0.0,0.0,0.0,0.0,0.0,0.0,0.0,0.0,0.0,0.0,0.0,0.0,0.0,0.0,0.0,0.0,0.0,0.0,0.0,0.0,0.0,0.0,0.0,0.0,0.0,0.0,0.0,0.0,0.0,0.0,0.0,0.0,0.0,0.0,0.0,0.0,0.0,0.0,0.0,0.0,0.0,0.0,0.0,0.0,0.0,0.0,0.0,0.0,0.0,0.0,0.0,0.0,0.0,0.0,0.0,0.0,0.0,0.0,0.0,0.0,0.0,0.0,0.0,0.0,0.0,0.0,0.0,0.0,0.0,0.0,0.0,0.0,0.0,0.0,0.0,0.0,0.0,0.0,0.0,0.0,0.0,0.0,0.0,0.0,0.0,0.0,0.0,0.0,0.0,0.0,0.0,0.0,0.0,0.0,0.0,-1.1459,-1.1021,-1.0692,-1.0692,-1.0692,-1.0692,-1.0692,-1.0692,-1.0692,-1.1232,0.0,0.0,0.0,0.0,0.0,0.0,0.0,0.0,0.0,0.0,0.0,0.0,0.0,0.0,0.0,0.0,0.0,0.0,0.0,0.0,0.0,0.0,0.0,0.0,0.0,0.0,0.0,0.0,0.0,0.0,0.0,0.0,0.0,0.0,0.0,0.0,0.0,0.0,0.0,0.0,0.0,0.0,0.0,0.0,0.0,0.0,0.0,0.0,0.0,0.0,0.0,0.0,0.0,0.0,0.0,0.0,0.0,0.0,0.0,0.0,0.0,0.0,0.0,0.0,0.0,0.0,0.0,0.0,0.0,0.0,0.0,0.0,0.0,0.0,0.0,0.0,0.0,0.0,0.0,0.0,0.0,0.0,0.0,0.0,0.0,0.0,0.0,0.0,0.0,0.0,0.0,0.0,0.0,0.0,0.0,0.0,0.0,0.0,0.0,0.0,0.0,0.0,-1.1126,-1.0692,-1.0692,-1.0692,-1.0692,-1.0692,-1.0692,-1.0692,-1.0692,-1.1769,0.0,0.0,0.0,0.0,0.0,0.0,0.0,0.0,0.0,0.0,0.0,0.0,0.0,0.0,0.0,0.0,0.0,0.0,0.0,0.0,0.0,0.0,0.0,0.0,0.0,0.0,0.0,0.0,0.0,0.0,0.0,0.0,0.0,0.0,0.0,0.0,0.0,0.0,0.0,0.0,0.0,0.0,0.0,0.0,0.0,0.0,0.0,0.0,0.0,0.0,0.0,0.0,0.0,0.0,0.0,0.0,0.0,0.0,0.0,0.0,0.0,0.0,0.0,0.0,0.0,0.0,0.0,0.0,0.0,0.0,0.0,0.0,0.0,0.0,0.0,0.0,0.0,0.0,0.0,0.0,0.0,0.0,0.0,0.0,0.0,0.0,0.0,0.0,0.0,0.0,0.0,0.0,0.0,0.0,0.0,0.0,0.0,0.0,0.0,0.0,0.0,0.0,-1.1337,-1.0692,-1.0692,-1.0692,-1.0692,-1.0692,-1.0692,-1.0692,-1.0692,-1.1769,0.0,0.0,0.0,0.0,0.0,0.0,0.0,0.0,0.0,0.0,0.0,0.0,0.0,0.0,0.0,0.0,0.0,0.0,0.0,0.0,0.0,0.0,0.0,0.0,0.0,0.0,0.0,0.0,0.0,0.0,0.0,0.0,0.0,0.0,0.0,0.0,0.0,0.0,0.0,0.0,0.0,0.0,0.0,0.0,0.0,0.0,0.0,0.0,0.0,0.0,0.0,0.0,0.0,0.0,0.0,0.0,0.0,0.0,0.0,0.0,0.0,0.0,0.0,0.0,0.0,0.0,0.0,0.0,0.0,0.0,0.0,0.0,0.0,0.0,0.0,0.0,0.0,0.0,0.0,0.0,0.0,0.0,0.0,0.0,0.0,0.0,0.0,0.0,0.0,0.0,0.0,0.0,0.0,0.0,0.0,0.0,0.0,0.0,0.0,0.0,0.0,0.0,-1.1987,-1.1446,-1.0802,-1.0692,-1.0692,-1.0692,-1.0692,-1.1017,-1.1769,0.0,0.0,0.0,0.0,0.0,0.0,0.0,0.0,0.0,0.0,0.0,0.0,0.0,0.0,0.0,0.0,0.0,0.0,0.0,0.0,0.0,0.0,0.0,0.0,0.0,0.0,0.0,0.0,0.0,0.0,0.0,0.0,0.0,0.0,0.0,0.0,0.0,0.0,0.0,0.0,0.0,0.0,0.0,0.0,0.0,0.0,0.0,0.0,0.0,0.0,0.0,0.0,0.0,0.0,0.0,0.0,0.0,0.0,0.0,0.0,0.0,0.0,0.0,0.0,0.0,0.0,0.0,0.0,0.0,0.0,0.0,0.0,0.0,0.0,0.0,0.0,0.0,0.0,0.0,0.0,0.0,0.0,0.0,0.0,0.0,0.0,0.0,0.0,0.0,0.0,0.0,0.0,0.0,0.0,0.0,0.0,0.0,0.0,0.0,0.0,0.0,0.0,-1.3171,-1.263,-1.1987,-1.0798,-1.1013,-1.1232,-1.1232,-1.1664,-1.2309,-1.3063,0.0,0.0,0.0,0.0,0.0,0.0,0.0,0.0,0.0,0.0,0.0,0.0,0.0,0.0,0.0,0.0,0.0,0.0,0.0,0.0,0.0,0.0,0.0,0.0,0.0,0.0,0.0,0.0,0.0,0.0,0.0,0.0,0.0,0.0,0.0,0.0,0.0,0.0,0.0,0.0,0.0,0.0,0.0,0.0,0.0,0.0,0.0,0.0,0.0,0.0,0.0,0.0,0.0,0.0,0.0,0.0,0.0,0.0,0.0,0.0,0.0,0.0,0.0,0.0,0.0,0.0,0.0,0.0,0.0,0.0,0.0,0.0,0.0,0.0,0.0,0.0,0.0,0.0,0.0,0.0,0.0,0.0,0.0,0.0,0.0,0.0,0.0,0.0,0.0,0.0,0.0,0.0,0.0,0.0,0.0,0.0,0.0,0.0,0.0,0.0,0.0,0.0,-1.4347,-1.3166,-1.1987,-1.0907,-1.1769,-1.2413,-1.2413,-1.3712,-1.4578,0.0,0.0,0.0,0.0,0.0,0.0,0.0,0.0,0.0,0.0,0.0,0.0,0.0,0.0,0.0,0.0,0.0,0.0,0.0,0.0,0.0,0.0,0.0,0.0,0.0,0.0,0.0,0.0,0.0,0.0,0.0,0.0,0.0,0.0,0.0,0.0,0.0,0.0,0.0,0.0,0.0,0.0,0.0,0.0,0.0,0.0,0.0,0.0,0.0,0.0,0.0,0.0,0.0,0.0,0.0,0.0,0.0,0.0,0.0,0.0,0.0,0.0,0.0,0.0,0.0,0.0,0.0,0.0,0.0,0.0,0.0,0.0,0.0,0.0,0.0,0.0,0.0,0.0,0.0,0.0,0.0,0.0,0.0,0.0,0.0,0.0,0.0,0.0,0.0,0.0,0.0,0.0,0.0,0.0,0.0,0.0,0.0,0.0,0.0,0.0,0.0,0.0,0.0,-1.5535,-1.5102,-1.446,-1.3166,-1.3383,-1.3706,-1.3927,-1.4358,-1.5001,-1.6062,0.0,0.0,0.0,0.0,0.0,0.0,0.0,0.0,0.0,0.0,0.0,0.0,0.0,0.0,0.0,0.0,0.0,0.0,0.0,0.0,0.0,0.0,0.0,0.0,0.0,0.0,0.0,0.0,0.0,0.0,0.0,0.0,0.0,0.0,0.0,0.0,0.0,0.0,0.0,0.0,0.0,0.0,0.0,0.0,0.0,0.0,0.0,0.0,0.0,0.0,0.0,0.0,0.0,0.0,0.0,0.0,0.0,0.0,0.0,0.0,0.0,0.0,0.0,0.0,0.0,0.0,0.0,0.0,0.0,0.0,0.0,0.0,0.0,0.0,0.0,0.0,0.0,0.0,0.0,0.0,0.0,0.0,0.0,0.0,0.0,0.0,0.0,0.0,0.0,0.0,0.0,0.0,0.0,0.0,0.0,0.0,0.0,0.0,0.0,0.0,0.0,0.0,-1.6074,-1.5968,-1.5535,-1.4239,-1.4674,-1.5108,-1.5221,-1.5968,-1.6717,-1.7569,0.0,0.0,0.0,0.0,0.0,0.0,0.0,0.0,0.0,0.0,0.0,0.0,0.0,0.0,0.0,0.0,0.0,0.0,0.0,0.0,0.0,0.0,0.0,0.0,0.0,0.0,0.0,0.0,0.0,0.0,0.0,0.0,0.0,0.0,0.0,0.0,0.0,0.0,0.0,0.0,0.0,0.0,0.0,0.0,0.0,0.0,0.0,0.0,0.0,0.0,0.0,0.0,0.0,0.0,0.0,0.0,0.0,0.0,0.0,0.0,0.0,0.0,0.0,0.0,0.0,0.0,0.0,0.0,0.0,0.0,0.0,0.0,0.0,0.0,0.0,0.0,0.0,0.0,0.0,0.0,0.0,0.0,0.0,0.0,0.0,0.0,0.0,0.0,0.0,0.0,0.0,0.0,0.0,0.0,0.0,0.0,0.0,0.0,0.0,0.0,0.0,0.0,-1.6287,-1.6293,-1.5968,-1.4669,-1.5749,-1.6505,-1.6511,-1.801,-1.8869,-1.8974,0.0,0.0,0.0,0.0,0.0,0.0,0.0,0.0,0.0,0.0,0.0,0.0,0.0,0.0,0.0,0.0,0.0,0.0,0.0,0.0,0.0,0.0,0.0,0.0,0.0,0.0,0.0,0.0,0.0,0.0,0.0,0.0,0.0,0.0,0.0,0.0,0.0,0.0,0.0,0.0,0.0,0.0,0.0,0.0,0.0,0.0,0.0,0.0,0.0,0.0,0.0,0.0,0.0,0.0,0.0,0.0,0.0,0.0,0.0,0.0,-1.6714,-1.8483,0.0,0.0,0.0,0.0,0.0,0.0,0.0,0.0,0.0,0.0,0.0,0.0,0.0,0.0,0.0,0.0,0.0,0.0,0.0,0.0,0.0,0.0,0.0,0.0,0.0,0.0,0.0,0.0,0.0,0.0,0.0,0.0,0.0,0.0,0.0,0.0,0.0,0.0,0.0,0.0,-1.7589,-1.7793,-1.7779,-1.7562,-1.7779,-1.8108,-1.8331,-1.866,-1.8974,-1.9175,-1.9279,0.0,0.0,0.0,0.0,0.0,0.0,0.0,0.0,0.0,0.0,0.0,0.0,0.0,0.0,0.0,0.0,0.0,0.0,0.0,0.0,0.0,0.0,0.0,0.0,0.0,0.0,0.0,0.0,0.0,0.0,0.0,0.0,0.0,0.0,0.0,0.0,0.0,0.0,0.0,0.0,0.0,0.0,0.0,0.0,0.0,0.0,0.0,0.0,0.0,0.0,0.0,0.0,0.0,0.0,0.0,0.0,0.0,0.0,0.0,-1.5783,-1.7116,0.0,0.0,0.0,0.0,0.0,0.0,0.0,0.0,0.0,0.0,0.0,0.0,0.0,0.0,0.0,0.0,0.0,0.0,0.0,0.0,0.0,0.0,0.0,0.0,0.0,0.0,0.0,0.0,0.0,0.0,0.0,0.0,0.0,0.0,0.0,0.0,0.0,0.0,0.0,0.0,-1.822,-1.8429,-1.8534,-1.8422,-1.8534,-1.8757,-1.8869,-1.8974,-1.9175,-1.9272,-1.9279,0.0,0.0,0.0,0.0,0.0,0.0,0.0,0.0,0.0,0.0,0.0,0.0,0.0,0.0,0.0,0.0,0.0,0.0,0.0,0.0,0.0,0.0,0.0,0.0,0.0,0.0,0.0,0.0,0.0,0.0,0.0,0.0,0.0,0.0,0.0,0.0,0.0,0.0,0.0,0.0,0.0,0.0,0.0,0.0,0.0,0.0,0.0,0.0,0.0,0.0,0.0,0.0,0.0,-1.1587,-1.1697,-1.1245,-1.1245,-1.2613,-1.4993,-1.5077,-1.5963,-1.7347,-1.85,0.0,0.0,0.0,0.0,0.0,0.0,0.0,0.0,0.0,0.0,0.0,0.0,0.0,0.0,0.0,0.0,0.0,0.0,0.0,0.0,0.0,0.0,0.0,0.0,-1.9279,-1.9279,-1.9279,0.0,0.0,0.0,0.0,0.0,0.0,0.0,0.0,0.0,0.0,0.0,-1.8534,-1.8757,-1.8862,-1.8639,-1.8757,-1.8974,-1.8974,-1.9175,-1.9279,-1.9279,-1.9279,-1.9279,0.0,0.0,0.0,0.0,0.0,0.0,0.0,0.0,0.0,0.0,0.0,0.0,0.0,0.0,0.0,0.0,0.0,0.0,0.0,0.0,0.0,0.0,0.0,0.0,0.0,0.0,0.0,0.0,0.0,0.0,0.0,0.0,-1.6223,-1.5589,0.0,0.0,0.0,0.0,0.0,0.0,0.0,0.0,0.0,0.0,0.0,0.0,0.0,-1.0839,-1.0839,-1.0859,-1.0871,-1.0761,-1.0871,-1.1092,-1.1533,-1.1533,-1.2288,-1.3573,-1.4337,0.0,-1.9405,-1.9244,0.0,0.0,0.0,0.0,0.0,0.0,0.0,0.0,0.0,0.0,0.0,0.0,0.0,0.0,0.0,0.0,0.0,0.0,0.0,0.0,0.0,0.0,-1.9279,-1.9279,-1.9279,-1.9279,0.0,-1.9279,-1.9279,-1.9279,-1.9279,0.0,0.0,0.0,0.0,0.0,0.0,0.0,-1.8869,-1.9071,-1.9279,-1.9168,-1.9168,-1.9279,-1.9279,-1.9279,-1.9279,-1.9279,-1.9279,-1.9279,-1.9279,-1.9279,0.0,0.0,0.0,0.0,0.0,0.0,0.0,0.0,0.0,0.0,0.0,0.0,0.0,0.0,0.0,0.0,0.0,0.0,0.0,0.0,0.0,0.0,0.0,0.0,0.0,0.0,0.0,0.0,0.0,-1.673,-1.569,-1.5041,-1.4821,-1.4719,0.0,0.0,0.0,0.0,0.0,0.0,0.0,0.0,0.0,-1.1131,-1.0802,-1.0692,-1.0692,-1.1021,-1.1021,-1.0692,-1.1021,-1.135,-1.1568,-1.1568,-1.254,-1.4051,-1.4471,-1.6242,-1.8717,-1.8478,-1.8829,-1.9477,0.0,0.0,0.0,0.0,-1.9279,-1.9279,-1.9279,-1.9279,-1.9279,-1.9279,0.0,0.0,0.0,0.0,0.0,0.0,0.0,0.0,0.0,0.0,-1.9279,-1.9279,-1.9279,-1.9279,-1.9279,-1.9279,-1.9279,0.0,-1.9279,-1.9279,-1.9279,0.0,0.0,0.0,0.0,-1.8974,-1.9078,-1.9279,-1.9279,-1.9279,-1.9279,-1.9279,-1.9279,-1.9279,-1.9279,-1.9279,-1.9279,-1.9279,-1.9279,-1.9279,-1.9279,0.0,0.0,0.0,0.0,0.0,0.0,0.0,0.0,0.0,0.0,0.0,0.0,0.0,0.0,0.0,0.0,0.0,0.0,0.0,0.0,0.0,0.0,0.0,0.0,0.0,0.0,0.0,0.0,-1.5624,-1.5186,-1.4809,-1.4495,-1.4338,0.0,0.0,0.0,0.0,0.0,0.0,-1.1455,-1.135,-1.1131,-1.0692,-1.0692,-1.0692,-1.0692,-1.1131,-1.1131,-1.0692,-1.135,-1.1568,-1.1568,-1.1896,-1.2866,-1.4261,-1.4691,-1.5861,-1.7674,-1.7681,-1.8318,-1.9279,-1.9078,-1.9071,-1.9279,-1.9279,-1.9279,-1.9279,-1.9279,-1.9279,-1.9279,-1.9279,-1.9279,-1.9257,-1.9177,0.0,0.0,0.0,0.0,-1.9045,-1.9133,-1.9147,-1.9169,-1.9257,-1.9279,-1.9279,-1.9279,-1.9279,-1.9279,0.0,-1.9279,-1.9279,-1.9279,0.0,0.0,-1.9279,-1.9175,-1.9071,-1.9272,-1.9279,-1.9279,-1.9279,-1.9199,-1.9147,-1.9147,-1.9074,-1.903,-1.903,-1.903,-1.9067,-1.9147,-1.9074,-1.9067,-1.9147,0.0,0.0,0.0,0.0,0.0,0.0,0.0,0.0,0.0,0.0,0.0,0.0,0.0,0.0,0.0,0.0,0.0,0.0,0.0,0.0,0.0,0.0,0.0,0.0,0.0,0.0,0.0,0.0,0.0,-1.5007,-1.4399,0.0,0.0,0.0,0.0,-1.2226,-1.2134,-1.1791,-1.0794,-1.0802,-1.0692,-1.0692,-1.0692,-1.0692,-1.0692,-1.0692,-1.0692,-1.0692,-1.135,-1.1568,-1.1678,-1.2772,-1.3315,-1.3423,-1.4809,-1.5986,-1.6836,-1.7674,-1.852,-1.9279,-1.9279,-1.9279,-1.9279,-1.9279,-1.9279,-1.9279,-1.9279,-1.9279,-1.9279,-1.9279,-1.9279,-1.922,-1.8906,-1.8811,0.0,0.0,-1.835,-1.8423,-1.873,-1.8811,-1.8891,-1.9199,-1.9279,-1.9279,-1.9279,-1.9279,-1.9279,0.0,-1.9279,-1.9279,-1.9279,0.0,-1.9279,-1.9279,-1.9279,-1.9279,-1.9279,-1.9279,-1.9279,-1.9279,-1.9001,-1.8811,-1.8811,-1.8525,-1.835,-1.835,-1.835,-1.8489,-1.8803,-1.8518,-1.8496,-1.8811,-1.8496,0.0,0.0,0.0,0.0,0.0,0.0,0.0,0.0,0.0,0.0,0.0,0.0,0.0,0.0,0.0,0.0,0.0,0.0,0.0,0.0,0.0,0.0,0.0,0.0,0.0,0.0,0.0,0.0,-1.4342,-1.3887,0.0,-1.3593,-1.3529,-1.3096,-1.2026,-1.1926,-1.1435,-1.0453,-1.0351,-1.0351,-1.0351,-1.0351,-1.0408,-1.0526,-1.0841,-1.1116,-1.124,-1.1896,-1.2332,-1.2659,-1.3098,-1.3851,-1.4708,-1.5238,-1.62,-1.7281,-1.7592,-1.8337,-1.9279,-1.9279,-1.9279,-1.9279,-1.9279,-1.914,-1.8964,-1.8964,-1.8825,-1.865,-1.865,-1.865,-1.8628,-1.8511,-1.8474,-1.8452,-1.8335,-1.8299,-1.8328,-1.8445,-1.8474,-1.8503,-1.8621,-1.865,-1.865,-1.865,-1.865,-1.865,-1.865,-1.8986,-1.9279,-1.9279,-1.9103,-1.8964,-1.8964,-1.8782,-1.865,-1.865,-1.865,-1.865,-1.865,-1.8547,-1.8474,-1.8474,-1.8364,-1.8299,-1.8299,-1.8299,-1.8357,-1.8474,-1.8364,-1.8357,-1.8474,-1.8152,-1.7991,0.0,0.0,0.0,0.0,0.0,0.0,0.0,0.0,0.0,0.0,0.0,0.0,0.0,0.0,0.0,0.0,0.0,0.0,0.0,0.0,0.0,0.0,0.0,0.0,0.0,-1.5119,-1.419,-1.4078,-1.3639,-1.3366,-1.3346,-1.3281,-1.2861,-1.1811,-1.1816,-1.1433,-1.0264,-1.0369,-1.0369,-1.0164,-1.0201,-1.0387,-1.0732,-1.113,-1.1549,-1.1878,-1.2436,-1.2881,-1.3315,-1.3537,-1.4283,-1.5559,-1.5773,-1.6615,-1.7674,-1.7886,-1.8387,-1.9103,-1.8994,-1.895,-1.895,-1.895,-1.8811,-1.8628,-1.8628,-1.8581,-1.8496,-1.8496,-1.8693,-1.8777,-1.8664,-1.8529,-1.8409,-1.8297,-1.8074,-1.7999,-1.8108,-1.8138,-1.8167,-1.8277,-1.8299,-1.8299,-1.8299,-1.8299,-1.8299,-1.8299,-1.865,-1.895,-1.895,-1.8767,-1.8628,-1.8628,-1.8438,-1.8299,-1.8299,-1.8299,-1.8299,-1.8299,-1.8203,-1.8138,-1.8138,-1.8035,-1.7969,-1.7969,-1.7969,-1.8021,-1.813,-1.8028,-1.8028,-1.8138,-1.7816,-1.7655,-1.7655,0.0,0.0,0.0,0.0,0.0,0.0,0.0,0.0,0.0,0.0,0.0,0.0,0.0,0.0,0.0,0.0,0.0,0.0,0.0,0.0,0.0,0.0,0.0,-1.5833,-1.4754,-1.429,-1.4332,-1.3534,-1.304,-1.3071,-1.2894,-1.2464,-1.1592,-1.1908,-1.1586,-1.024,-1.0659,-1.0659,-1.0256,-1.0363,-1.0648,-1.1332,-1.1467,-1.1896,-1.2398,-1.3083,-1.3315,-1.3315,-1.3975,-1.4719,-1.5559,-1.6411,-1.7246,-1.8053,-1.8592,-1.8767,-1.873,-1.8423,-1.8299,-1.8299,-1.8299,-1.8291,-1.8284,-1.8277,-1.8565,-1.8958,-1.8958,-1.9357,-1.9692,-1.9352,-1.8956,-1.8506,-1.8163,-1.7692,-1.7384,-1.7691,-1.7779,-1.7867,-1.8182,-1.8262,-1.8277,-1.8277,-1.8277,-1.8277,-1.8277,-1.8277,-1.8277,-1.8299,-1.8291,-1.8284,-1.8284,-1.8277,0.0,-1.8277,-1.8277,-1.8277,-1.8277,-1.7991,-1.7801,-1.7801,-1.7508,-1.7333,-1.7326,-1.7333,-1.7472,-1.7786,-1.7494,-1.7479,-1.7794,-1.7494,-1.7326,-1.7326,0.0,0.0,0.0,0.0,0.0,0.0,0.0,0.0,0.0,0.0,0.0,0.0,0.0,0.0,0.0,0.0,0.0,0.0,0.0,0.0,0.0,-1.859,-1.7223,-1.6261,-1.4771,-1.3768,-1.3733,-1.323,-1.2883,-1.285,-1.2802,-1.2396,-1.1377,-1.1776,-1.1505,-1.0367,-1.0471,-1.0536,-1.0578,-1.0184,-1.0416,-1.1327,-1.1824,-1.238,-1.3009,-1.3655,-1.3975,-1.3975,-1.4083,-1.5041,-1.6411,-1.6624,-1.7455,-1.8578,-1.8469,-1.8299,-1.8101,-1.8247,-1.8299,-1.8299,-1.8299,-1.8152,-1.7918,-1.7677,-1.7881,-1.8361,-1.8361,-1.8644,-1.9098,-1.9002,-1.8877,-1.8714,-1.836,-1.7895,-1.75,-1.7266,-1.7219,-1.7143,-1.723,-1.7428,-1.7596,-1.7596,-1.7596,-1.7596,-1.7596,-1.7596,-1.7743,-1.8218,-1.8108,-1.7947,-1.7947,-1.7743,0.0,-1.7596,-1.7596,-1.7596,-1.7596,-1.7516,-1.7465,-1.7465,-1.7377,-1.7426,-1.7893,-1.752,-1.7557,-1.8029,-1.7564,-1.7369,-1.7465,-1.7377,-1.7326,0.0,0.0,0.0,0.0,0.0,0.0,0.0,0.0,0.0,0.0,0.0,0.0,0.0,0.0,0.0,0.0,0.0,0.0,0.0,0.0,0.0,0.0,-1.7643,-1.6476,-1.577,-1.4588,-1.3732,-1.3539,-1.3249,-1.3055,-1.2861,-1.2764,-1.2467,-1.1585,-1.2078,-1.1878,-1.0801,-1.0909,-1.1067,-1.0997,-1.0812,-1.113,-1.199,-1.2397,-1.2956,-1.3676,-1.3986,-1.4196,-1.4196,-1.4196,-1.4934,-1.6199,-1.6518,-1.737,-1.843,-1.8389,-1.8189,0.0,0.0,0.0,0.0,0.0,-1.7772,-1.7582,-1.7586,-1.7986,-1.8458,-1.8635,-1.9004,-1.9471,-1.9471,-1.9182,-1.8838,-1.8449,-1.7835,-1.7242,-1.6868,-1.6795,-1.6857,-1.6857,-1.7099,-1.7326,-1.7326,-1.7326,-1.7326,-1.7326,-1.7326,0.0,-1.783,-1.7735,-1.7611,-1.7611,-1.745,-1.7326,-1.7326,-1.7326,-1.7326,-1.7326,-1.7512,-1.7613,-1.7613,-1.78,0.0,0.0,0.0,-1.7707,-1.78,-1.7426,0.0,0.0,0.0,-1.7326,-1.7326,0.0,0.0,0.0,-1.9968,-2.0782,0.0,0.0,0.0,0.0,0.0,0.0,0.0,0.0,0.0,0.0,0.0,0.0,0.0,0.0,0.0,0.0,-1.6755,-1.5602,-1.4791,-1.4447,-1.4076,-1.3539,-1.3443,-1.3249,-1.2861,-1.2764,-1.257,-1.2078,-1.2473,-1.237,-1.1292,-1.1697,0.0,0.0,0.0,-1.2238,-1.3025,-1.3162,-1.3609,-1.4196,-1.4196,-1.4196,-1.4196,-1.4196,-1.4724,-1.5559,-1.6199,-1.7134,-1.7998,-1.8146,-1.8163,-1.8138,-1.7552,-1.7326,-1.7326,-1.7326,-1.7333,-1.7426,-1.7893,0.0,0.0,-1.9463,-1.992,-2.0283,-2.024,-1.9723,-1.9001,-1.8378,-1.7697,-1.6938,-1.6492,-1.6647,-1.6813,-1.685,-1.7099,-1.7326,-1.7326,-1.7326,-1.7326,-1.7326,-1.7326,-1.7326,-1.7326,-1.7326,-1.7326,-1.7326,-1.7326,-1.7326,-1.7326,-1.7326,-1.7326,-1.7326,0.0,0.0,-1.7986,-1.8458,-1.855,-1.8087,-1.8087,-1.7893,-1.7326,-1.7326,-1.7326,-1.7326,-1.7326,-1.7326,-1.7326,-1.7326,-1.8326,-2.0232,-2.0232,-2.0782,0.0,0.0,0.0,0.0,0.0,0.0,0.0,0.0,0.0,0.0,0.0,0.0,0.0,0.0,0.0,-1.785,-1.5988,-1.4578,-1.4608,-1.4266,-1.3874,-1.3516,-1.3346,-1.305,-1.2861,-1.2764,-1.257,-1.2078,-1.2473,-1.2565,-1.1883,-1.198,-1.2066,-1.2054,-1.1923,-1.2197,-1.3011,-1.3219,-1.3609,-1.4196,0.0,0.0,-1.4196,-1.4196,-1.4724,-1.5559,-1.5666,-1.6485,-1.7592,-1.7351,-1.7309,-1.7501,-1.7377,-1.7326,-1.7326,-1.7326,-1.7613,-1.7986,-1.8087,-1.8727,-1.9463,-1.9554,-1.992,-2.024,-1.9941,-1.9707,0.0,-1.8291,-1.7645,-1.7094,-1.6682,-1.6491,-1.6528,-1.6791,-1.7099,-1.7326,-1.7326,-1.7326,-1.7326,-1.7326,-1.7326,-1.7326,-1.7326,-1.7326,-1.7326,-1.7326,-1.7326,-1.7326,-1.7326,-1.7326,-1.7326,-1.7326,-1.78,-1.79,-1.752,-1.7893,-1.8179,-1.8087,-1.8087,-1.7893,-1.7326,-1.7326,-1.7326,-1.7326,-1.7326,-1.7326,-1.7326,-1.7326,-1.8326,-2.0232,-2.0232,-2.1141,0.0,0.0,0.0,0.0,0.0,0.0,0.0,0.0,0.0,0.0,0.0,-2.1312,-2.0685,0.0,-1.7912,-1.7485,-1.5581,-1.4199,-1.4403,-1.4074,-1.3863,-1.3692,-1.3443,-1.3249,-1.2953,-1.2861,-1.2667,-1.2467,-1.2667,-1.2667,-1.237,-1.237,-1.2525,-1.2652,-1.252,-1.27,-1.3208,-1.3403,-1.3727,-1.3964,-1.4191,-1.4196,-1.4191,-1.4062,-1.4215,-1.4624,-1.5013,-1.55,-1.6164,-1.6401,-1.6413,-1.6379,-1.7044,-1.7426,-1.7707,-1.7707,-1.7986,-1.8458,-1.8727,-1.9188,-1.9637,-1.9828,-2.0102,-2.0223,-1.9855,-1.9607,-1.9246,-1.8145,-1.7621,-1.7282,-1.7038,-1.7,-1.7155,-1.7499,-1.7835,-1.8079,-1.8079,-1.8079,-1.8079,-1.8079,-1.8079,-1.8079,-1.8079,-1.8079,-1.7893,-1.7419,-1.7326,-1.7326,-1.7326,-1.7326,-1.7326,-1.7326,-1.78,-1.8087,-1.8079,-1.8535,-1.8727,-1.8458,-1.8272,-1.7893,-1.7326,-1.7326,-1.7326,-1.7326,-1.7326,-1.7326,-1.7326,-1.7326,-1.8056,-1.9513,-1.996,-2.123,0.0,0.0,0.0,0.0,0.0,0.0,0.0,-2.4445,-2.3316,-2.1492,-2.1262,-2.1075,-2.0165,-1.8815,-1.7696,-1.7187,-1.534,-1.4086,-1.4193,-1.3969,-1.3805,-1.3915,-1.3628,-1.3369,-1.308,-1.2931,-1.2861,-1.2764,-1.2764,-1.2764,-1.2764,-1.2764,-1.2867,-1.3072,-1.3116,-1.3204,-1.3442,-1.3666,-1.3789,-1.3709,-1.3912,-1.4013,-1.4008,-1.3836,-1.3755,-1.3739,-1.4407,-1.469,-1.4773,-1.5509,-1.5744,-1.5629,-1.6574,-1.7426,-1.8079,-1.8172,-1.855,-1.9004,-1.9455,-1.9637,-1.9828,-2.0201,-2.024,-2.0121,-1.9744,-1.9358,-1.8888,-1.8079,-1.7656,-1.7491,-1.7423,-1.7612,-1.7962,-1.8319,-1.8621,-1.8827,-1.8827,-1.8827,-1.8827,-1.8827,-1.8827,-1.8827,-1.8827,-1.8827,-1.8542,-1.7699,-1.7606,-1.7606,-1.7606,-1.7606,-1.7606,-1.7606,-1.8079,-1.8542,-1.892,-1.9279,-1.9279,-1.8827,-1.8458,-1.7986,-1.7512,-1.7426,-1.7426,-1.7326,-1.7326,-1.7326,-1.7326,-1.7326,-1.7785,-1.8788,-1.9786,-2.1141,-3.0918,-2.9715,-2.893,-2.8866,-2.8317,-2.7455,0.0,-2.4838,-2.361,-2.2025,-2.1322,-2.08,-2.0352,-1.8674,-1.731,-1.7057,-1.518,-1.3795,-1.408,-1.3768,-1.3622,-1.3853,-1.3624,-1.3291,-1.2836,-1.2929,-1.2958,-1.2764,-1.2764,-1.2764,-1.2764,-1.2764,-1.2764,-1.2861,-1.2964,-1.31,-1.3155,-1.3401,-1.3534,-1.355,-1.3534,-1.3576,-1.3576,-1.3572,-1.3518,-1.3605,-1.4348,-1.4622,-1.4702,-1.5512,-1.5763,-1.5737,-1.592,-1.685,-1.8149,-1.8542,-1.9096,-1.9554,-1.9546,-1.9828,-2.0201,-2.0292,-2.0069,-1.9735,-1.9358,-1.8965,-1.8488,-1.7713,-1.7648,-1.7853,-1.7792,-1.7969,-1.8327,-1.8684,-1.8796,-1.8827,-1.8827,-1.8827,-1.8827,-1.8827,-1.8827,-1.8827,-1.8827,-1.8827,-1.8735,-1.8643,-1.8643,-1.8643,-1.8643,-1.8643,-1.8643,-1.8643,-1.9096,-1.9455,-1.9554,-1.9096,-1.8827,-1.8827,-1.8735,-1.855,-1.7994,-1.7986,-1.78,-1.7333,-1.7326,-1.7326,-1.7326,-1.7326,-1.7785,-1.8788,-1.9786,-2.0782,-3.0909,-2.9917,-2.9233,-2.8675,-2.8208,-2.7458,-2.5591,-2.4767,-2.3975,-2.2317,-2.1655,-2.1041,-1.9932,-1.8559,-1.7253,-1.637,-1.5054,-1.4024,-1.3893,-1.3649,-1.3441,-1.348,-1.3373,-1.3203,-1.3034,-1.3098,-1.305,-1.2861,-1.2764,-1.2764,-1.2764,-1.2764,-1.2764,-1.2764,-1.2856,-1.2959,-1.2969,-1.3138,-1.3301,-1.3265,-1.3453,-1.3491,-1.3491,-1.3297,-1.319,-1.3154,-1.3537,-1.378,-1.3768,-1.4449,-1.4694,-1.479,-1.5527,-1.6177,-1.6835,-1.7326,-1.8535,-1.992,-1.9355,-1.9637,-2.0257,-2.0043,-1.9872,-1.9624,-1.9016,-1.8716,-1.8511,-1.7899,-1.8059,-1.833,-1.8546,-1.8833,-1.9198,-1.9563,-1.9646,-1.9646,-1.9646,-1.9646,-1.9646,-1.9646,-1.9646,-1.9646,-1.9646,-1.9646,-1.9646,-1.9646,-1.9196,-1.8827,-1.8827,-1.8827,-1.8827,-1.8827,-1.9279,-1.9637,-1.9637,-1.9646,-1.9554,-1.9279,-1.9004,-1.855,-1.8087,-1.78,-1.752,-1.7326,-1.7326,-1.7326,-1.7326,-1.7326,-1.7785,-1.8788,-1.9786,-2.0782,-3.0969,-3.0251,-2.9808,-2.9044,-2.8454,-2.7644,-2.5869,-2.5052,-2.4276,-2.2841,-2.2025,-2.1175,-1.9835,-1.839,-1.7098,-1.5966,-1.4977,-1.423,-1.3906,-1.3568,-1.3313,-1.3228,-1.3132,-1.3117,-1.3095,-1.3087,-1.3075,-1.2856,-1.2861,-1.2764,-1.2764,-1.2764,-1.2764,-1.2764,-1.2764,-1.2764,-1.2764,-1.2926,-1.3012,-1.3012,-1.3195,-1.3281,-1.3276,-1.3093,-1.3019,-1.2861,-1.3147,-1.3244,-1.3346,-1.3829,-1.4022,-1.4118,-1.5051,-1.5514,-1.5798,-1.5913,-1.7591,-1.982,-1.9072,-1.9381,-2.0095,-1.9829,-1.9598,-1.9316,-1.8751,-1.8519,-1.8382,-1.8108,-1.8305,-1.8682,-1.9076,-1.9461,-1.9838,-2.0198,-2.0292,-2.0266,-2.0163,-2.0138,-2.0112,-2.0001,-1.9984,-1.9984,-1.9984,-1.9984,-1.9984,-1.9984,-1.9347,-1.8937,-1.9034,-1.8961,-1.8904,-1.8904,-1.9257,-1.9527,-1.9527,-1.9796,-1.9894,-1.9527,-1.8986,-1.8541,-1.8078,-1.7522,-1.7154,-1.7062,-1.7062,-1.7062,-1.7062,-1.7338,-1.7781,-1.8502,-1.9754,-2.0642,-3.1058,-3.0702,-3.0507,-3.0312,-2.9233,-2.8143,-2.7445,-2.5938,-2.4504,-2.374,-2.2306,-2.1001,-2.0275,-1.8461,-1.6788,-1.6124,-1.5137,-1.4321,-1.4082,-1.3659,-1.3398,-1.3392,-1.3219,-1.3141,-1.3126,-1.3101,-1.307,-1.313,-1.2953,-1.2764,-1.2764,-1.2764,-1.2764,-1.2764,-1.2764,-1.2764,-1.2764,-1.277,-1.2775,-1.2775,-1.278,-1.2786,-1.2786,-1.2775,-1.2867,-1.3147,-1.3346,-1.3642,-1.3931,-1.4208,-1.4298,-1.4298,-1.4298,-1.4956,-1.5704,-1.4765,-1.6264,-1.888,-1.8796,-1.9225,-1.9761,-1.9655,-1.923,-1.8614,-1.8588,-1.834,-1.8057,-1.7959,-1.8305,-1.8682,-1.9076,-1.9461,-1.9838,-2.0198,-2.0292,-2.0189,-1.9838,-1.9761,-1.965,-1.9281,-1.9204,-1.9204,-1.9204,-1.9204,-1.9204,-1.9204,-1.9204,-1.9341,-1.9621,-1.9349,-1.9204,-1.9204,-1.9204,-1.9204,-1.9204,-1.9204,-1.9204,-1.9204,-1.8765,-1.8324,-1.7803,-1.7365,-1.6926,-1.6396,-1.6396,-1.6396,-1.6396,-1.7262,-1.77,-1.7787,-1.9589,-2.0446,-3.1379,-3.1087,-3.0598,-2.9518,-2.8698,-2.7855,-2.6526,-2.5639,-2.4874,-2.4189,-2.2905,-2.1593,-2.0401,-1.8691,-1.7041,-1.5801,-1.5061,-1.4489,-1.4166,-1.3743,-1.3398,-1.3398,-1.2525,-1.2317,-1.3284,-1.3188,-1.3064,-1.313,-1.2953,-1.2764,-1.2764,-1.2764,-1.2764,-1.2764,-1.2764,-1.2764,-1.2764,-1.2764,-1.2764,-1.2764,-1.2764,-1.2764,-1.2764,-1.2764,-1.2953,-1.3147,-1.3346,-1.3636,-1.3931,-1.4208,-1.4298,-1.4298,-1.4298,-1.4484,-1.4765,-1.4388,-1.5214,-1.6522,-1.6522,-1.7091,-1.7842,-1.8008,-1.7948,-1.7787,-1.8133,-1.8134,-1.804,-1.804,-1.8305,-1.8614,-1.8751,-1.9076,-1.9401,-1.9521,-1.9547,-1.9521,-1.9393,-1.9367,-1.9324,-1.9196,-1.917,-1.917,-1.917,-1.917,-1.9085,-1.8819,-1.9007,-1.9222,-1.935,-1.9256,-1.917,-1.917,-1.917,-1.917,-1.917,-1.917,-1.917,-1.917,-1.8732,-1.8197,-1.7858,-1.7342,-1.6815,-1.6367,-1.6367,-1.6712,-1.7231,-1.7581,-1.8354,-1.9469,-2.0156,-2.0755,-3.1709,-3.1437,-3.094,-2.9628,-2.8876,-2.8103,-2.6607,-2.5873,-2.5324,-2.4683,-2.3327,-2.1855,-2.0604,-1.8762,-1.7041,-1.5726,-1.5068,-1.4566,-1.4243,-1.3476,-1.2875,-1.2875,-1.158,-1.1154,-1.2171,-1.1976,-1.2204,-1.3125,-1.2958,-1.2764,-1.2764,-1.2764,-1.2764,-1.2764,-1.2764,-1.2764,-1.2764,-1.2764,-1.2764,-1.2764,-1.2861,-1.2953,-1.2953,-1.3055,-1.3152,-1.3443,-1.3539,-1.3829,-1.4022,-1.4208,-1.4298,-1.4298,-1.4298,-1.4238,-1.4159,-1.4159,-1.4359,-1.4773,-1.5239,-1.5854,-1.6676,-1.7126,-1.7235,-1.7175,-1.7775,-1.804,-1.804,-1.804,-1.8211,-1.8425,-1.8554,-1.8776,-1.8999,-1.9144,-1.917,-1.9136,-1.899,-1.8965,-1.8922,-1.8793,-1.8768,-1.8768,-1.8768,-1.8768,-1.8682,-1.8425,-1.8605,-1.8768,-1.8768,-1.8768,-1.8768,-1.8768,-1.8768,-1.8768,-1.8768,-1.8768,-1.8768,-1.8768,-1.8338,-1.7907,-1.7661,-1.7071,-1.6556,-1.629,-1.6117,-1.629,-1.6877,-1.7467,-1.8389,-1.9567,-2.0145,-2.0818,-3.1992,-3.1739,-3.148,-3.051,-2.969,-2.8812,-2.7736,-2.6688,-2.5828,-2.5382,-2.3565,-2.1824,-2.0891,-1.8735,-1.6796,-1.5816,-1.5151,-1.4566,-1.4307,-1.2948,-1.1929,-1.1929,-1.0534,-0.9739,-1.014,-0.9625,-1.0449,-1.3108,-1.2953,-1.2764,-1.2764,-1.2764,-1.2764,-1.2764,-1.2764,-1.2764,-1.2764,-1.2764,-1.2764,-1.2764,-1.2958,-1.305,-1.305,-1.3346,-1.3642,-1.3835,-1.3931,-1.4022,-1.4298,-1.4298,-1.4292,-1.428,-1.428,-1.4117,-1.3888,-1.3888,-1.3719,-1.3616,-1.4865,-1.5479,-1.6019,-1.6954,-1.6976,-1.6862,-1.7708,-1.804,-1.804,-1.804,-1.804,-1.8117,-1.8468,-1.8554,-1.8656,-1.9025,-1.9119,-1.9007,-1.8639,-1.8554,-1.8459,-1.8108,-1.804,-1.804,-1.804,-1.804,-1.804,-1.804,-1.8031,-1.804,-1.804,-1.804,-1.804,-1.804,-1.804,-1.8031,-1.804,-1.804,-1.804,-1.804,-1.7635,-1.7392,-1.7392,-1.6582,-1.617,-1.617,-1.5673,-1.5506,-1.559,-1.7196,-1.8078,-1.8158,-1.9844,-2.0566,-3.2176,-3.2231,-3.2033,-3.0629,-3.0165,-2.9572,-2.792,-2.7149,-2.6552,-2.5288,-2.394,-2.251,-2.1257,-1.9335,-1.744,-1.5959,-1.4866,-1.3776,-1.2778,-1.1666,-1.0982,-1.0982,-0.9579,-0.9025,-1.0048,-0.9068,-0.9029,-1.0751,-1.1375,-1.157,-1.157,-1.2365,-1.2764,-1.2764,-1.2764,-1.2764,-1.2764,-1.2764,-1.2764,-1.2764,-1.2861,-1.2856,-1.2856,-1.3055,-1.3346,-1.3636,-1.3835,-1.4022,-1.4298,-1.4298,-1.4183,-1.4008,-1.4008,-1.3845,-1.3616,-1.3616,-1.3447,-1.323,-1.3558,-1.4184,-1.504,-1.6414,-1.677,-1.6862,-1.7708,-1.804,-1.804,-1.804,-1.804,-1.8057,-1.8151,-1.8177,-1.8203,-1.8305,-1.8331,-1.8297,-1.8194,-1.8177,-1.8143,-1.8057,-1.804,-1.804,-1.804,-1.804,-1.804,-1.804,-1.8193,-1.8282,-1.8282,-1.8282,-1.8282,-1.8282,-1.8282,-1.8201,-1.804,-1.804,-1.804,-1.804,-1.7878,-1.7716,-1.7392,-1.7147,-1.6902,-1.6574,-1.617,-1.6566,-1.7853,-1.7925,-1.8638,-1.9923,-2.0401,-2.0566,-3.2453,-3.2398,-3.213,-3.0555,-3.0179,-2.9785,-2.8182,-2.7484,-2.6731,-2.5557,-2.4085,-2.2531,-2.1354,-1.9423,-1.7513,-1.5838,-1.4518,-1.3262,-1.1912,-1.0712,-0.9932,-0.9666,-0.8356,-0.7663,-0.828,-0.7539,-0.7298,-0.8101,-0.9653,-1.0681,-1.117,-1.1765,-1.2262,-1.2764,-1.2764,-1.2764,-1.2764,-1.2764,-1.2764,-1.2764,-1.2861,-1.2958,-1.3152,-1.3346,-1.3573,-1.366,0.0,-1.388,-1.3954,-1.3954,-1.387,-1.3731,-1.3731,-1.3574,-1.3344,-1.3344,-1.3175,-1.294,-1.3367,-1.3786,-1.4341,-1.5257,-1.5786,-1.6296,-1.7204,-1.7708,-1.804,-1.804,-1.804,-1.804,-1.804,-1.804,-1.804,-1.804,-1.804,-1.804,-1.804,-1.804,-1.804,-1.804,-1.804,-1.804,-1.8201,-1.8201,-1.8201,-1.8282,-1.8442,-1.8523,-1.8683,-1.8603,-1.8531,-1.8531,-1.8442,-1.8362,-1.8201,-1.804,-1.804,-1.804,-1.804,-1.7878,-1.7635,-1.7473,-1.7383,-1.7375,-1.6976,-1.7367,-1.8559,-1.8638,-1.9125,-2.001,-2.0411,-2.0566,-3.2711,-3.2398,-3.1977,-3.0435,-3.0133,-2.9827,-2.8532,-2.7604,-2.6718,-2.5742,-2.4013,-2.2328,-2.1048,-1.9097,-1.709,-1.5313,-1.3917,-1.2589,-1.1214,-0.9749,-0.8794,-0.8352,-0.7129,-0.6215,-0.589,-0.5722,-0.5741,-0.5863,-0.7825,-0.9575,-1.0676,-1.0877,-1.1473,-1.2565,-1.2759,-1.2764,-1.2764,-1.2732,-1.2716,-1.2716,-1.2871,-1.3052,-1.3341,-1.3634,-1.3797,-1.3758,-1.3851,-1.3725,-1.3513,-1.3513,-1.3495,-1.3465,-1.3465,-1.3302,-1.3067,-1.3067,-1.2916,-1.279,-1.3542,-1.3795,-1.3873,-1.4126,-1.472,-1.5553,-1.6288,-1.7041,-1.7708,-1.7789,-1.7789,-1.787,-1.7951,-1.804,-1.804,-1.804,-1.804,-1.804,-1.804,-1.804,-1.8031,-1.8031,-1.804,-1.8201,-1.8362,-1.8442,-1.8523,-1.87,-1.8692,-1.8772,-1.9002,-1.8851,-1.8772,-1.8772,-1.8603,-1.8442,-1.8442,-1.8282,-1.8121,-1.804,-1.8193,-1.8193,-1.8121,-1.787,-1.7925,-1.8346,-1.8017,-1.7983,-1.8312,-1.9094,-1.9446,-1.9376,-2.0216,-2.0566,-3.2398,-3.2216,-3.1766,-3.0732,-3.0644,-3.036,-2.8505,-2.7802,-2.6976,-2.4815,-2.3734,-2.2296,-1.9759,-1.8355,-1.6724,-1.3904,-1.2383,-1.1112,-0.9506,-0.8281,-0.7404,-0.7143,-0.634,-0.5768,-0.5621,-0.5373,-0.5373,-0.5569,-0.5989,-0.692,-0.851,-0.9406,-1.0391,-1.1468,-1.2365,-1.2764,-1.2764,-1.2571,-1.2474,-1.2474,-1.2362,-1.2265,-1.2357,-1.2819,-1.298,-1.3032,-1.3397,0.0,-1.3513,-1.3513,-1.3387,-1.3194,-1.3194,-1.3019,-1.2777,-1.2777,-1.2747,-1.2705,-1.2869,-1.2954,-1.3209,-1.4636,-1.5311,-1.5394,-1.556,-1.5726,-1.5966,-1.6706,-1.6944,-1.7115,-1.7789,-1.804,-1.804,-1.804,-1.804,-1.804,-1.804,-1.8193,-1.8353,-1.8353,-1.8442,-1.8612,-1.8612,-1.862,-1.8692,-1.87,-1.8851,-1.8922,-1.9002,-1.9002,-1.8922,-1.8922,-1.8922,-1.8843,-1.8692,-1.8922,-1.8825,-1.8362,-1.9134,-1.9362,-1.8834,-1.9204,-1.9275,-1.8883,-1.8392,-1.8317,-1.862,-1.8718,-1.9105,-1.9802,-2.0313,-2.0566,-3.2048,-3.1823,-3.1407,-3.0086,-2.9889,-2.9538,-2.7959,-2.7111,-2.6214,-2.4589,-2.304,-2.1369,-1.9289,-1.7365,-1.5313,-1.2802,-1.1278,-0.9831,-0.8025,-0.7231,-0.6609,-0.6083,-0.5725,-0.5389,-0.5087,-0.505,-0.503,-0.5128,-0.5184,-0.5927,-0.7407,-0.8501,-0.9606,-1.0849,-1.1333,-1.1816,-1.2393,-1.228,-1.2221,-1.2221,-1.2102,-1.214,-1.2232,-1.2506,-1.2711,-1.2771,-1.3046,-1.3141,-1.3091,-1.3091,-1.3019,-1.2904,-1.2904,-1.2825,-1.2705,-1.2705,-1.2705,-1.2705,-1.2705,-1.2705,-1.2875,-1.3711,-1.43,-1.472,-1.5228,-1.5718,-1.6296,-1.7115,-1.7367,-1.7448,-1.787,-1.804,-1.804,-1.804,-1.804,-1.804,-1.8201,-1.8282,-1.8442,-1.8523,-1.8612,-1.87,-1.8851,-1.8682,-1.8547,-1.8695,-1.8602,-1.8543,-1.8543,-1.8543,-1.8625,-1.8825,-1.8774,-1.8536,-1.8106,-1.8148,-1.8139,-1.8053,-1.8506,-1.8736,-1.8764,-1.8974,-1.9099,-1.9134,-1.8826,-1.8816,-1.9151,-1.9113,-1.9283,-1.959,-1.9805,-1.9902,-3.1694,-3.1437,-3.094,-2.9442,-2.9002,-2.8684,-2.7378,-2.6283,-2.5228,-2.4218,-2.2189,-2.0052,-1.8559,-1.6121,-1.373,-1.1696,-1.0168,-0.8623,-0.6966,-0.6432,-0.5988,-0.5282,-0.5102,-0.4835,-0.4389,-0.4367,-0.4416,-0.453,-0.478,-0.5429,-0.6684,-0.7631,-0.8687,-0.9806,-1.0181,-1.0745,-1.1676,-1.1903,-1.1973,-1.1973,-1.1925,-1.1988,-1.2169,-1.2259,-1.2428,-1.2598,-1.2686,-1.2736,-1.2705,-1.2705,-1.2705,-1.2705,-1.2705,-1.2705,-1.2705,-1.2705,-1.2705,-1.2705,-1.2705,-1.2705,-1.2705,-1.2705,-1.3288,-1.4126,-1.4887,-1.5718,-1.6624,-1.7456,-1.7708,-1.7781,-1.7951,-1.804,-1.8031,-1.8031,-1.8121,-1.8095,-1.8257,-1.832,-1.8382,-1.8373,-1.8443,-1.8601,-1.8749,-1.8488,-1.8366,-1.851,-1.832,-1.8128,-1.8128,-1.8128,-1.8285,-1.8657,-1.8464,-1.8163,-1.7623,-1.7512,-1.7503,-1.7561,-1.7784,-1.8091,-1.8406,-1.8387,-1.8635,-1.9049,-1.8996,-1.9029,-1.929,-1.938,-1.9357,-1.915,-1.9248,-1.9287,-3.1422,-3.1087,-3.0447,-2.9484,-2.9156,-2.8607,-2.7124,-2.5718,-2.4339,-2.3051,-2.1074,-1.8955,-1.67,-1.4712,-1.262,-1.0173,-0.879,-0.757,-0.6605,-0.6074,-0.5453,-0.4476,-0.4208,-0.376,-0.3135,-0.3051,-0.3261,-0.3788,-0.4166,-0.4765,-0.5526,-0.6555,-0.7205,-0.7299,-0.9254,-1.0371,-1.0463,-1.1287,-1.1731,-1.1731,-1.1515,-1.1413,-1.1413,-1.1679,-1.1841,-1.2077,-1.2318,-1.2558,0.0,-1.2705,-1.2705,-1.2705,-1.2705,-1.2705,-1.2705,-1.2705,-1.2705,-1.2705,-1.2705,-1.2705,-1.2705,-1.2705,-1.3288,-1.4041,-1.4126,-1.4803,-1.5718,-1.6535,-1.678,-1.7025,-1.7789,-1.804,-1.804,-1.8282,-1.8362,-1.8266,-1.7926,-1.816,-1.8208,-1.7453,-1.761,-1.792,-1.7911,-1.7884,-1.794,-1.8099,-1.8146,-1.8128,-1.8128,-1.8128,-1.8211,-1.8576,-1.8321,-1.8006,-1.7812,-1.8119,-1.8044,-1.7278,-1.8156,-1.8461,-1.797,-1.8461,-1.8783,-1.8762,-1.8752,-1.8636,-1.8388,-1.8775,-1.8832,-1.863,-1.9102,-1.9287,-3.0464,-3.0176,-2.9685,-2.839,-2.7999,-2.7378,-2.5438,-2.4517,-2.3565,-2.1552,-1.9672,-1.7671,-1.5531,-1.3121,-1.0666,-0.8241,-0.7027,-0.5885,-0.4465,-0.4202,-0.3939,-0.3312,-0.3133,-0.2955,-0.2688,-0.2688,-0.2967,-0.3629,-0.3539,-0.3823,-0.468,-0.5134,-0.5767,-0.6581,-0.7392,-0.847,-0.9821,-1.0274,-1.0772,-1.1488,-1.131,-1.1262,-1.1262,-1.144,-1.1613,-1.1871,-1.1952,-1.2203,0.0,-1.2534,-1.2619,-1.2705,-1.2705,-1.2705,-1.2705,-1.2705,-1.2705,-1.2705,-1.2705,-1.2705,-1.2705,-1.2705,-1.3288,-1.3957,-1.3957,-1.4636,-1.556,-1.6453,-1.7115,-1.7488,-1.7669,-1.7535,-1.7364,-1.7441,-1.7519,-1.7553,-1.7635,-1.7752,-1.7859,-1.7773,-1.7886,-1.797,-1.797,-1.7761,-1.767,-1.7743,-1.7541,-1.7394,-1.7394,-1.7394,-1.7401,-1.7577,-1.8076,-1.8423,-1.8426,-1.8356,-1.8276,-1.8187,-1.8346,-1.8566,-1.8636,-1.8705,-1.8765,-1.8723,-1.8586,-1.8438,-1.8269,-1.8311,-1.8331,-1.8262,-1.8437,-1.8525,-2.9331,-2.9093,-2.8776,-2.7471,-2.6854,-2.6064,-2.4218,-2.3198,-2.205,-2.0081,-1.808,-1.6039,-1.4212,-1.1417,-0.8669,-0.6562,-0.5164,-0.3927,-0.2591,-0.2415,-0.2148,-0.1611,-0.1431,-0.1431,-0.1522,-0.1971,-0.251,-0.3139,-0.3047,-0.3226,-0.3851,-0.4032,-0.4652,-0.5708,-0.598,-0.6858,-0.8528,-0.9231,-1.0024,-1.0819,-1.1176,-1.1262,-1.1262,-1.1262,-1.144,-1.1699,-1.1699,-1.1952,0.0,-1.2363,-1.2534,-1.2705,-1.2705,-1.2705,-1.2705,-1.2705,-1.2705,-1.2705,-1.2705,-1.2705,-1.2705,-1.2705,-1.3124,-1.3691,-1.3774,-1.4566,-1.5538,-1.6083,-1.6718,-1.7313,-1.7294,-1.7115,-1.6918,-1.707,-1.707,-1.711,-1.737,-1.7492,-1.753,-1.7569,-1.7615,-1.7688,-1.7688,-1.7442,-1.7241,-1.7321,-1.7082,-1.6908,-1.6908,-1.6908,-1.6968,-1.7176,-1.7906,-1.837,-1.8182,-1.7833,-1.7833,-1.823,-1.7978,-1.8056,-1.8596,-1.8462,-1.8472,-1.8674,-1.8405,-1.8337,-1.8337,-1.8212,-1.8076,-1.8008,-1.8008,-1.8008,-2.7986,-2.8051,-2.7855,-2.7056,-2.6039,-2.4862,-2.3979,-2.1728,-1.9584,-1.8699,-1.6285,-1.3833,-1.2298,-0.9334,-0.6634,-0.5235,-0.3383,-0.1875,-0.125,-0.0714,-0.0179,0.0537,0.1072,0.1161,0.0715,-0.0806,-0.1885,-0.2154,-0.2601,-0.2867,-0.2956,-0.3317,-0.3855,-0.43,-0.545,-0.6068,-0.6157,-0.844,-0.9579,-0.9666,-1.0733,-1.1262,-1.1262,-1.1262,-1.144,-1.1699,-1.1699,-1.1952,0.0,-1.2363,-1.2534,-1.2705,-1.2705,-1.2705,-1.2705,-1.2705,-1.2705,-1.2705,-1.2705,-1.2705,-1.2705,-1.2705,-1.2705,-1.282,-1.3365,-1.4392,-1.5328,-1.5065,-1.5364,-1.5888,-1.6683,-1.6927,-1.6994,-1.7371,-1.7521,-1.7415,-1.7243,-1.737,-1.7242,-1.6501,-1.6482,-1.6621,-1.6621,-1.6612,-1.6691,-1.6908,-1.6908,-1.6908,-1.6908,-1.6908,-1.7166,-1.7901,-1.7969,-1.7628,-1.6673,-1.6403,-1.6482,-1.6908,-1.6751,-1.6881,-1.7373,-1.7451,-1.7725,-1.8269,-1.8269,-1.8347,-1.8482,-1.8482,-1.8347,-1.8008,-1.8008,-1.8008,-2.6451,-2.6152,-2.5714,-2.4637,-2.3643,-2.2572,-2.1384,-1.9927,-1.8276,-1.6121,-1.4302,-1.2354,-0.9597,-0.733,-0.5051,-0.2491,-0.1427,-0.0447,0.0983,0.0447,0.0358,0.1787,0.1519,0.0894,0.0,-0.0807,-0.1525,-0.1885,-0.1884,-0.2152,-0.2867,-0.3047,-0.3317,-0.3765,-0.4476,-0.5272,-0.6068,-0.6946,-0.8173,-0.9579,-1.0115,-1.0646,-1.1262,-1.1262,-1.1354,-1.144,-1.144,-1.1693,-1.2123,-1.2123,-1.2369,-1.2705,-1.2705,-1.2705,-1.2705,-1.2705,-1.2705,-1.2705,-1.2705,-1.2584,-1.2439,-1.2606,-1.2883,-1.3111,-1.2866,-1.3837,-1.5227,-1.6231,-1.648,-1.6573,-1.6811,-1.6692,-1.6499,-1.6643,-1.6643,-1.6679,-1.6758,-1.6872,-1.6827,-1.6718,-1.676,-1.683,-1.683,-1.683,-1.683,-1.6908,-1.6908,-1.6908,-1.6908,-1.6908,-1.6968,-1.7235,-1.7706,-1.8297,-1.8957,-1.8509,-1.8442,-1.9034,-1.8576,-1.8385,-1.8529,-1.8529,-1.8664,-1.8865,-1.8741,-1.8674,-1.8674,-1.8549,-1.8414,-1.8202,-1.8202,-1.8144,-2.4066,-2.3849,-2.3307,-2.2477,-2.1394,-2.012,-1.8873,-1.7612,-1.5993,-1.318,-1.1651,-0.9838,-0.6886,-0.4784,-0.2843,-0.0535,0.0447,0.1253,0.206,0.2059,0.2326,0.3575,0.2593,0.1522,0.0806,-0.0269,-0.1076,-0.1525,-0.1436,-0.1704,-0.2331,-0.251,-0.2869,-0.3317,-0.3941,-0.4654,-0.545,-0.5977,-0.7207,-0.896,-0.9497,-1.0294,-1.1262,-1.1262,-1.1262,-1.1354,-1.144,-1.1699,0.0,-1.2123,-1.2375,-1.2705,-1.2705,-1.2705,-1.2693,-1.2596,-1.256,-1.2542,-1.2529,-1.2383,-1.2331,-1.2494,-1.2942,-1.3324,-1.2941,-1.3454,-1.4572,-1.6137,-1.6405,-1.6329,-1.6553,-1.6448,-1.6272,-1.6272,-1.6342,-1.6473,-1.6682,-1.6682,-1.6751,-1.6908,-1.6908,-1.6908,-1.6908,-1.6908,-1.6908,-1.6908,-1.6908,-1.6908,-1.6908,-1.6908,-1.6908,-1.6908,-1.7304,-1.8037,-1.9233,-1.8988,-1.8988,-1.9452,-1.9065,-1.8875,-1.9075,-1.9075,-1.9075,-1.9075,-1.9008,-1.8875,-1.8808,-1.8549,-1.8405,-1.8269,-1.8202,-1.8144,0.0,-2.0871,-2.0611,-2.0361,-1.903,-1.7532,-1.6443,-1.4849,0.0,-1.0086,-0.8455,-0.6718,-0.4164,-0.1957,-0.0268,0.0715,0.2238,0.3048,0.2512,0.3941,0.5191,0.5463,0.3941,0.2776,0.2413,0.0537,-0.0807,-0.1076,-0.1256,-0.1346,-0.1436,-0.1885,-0.2422,-0.2867,-0.3762,-0.4297,-0.43,-0.545,-0.6593,-0.7727,-0.896,-1.0111,-1.1176,-1.1267,-1.1262,0.0,-1.1527,-1.1785,-1.2043,-1.2283,-1.2528,-1.2674,-1.2674,-1.2668,-1.262,-1.2373,-1.2282,-1.2334,-1.2246,-1.2234,-1.2209,-1.2508,-1.2862,-1.3244,-1.3388,-1.3388,-1.3766,-1.5176,-1.5452,-1.5417,-1.5991,-1.6272,-1.6342,-1.6342,-1.6473,-1.6682,-1.683,-1.6908,-1.6908,-1.6908,-1.6908,-1.6908,-1.6908,-1.6908,-1.6908,-1.6908,-1.6908,-1.6908,-1.6908,-1.6908,-1.6908,-1.6908,-1.6968,-1.7304,-1.7969,-1.8104,-1.8259,-1.8549,-1.8414,-1.8539,-1.9065,-1.9075,-1.9075,-1.9075,-1.9075,-1.9008,-1.8808,-1.8472,-1.8337,-1.8269,-1.8144,-1.8008,-1.53,0.0,-1.7152,-1.6273,-1.4979,-1.3844,0.0,-1.173,-0.9761,-0.7668,-0.592,-0.4164,-0.1869,-0.0178,0.125,0.2417,0.3403,0.4119,0.4297,0.5013,0.5015,0.3673,0.3135,0.2598,0.1703,0.0358,-0.0538,-0.0807,-0.0987,-0.1256,-0.1436,-0.1885,-0.2422,-0.2867,-0.3496,-0.3942,-0.43,-0.4746,-0.5628,-0.6766,-0.7914,-0.9148,-1.0207,-1.0997,-1.1262,-1.1262,-1.1348,-1.1613,-1.2043,-1.2037,-1.2172,-1.2403,-1.2403,-1.2365,-1.2338,-1.2283,-1.2333,-1.2487,-1.2424,-1.2267,-1.2202,-1.2873,-1.2831,-1.2769,-1.393,-1.4584,-1.5088,-1.5446,-1.5972,-1.6551,-1.67,-1.6769,-1.6769,-1.6769,-1.6769,-1.683,-1.6908,-1.6908,-1.6908,-1.6908,-1.6908,-1.6908,-1.6908,-1.6908,-1.6908,-1.6908,-1.6908,-1.6908,-1.6908,-1.6908,-1.6908,-1.6908,-1.7842,-1.8442,-1.8375,-1.792,-1.7998,-1.8875,-1.8607,-1.8684,-1.9065,-1.9075,-1.9075,-1.9075,-1.9075,-1.9008,-1.8808,-1.8741,-1.8539,-1.8269,-1.8269,-1.8144,-1.0888,-1.221,-1.3528,-1.2524,-1.1357,-1.0348,-0.9574,-0.8277,-0.6711,-0.4519,-0.3197,-0.1779,0.0536,0.1609,0.2594,0.3582,0.4208,0.4743,0.5282,0.528,0.5013,0.4297,0.3939,0.3312,0.2151,0.0985,0.0,-0.0628,-0.0987,-0.1166,-0.1346,-0.1705,-0.2153,-0.2867,-0.3136,-0.3585,-0.43,-0.4478,-0.5097,-0.6239,-0.7031,-0.8177,-0.9763,-1.0381,-1.0911,-1.1257,-1.1315,-1.1521,-1.1849,-1.1824,-1.194,-1.2131,-1.2131,-1.2128,-1.2068,-1.1945,-1.1975,-1.2192,-1.2138,-1.2152,-1.2293,-1.3082,-1.3098,-1.3098,-1.4243,-1.5108,-1.5542,-1.518,-1.5754,-1.6403,-1.6254,-1.6551,-1.6908,-1.676,-1.683,-1.6908,-1.6908,-1.6908,-1.6908,-1.6908,-1.6908,-1.6908,-1.6908,-1.6908,-1.6908,-1.6908,-1.6908,-1.6908,-1.6908,-1.6908,-1.6835,-1.6652,-1.7552,-1.8061,-1.7665,-1.7524,-1.8031,-1.9243,-1.9142,-1.8916,-1.8764,-1.8754,-1.8661,-1.8454,-1.8454,-1.839,-1.8335,-1.8196,-1.8066,-1.7815,-1.774,-1.7609,-0.746,-0.8392,-0.9484,-0.8953,-0.8092,-0.7058,-0.5843,-0.4963,-0.3816,-0.1516,-0.0625,0.0447,0.2597,0.3226,0.3673,0.4297,0.4832,0.528,0.5644,0.5191,0.5099,0.5644,0.5102,0.4204,0.3045,0.188,0.0627,-0.0628,-0.0897,-0.1166,-0.1346,-0.1436,-0.1793,-0.2778,-0.2868,-0.3309,-0.419,-0.4291,-0.483,-0.5894,-0.6222,-0.7348,-0.9187,-0.9597,-1.0282,-1.1054,0.0,0.0,-1.1575,-1.1612,-1.1662,-1.1866,-1.1866,-1.1836,-1.1769,-1.1629,-1.1698,-1.1821,-1.1795,-1.2003,-1.2445,-1.3098,-1.3317,-1.3455,-1.4178,-1.4895,-1.533,-1.4744,-1.5251,-1.5903,-1.5754,-1.6324,-1.683,-1.6682,-1.676,-1.6908,-1.6908,-1.6908,-1.6908,-1.6908,-1.6908,-1.6908,-1.6908,-1.6908,-1.6908,-1.6908,-1.6908,-1.689,-1.6826,-1.6817,-1.6661,-1.6266,-1.6797,-1.697,-1.6612,-1.7244,-1.8145,-1.9274,-1.9327,-1.9017,-1.8299,-1.8278,-1.8112,-1.774,-1.7668,-1.7678,-1.7668,-1.7533,-1.7357,-1.7169,-1.7034,-1.6918,-0.5863,-0.4714,-0.4096,-0.5588,-0.5151,-0.4094,-0.3466,-0.2491,-0.1338,0.0089,0.1431,0.2508,0.3047,0.403,0.4743,0.4832,0.5282,0.5644,0.5733,0.5644,0.5552,0.5644,0.4926,0.3941,0.2956,0.1972,0.0807,-0.0628,-0.0718,-0.0987,-0.1346,-0.1436,-0.1705,-0.2333,-0.2689,-0.3109,-0.3578,-0.4084,-0.4478,-0.4924,-0.5787,-0.6509,-0.71,-0.873,-0.9567,-0.9736,0.0,-1.1092,-1.1335,-1.1537,-1.1556,-1.1588,-1.1588,-1.152,-1.1458,-1.164,-1.1776,-1.1993,-1.217,-1.2231,-1.2298,-1.2445,-1.2445,-1.2666,-1.3455,-1.3753,-1.3962,-1.4466,-1.5613,-1.6691,-1.6691,-1.676,-1.6908,-1.683,-1.6908,-1.6908,-1.6908,-1.6908,-1.6908,-1.6908,-1.6908,-1.6908,-1.6908,-1.6908,-1.6908,-1.6908,-1.6908,-1.6789,-1.645,-1.6413,-1.6248,-1.5835,-1.6424,-1.6777,-1.6563,-1.7554,-1.8171,-1.8258,-1.803,-1.7895,-1.7833,-1.7833,-1.774,-1.7668,-1.7668,-1.7668,-1.7533,-1.7357,-1.7169,-1.7034,-1.7044,-1.6971,-0.3835,-0.2503,-0.1522,-0.2052,-0.1964,-0.1429,-0.0535,0.0268,0.1072,0.2056,0.3042,0.376,0.4119,0.4743,0.528,0.5371,0.5552,0.5733,0.5733,0.5822,0.5819,0.5733,0.546,0.4832,0.3762,0.2778,0.1613,0.0179,-0.0448,-0.0897,-0.1345,-0.142,-0.1587,-0.2117,-0.2529,-0.3017,-0.3413,-0.3877,-0.4243,-0.4499,-0.5134,-0.5782,-0.6534,-0.795,-0.8896,-0.9461,0.0,-1.0846,-1.1072,-1.1158,-1.1183,-1.1304,-1.1304,-1.1301,-1.126,-1.1558,-1.1855,-1.2003,-1.2224,-1.2305,-1.2372,-1.2813,-1.2839,-1.2842,-1.3618,-1.3777,-1.37,-1.4045,-1.516,-1.6333,-1.6333,-1.6621,-1.6908,-1.6908,-1.6908,-1.6908,-1.6908,-1.6908,-1.6908,-1.6908,-1.6908,-1.6908,-1.6908,-1.6908,-1.6835,-1.6624,-1.6587,-1.6441,-1.6028,-1.5982,-1.5826,-1.5414,-1.5985,-1.625,-1.5955,-1.6992,-1.7921,-1.8341,-1.7835,-1.7538,-1.7599,-1.7189,-1.7005,-1.7005,-1.7005,-1.6946,-1.6876,-1.6816,-1.6697,-1.6497,-1.6497,-1.6447,-0.2059,-0.0986,0.009,0.0717,0.0717,0.0896,0.1969,0.2596,0.3133,0.3757,0.4206,0.4656,0.501,0.5369,0.5641,0.5733,0.5733,0.5733,0.5733,0.5908,0.5908,0.5733,0.5908,0.5549,0.4389,0.3673,0.2506,0.0805,0.0089,-0.0623,-0.1336,-0.1396,-0.1553,-0.1899,-0.2462,-0.2853,-0.3168,-0.3752,-0.4095,-0.4279,-0.4509,-0.516,-0.6065,-0.7082,-0.7951,-0.8671,-0.9797,-1.0357,-1.0573,-1.075,-1.0887,-1.1111,-1.1111,-1.1186,-1.126,-1.1558,-1.1816,-1.1978,-1.2125,-1.2158,-1.217,-1.2813,-1.2855,-1.2793,-1.3554,-1.3648,-1.3494,-1.3627,-1.4494,-1.5358,-1.5497,-1.6058,-1.6624,-1.6624,-1.6624,-1.6624,-1.6624,-1.6624,-1.6624,-1.6624,-1.6624,-1.6624,-1.6624,-1.6624,-1.6514,-1.6211,-1.6175,-1.6019,-1.5606,-1.5551,-1.5458,-1.5176,-1.5607,-1.5821,-1.572,-1.6595,-1.7483,-1.8305,-1.7728,-1.736,-1.736,-1.6733,-1.6384,-1.6384,-1.6384,-1.6384,-1.6384,-1.6374,-1.6249,-1.6114,-1.6114,-1.6066,-0.0986,0.009,0.1166,0.215,0.2329,0.2508,0.331,0.3849,0.4297,0.4561,0.501,0.5371,0.5371,0.5727,0.6083,0.6083,0.5819,0.5733,0.5733,0.5733,0.5733,0.5733,0.5733,0.5374,0.4389,0.4208,0.3221,0.0895,0.0704,0.0087,-0.1306,-0.1367,-0.1351,-0.1351,-0.219,-0.2665,-0.2689,-0.3502,-0.4032,-0.4279,-0.4435,-0.4637,-0.4958,-0.5868,-0.6349,-0.6504,-0.834,-0.9251,-0.9473,-1.0443,-1.0887,-1.1111,-1.1111,-1.1335,-1.1632,-1.1706,-1.1767,-1.1897,-1.1904,-1.1724,-1.149,-1.1552,-1.1538,-1.1662,-1.2465,-1.2721,-1.2833,-1.3494,-1.38,-1.3973,-1.4586,-1.5251,-1.578,-1.578,-1.578,-1.578,-1.578,-1.578,-1.578,-1.578,-1.578,-1.578,-1.578,-1.578,-1.5771,-1.5735,-1.5735,-1.5588,-1.5194,-1.5139,-1.5219,-1.539,-1.54,-1.5778,-1.6606,-1.6888,-1.7088,-1.7288,-1.7041,-1.686,-1.686,-1.6555,-1.6384,-1.6384,-1.6384,-1.6384,-1.6384,-1.6181,-1.6114,-1.6114,-1.6114,-1.6114,0.0179,0.1165,0.2151,0.2778,0.3846,0.4734,0.4472,0.4743,0.5277,0.6248,0.6343,0.6435,0.7044,0.6609,0.626,0.6874,0.626,0.5733,0.5733,0.5733,0.5733,0.5733,0.5733,0.5555,0.5196,0.4601,0.3596,0.2279,0.1635,0.0681,-0.0681,-0.0751,-0.0907,-0.132,-0.2113,-0.2568,-0.2545,-0.3418,-0.3991,-0.4185,-0.4384,-0.4523,-0.4762,-0.5724,-0.6163,-0.624,-0.7689,-0.8609,-0.915,-0.9825,-1.0357,-1.0962,-1.1186,-1.1384,-1.1452,-1.1597,-1.1631,-1.159,-1.159,-1.1516,-1.1423,-1.1423,-1.1303,-1.1223,-1.1482,-1.149,-1.1402,-1.1718,-1.2032,-1.2572,-1.3786,-1.4567,-1.5098,-1.5098,-1.5431,-1.5689,-1.5689,-1.5689,-1.5689,-1.5689,-1.5689,-1.5689,-1.5689,-1.5689,-1.5606,-1.5359,-1.5322,-1.5184,-1.4781,-1.4735,-1.4911,-1.5371,-1.5748,-1.6255,-1.6978,-1.7101,-1.7335,-1.7744,-1.7368,-1.7043,-1.6807,-1.6545,-1.6384,-1.6384,-1.6384,-1.6384,-1.6384,-1.6316,-1.6306,-1.6306,-1.6306,-1.6306,0.0897,0.1882,0.2776,0.3314,0.4561,0.5628,0.528,0.5633,0.6254,0.7139,0.7228,0.7312,0.7661,0.7221,0.6871,0.7136,0.6435,0.5908,0.5733,0.5733,0.5822,0.5733,0.57,0.5676,0.5676,0.4954,0.4118,0.3172,0.2355,0.1329,0.0,-0.0244,-0.0644,-0.1126,-0.2057,-0.2589,-0.2668,-0.345,-0.3843,-0.3999,-0.4231,-0.4465,-0.4701,-0.5473,-0.5935,-0.624,-0.7306,-0.83,-0.915,-0.975,-1.0312,-1.0763,-1.0967,-1.1044,-1.1089,-1.1307,-1.1266,-1.1222,-1.1222,-1.1229,-1.1149,-1.1149,-1.1015,-1.0855,-1.0855,-1.0722,-1.0624,-1.0807,-1.1178,-1.1774,-1.2979,-1.3824,-1.4354,-1.4617,-1.4998,-1.5322,-1.5322,-1.5322,-1.5322,-1.5322,-1.5322,-1.5322,-1.5322,-1.5322,-1.5221,-1.4955,-1.4909,-1.4818,-1.4543,-1.4515,-1.4734,-1.5352,-1.6083,-1.6754,-1.7146,-1.7368,-1.7611,-1.792,-1.7656,-1.7323,-1.7088,-1.6705,-1.6545,-1.6545,-1.6431,-1.6384,-1.6384,-1.6384,-1.6384,-1.6384,-1.6384,-1.6384,0.1256,0.2152,0.3045,0.376,0.4474,0.5099,0.5644,0.6612,0.7404,0.6881,0.7573,0.7921,0.6969,0.7573,0.783,0.6605,0.6428,0.6254,0.573,0.5905,0.5994,0.573,0.5621,0.5462,0.5462,0.5439,0.4696,0.3106,0.304,0.227,0.073,0.0079,-0.0471,-0.0862,-0.196,-0.2668,-0.3062,-0.353,-0.3763,-0.3763,-0.3999,-0.4311,-0.4701,-0.4937,-0.5398,-0.624,-0.7306,-0.8371,-0.9372,-1.0351,-1.0733,-1.0689,-1.0429,-1.0396,-1.0604,-1.0811,-1.0837,-1.0725,-1.0923,-1.0802,-1.0624,-1.0624,-1.0624,-1.0624,-1.0624,-1.0624,-1.0744,-1.1303,-1.1483,-1.1663,-1.2328,-1.3009,-1.3692,-1.4327,-1.4515,-1.4515,-1.4515,-1.4515,-1.4515,-1.4515,-1.4515,-1.4515,-1.4515,-1.4515,-1.4515,-1.4515,-1.4515,-1.4515,-1.4515,-1.4515,-1.4734,-1.5352,-1.6472,-1.7202,-1.7202,-1.7733,-1.7986,-1.7711,-1.7711,-1.7711,-1.7711,-1.7099,-1.6818,-1.6818,-1.6545,-1.6384,-1.6384,-1.6384,-1.6384,-1.6384,-1.6384,-1.6384,0.1524,0.242,0.3135,0.3941,0.5006,0.5805,0.5994,0.6871,0.7749,0.7929,0.8193,0.8364,0.8017,0.758,0.7316,0.7658,0.6956,0.6313,0.6051,0.6037,0.5915,0.5746,0.5532,0.5423,0.5423,0.5311,0.4913,0.4179,0.377,0.3008,0.1822,0.1259,0.0549,-0.0471,-0.1411,-0.2117,-0.2668,-0.345,-0.3763,-0.3841,-0.4153,-0.4387,-0.4462,-0.4701,-0.5012,-0.5401,-0.6468,-0.7311,-0.8083,-0.9619,-1.0302,-1.0435,-1.0635,-1.0623,-1.052,-1.0855,-1.0804,-1.0624,-1.0688,-1.0698,-1.0624,-1.0624,-1.0624,-1.0624,-1.0624,-1.0624,-1.0624,-1.0807,-1.1178,-1.1663,-1.2328,-1.3009,-1.3571,-1.3761,-1.4139,-1.4515,-1.4515,-1.4515,-1.4515,-1.4515,-1.4515,-1.4515,-1.4515,-1.4515,-1.4515,-1.4515,-1.4515,-1.4515,-1.4515,-1.4843,-1.5352,-1.5968,-1.6754,-1.7368,-1.7788,-1.803,-1.8096,-1.7986,-1.7975,-1.781,-1.7368,-1.6976,-1.6818,-1.6818,-1.6545,-1.6384,-1.6384,-1.6384,-1.6384,-1.6384,-1.6384,-1.6384,0.1076,0.2152,0.3135,0.3941,0.4919,0.5805,0.652,0.7051,0.7489,0.7841,0.8281,0.8368,0.8017,0.7669,0.7471,0.7578,0.7048,0.6483,0.6178,0.5984,0.5873,0.5716,0.5493,0.5295,0.5295,0.5189,0.4959,0.4559,0.4184,0.3604,0.2588,0.2117,0.1333,0.0235,-0.0784,-0.1646,-0.235,-0.3137,-0.3608,-0.3841,-0.4153,-0.4288,-0.4325,-0.4681,-0.5063,-0.5472,-0.6832,-0.763,-0.8159,-0.9436,-1.0039,-1.0164,-1.0264,-1.0249,-1.0171,-1.049,-1.058,-1.0498,-1.0561,-1.0624,-1.0624,-1.0624,-1.0624,-1.0624,-1.0624,-1.0624,-1.0624,-1.087,-1.1421,-1.2027,-1.2704,-1.3381,-1.3881,-1.3881,-1.4198,-1.4515,-1.4515,-1.4515,-1.4515,-1.4515,-1.4515,-1.4515,-1.4515,-1.4515,-1.4515,-1.4515,-1.4515,-1.4565,-1.4852,-1.5186,-1.5633,-1.6255,-1.6866,-1.7379,-1.7733,-1.7963,-1.8084,-1.8084,-1.8084,-1.792,-1.7579,-1.72,-1.6976,-1.6976,-1.6602,-1.6431,-1.6545,-1.6431,-1.6384,-1.6384,-1.6384,-1.6384,0.0179,0.1523,0.2867,0.3671,0.4474,0.5453,0.7044,0.7044,0.6864,0.7139,0.783,0.8082,0.7207,0.7807,0.7922,0.6837,0.6734,0.6685,0.6117,0.6016,0.593,0.5756,0.5403,0.517,0.517,0.5078,0.4859,0.4462,0.4384,0.4075,0.3217,0.2589,0.1882,0.1019,-0.0157,-0.1175,-0.2112,-0.2738,-0.3285,-0.375,-0.3977,-0.4083,-0.4225,-0.4714,-0.5387,-0.6208,-0.7838,-0.8739,-0.9072,-0.9597,-0.9838,-0.9814,-0.9639,-0.9612,-0.9804,-0.9989,-1.0117,-1.0301,-1.0498,-1.0561,-1.0561,-1.0561,-1.0624,-1.0624,-1.0624,-1.0624,-1.0681,-1.124,-1.1911,-1.2573,-1.3139,-1.3881,-1.4387,-1.4387,-1.4455,-1.4515,-1.4515,-1.4515,-1.4515,-1.4515,-1.4515,-1.4515,-1.4515,-1.4515,-1.4515,-1.4515,-1.4515,-1.4684,-1.5245,-1.5352,-1.5633,-1.6255,-1.6866,-1.7202,-1.7257,-1.7788,-1.8084,-1.8084,-1.8084,-1.8084,-1.803,-1.7534,-1.7245,-1.719,-1.6705,-1.6545,-1.6761,-1.6545,-1.6384,-1.6384,-1.6384,-1.6405,-0.0179,0.0805,0.1611,0.3226,0.4297,0.5277,0.6169,0.6355,0.6653,0.772,0.7567,0.7146,0.6973,0.7045,0.7035,0.6753,0.6749,0.6695,0.6461,0.6283,0.6003,0.5659,0.5378,0.5204,0.5053,0.5031,0.4937,0.4859,0.4543,0.4151,0.3686,0.3139,0.2431,0.1489,0.0862,-0.0235,-0.1723,-0.2153,-0.2743,-0.3654,-0.3808,-0.3983,-0.4115,-0.444,-0.5244,-0.6403,-0.7138,-0.802,-0.8967,-0.9402,-0.9568,-0.9627,-0.9701,-0.974,-0.9804,-1.0117,-1.018,-1.011,-1.0498,-1.0498,-1.0371,-1.0561,-1.0624,-1.0624,-1.0624,-1.0624,-1.0624,-1.0744,-1.124,-1.1725,-1.1911,-1.2834,-1.37,-1.37,-1.413,-1.4515,-1.4515,-1.4515,-1.4515,-1.4515,-1.4515,-1.4515,-1.4515,-1.4515,-1.4515,-1.4515,-1.4515,-1.4575,-1.4684,-1.5137,-1.5633,-1.6255,-1.6866,-1.7379,-1.7854,-1.803,-1.8084,-1.8084,-1.8084,-1.803,-1.7822,-1.7656,-1.7479,-1.719,-1.6864,-1.6648,-1.6488,-1.6441,-1.6384,-1.6384,-1.6384,-1.657,-0.1698,-0.0626,0.0627,0.2598,0.3758,0.4636,0.5303,0.5768,0.6236,0.6837,0.6868,0.682,0.682,0.6756,0.6675,0.6603,0.659,0.6539,0.639,0.6136,0.5874,0.5646,0.5326,0.509,0.5018,0.5018,0.5018,0.5018,0.4779,0.4465,0.3841,0.353,0.2981,0.2038,0.1412,0.039,-0.1078,-0.1597,-0.2478,-0.3565,-0.381,-0.4046,-0.4285,-0.4413,-0.4833,-0.5534,-0.6135,-0.7002,-0.7996,-0.8614,-0.9151,-0.9484,-0.9612,-0.974,-0.9926,-1.011,-1.0238,-1.0301,-1.0561,-1.0561,-1.0434,-1.0561,-1.0624,-1.0624,-1.0624,-1.0624,-1.0624,-1.0624,-1.1052,-1.1483,-1.1483,-1.2466,-1.3511,-1.3511,-1.401,-1.4515,-1.4515,-1.4515,-1.4515,-1.4515,-1.4515,-1.4515,-1.4515,-1.4515,-1.4515,-1.4515,-1.4515,-1.4625,-1.4902,-1.5468,-1.6083,-1.6641,-1.7268,-1.7733,-1.8084,-1.8084,-1.8084,-1.8084,-1.8084,-1.8041,-1.7931,-1.7877,-1.7645,-1.719,-1.692,-1.6705,-1.6602,-1.6488,-1.6487,-1.6694,-1.6694,-1.6943,-0.3486,-0.1878,0.009,0.1791,0.2853,0.3715,0.4441,0.5084,0.5537,0.5613,0.6169,0.6579,0.6579,0.6558,0.658,0.6458,0.6434,0.6393,0.6274,0.587,0.5637,0.5637,0.5326,0.5093,0.5093,0.5093,0.5015,0.5015,0.5015,0.4626,0.3841,0.3763,0.3365,0.2495,0.1873,0.0847,-0.0375,-0.1121,-0.214,-0.3403,-0.3817,-0.4184,-0.437,-0.4439,-0.4511,-0.4571,-0.5269,-0.6009,-0.6793,-0.7777,-0.863,-0.9285,-0.9414,-0.967,-0.9919,-0.9919,-1.0174,-1.0434,-1.0498,-1.0498,-1.0498,-1.0561,-1.0561,-1.0624,-1.0624,-1.0624,-1.0624,-1.0624,-1.1052,-1.1483,-1.1483,-1.2466,-1.3511,-1.3511,-1.401,-1.4515,-1.4515,-1.4515,-1.4515,-1.4515,-1.4515,-1.4515,-1.4515,-1.4515,-1.4515,-1.4515,-1.4515,-1.4734,-1.5294,-1.5921,-1.6528,-1.7146,-1.7733,-1.8084,-1.8084,-1.8084,-1.8084,-1.8084,-1.8084,-1.8084,-1.8084,-1.8084,-1.781,-1.719,-1.6976,-1.6807,-1.6705,-1.6571,-1.6684,-1.6987,-1.7059,-1.7348,-0.4277,-0.1963,0.0089,0.0805,0.1412,0.2173,0.3642,0.4038,0.4412,0.53,0.5779,0.6022,0.6267,0.6162,0.6071,0.6291,0.6288,0.6203,0.6022,0.5864,0.5786,0.5637,0.5559,0.5482,0.5482,0.5401,0.5243,0.5243,0.5093,0.4626,0.3841,0.3763,0.3339,0.2433,0.228,0.15,-0.0073,-0.0428,-0.134,-0.2884,-0.3571,-0.3859,-0.3914,-0.4185,-0.4456,-0.4651,-0.5296,-0.5745,-0.6133,-0.7577,-0.8296,-0.8431,-0.9221,-0.9548,-0.9612,-0.974,-0.974,-0.967,-0.9983,-1.011,-1.011,-1.0308,-1.0434,-1.0624,-1.0624,-1.0624,-1.0624,-1.0624,-1.1052,-1.1483,-1.1483,-1.2466,-1.3511,-1.3511,-1.401,-1.4515,-1.4515,-1.4515,-1.4515,-1.4515,-1.4515,-1.4515,-1.4515,-1.4515,-1.4515,-1.4515,-1.4515,-1.4734,-1.5294,-1.5921,-1.6528,-1.7146,-1.7733,-1.8084,-1.8084,-1.8084,-1.8084,-1.8084,-1.8084,-1.8084,-1.8084,-1.8084,-1.781,-1.719,-1.7134,-1.692,-1.6431,-1.6767,-1.6925,-1.6997,-1.7399,-1.7874,-0.4816,-0.3481,-0.2227,-0.0617,0.0087,0.0861,0.2101,0.2714,0.331,0.4141,0.4525,0.4923,0.5723,0.5908,0.5941,0.6022,0.618,0.6261,0.618,0.6018,0.5864,0.5789,0.5637,0.5637,0.5637,0.5559,0.5401,0.5321,0.5246,0.4828,0.4076,0.384,0.3417,0.2668,0.2371,0.161,0.0498,-0.0281,-0.1455,-0.3217,-0.3515,-0.3694,-0.3825,-0.4028,-0.4231,-0.4431,-0.4761,-0.5223,-0.5811,-0.692,-0.7707,-0.8301,-0.9081,-0.9478,-0.9676,-0.974,-0.9798,-0.9798,-0.9919,-0.9983,-0.9983,-1.011,-1.018,-1.0308,-1.0371,-1.0434,-1.0434,-1.0561,-1.1052,-1.1483,-1.1483,-1.2466,-1.3511,-1.3511,-1.401,-1.4515,-1.4515,-1.4515,-1.4515,-1.4515,-1.4515,-1.4515,-1.4515,-1.4515,-1.4515,-1.4515,-1.4793,-1.5069,-1.5352,-1.6197,-1.6922,-1.7146,-1.7733,-1.8084,-1.8084,-1.8084,-1.8084,-1.8084,-1.8084,-1.8084,-1.8084,-1.8084,-1.792,-1.7479,-1.7312,-1.7059,-1.6757,-1.6884,-1.7245,-1.7792,-1.7999,-1.834,-0.58,-0.5159,-0.4502,-0.2437,-0.1461,-0.0676,0.0572,0.1372,0.2077,0.2902,0.3283,0.3752,0.4929,0.5476,0.5786,0.586,0.6099,0.618,0.618,0.6022,0.5864,0.5864,0.5786,0.5712,0.5792,0.5715,0.5634,0.5476,0.5289,0.5002,0.4312,0.3905,0.3403,0.2887,0.2309,0.1711,0.104,-0.0277,-0.1712,-0.3295,-0.3431,-0.3563,-0.3758,-0.3894,-0.4028,-0.4233,-0.43,-0.4694,-0.5352,-0.633,-0.7181,-0.7972,-0.8947,-0.9472,-0.974,-0.974,-0.9798,-0.9862,-0.9862,-0.9926,-0.9926,-0.9926,-0.9983,-1.0047,-1.0238,-1.0301,-1.0364,-1.0744,-1.1296,-1.1787,-1.1973,-1.2903,-1.3761,-1.3761,-1.4139,-1.4515,-1.4515,-1.4515,-1.4515,-1.4515,-1.4515,-1.4515,-1.4515,-1.4515,-1.4515,-1.4515,-1.502,-1.5468,-1.5633,-1.6528,-1.7257,-1.7435,-1.7843,-1.8084,-1.8084,-1.8199,-1.8279,-1.8279,-1.8405,-1.854,-1.854,-1.854,-1.8373,-1.8092,-1.7866,-1.7575,-1.7106,-1.7395,-1.7791,-1.8382,-1.8495,-1.8744,-0.7573,-0.667,-0.5789,-0.4586,-0.3526,-0.2357,-0.0648,0.008,0.0784,0.2034,0.2267,0.2579,0.3675,0.4691,0.5473,0.5864,0.5941,0.5941,0.5941,0.5941,0.5864,0.5864,0.586,0.6022,0.6261,0.6022,0.5864,0.5864,0.5433,0.4908,0.4528,0.3838,0.3313,0.2807,0.2388,0.1872,0.128,-0.0404,-0.1749,-0.2753,-0.3228,-0.3498,-0.3498,-0.3694,-0.3892,-0.4028,-0.4233,-0.43,-0.4498,-0.6067,-0.6789,-0.712,-0.8683,-0.9408,-0.9548,-0.9548,-0.9548,-0.9548,-0.9548,-0.9676,-0.9804,-0.9804,-0.9926,-1.0047,-1.0238,-1.0301,-1.0491,-1.124,-1.1903,-1.2573,-1.326,-1.3941,-1.4446,-1.4446,-1.4446,-1.4515,-1.4515,-1.4515,-1.4515,-1.4515,-1.4515,-1.4515,-1.4515,-1.4515,-1.4515,-1.4515,-1.502,-1.5633,-1.6197,-1.681,-1.7435,-1.7963,-1.8084,-1.8084,-1.8084,-1.8575,-1.885,-1.885,-1.9333,-1.9608,-1.9608,-1.9608,-1.949,-1.9112,-1.9112,-1.8533,-1.7472,-1.8341,-1.8659,-1.8392,-1.8837,-1.911,-0.8476,-0.7714,-0.6939,-0.5584,-0.4826,-0.3867,-0.2303,-0.1731,-0.1017,0.0626,0.1174,0.1643,0.2581,0.3752,0.4771,0.5556,0.5786,0.5941,0.6103,0.618,0.618,0.618,0.618,0.618,0.6261,0.609,0.5881,0.5802,0.5526,0.5119,0.4676,0.4207,0.3786,0.3479,0.2865,0.1833,0.047,-0.0134,-0.1209,-0.2686,-0.2889,-0.3092,-0.3295,-0.3496,-0.3629,-0.3696,-0.3964,-0.4164,-0.4367,-0.5411,-0.6195,-0.6854,-0.7902,-0.8753,-0.9344,-0.9344,-0.9414,-0.9484,-0.9484,-0.9548,-0.9612,-0.9612,-0.9612,-0.9734,-0.9926,-0.9989,-1.018,-1.0926,-1.1717,-1.2512,-1.3199,-1.395,-1.4515,-1.4515,-1.4515,-1.4515,-1.4515,-1.4515,-1.4515,-1.4515,-1.4515,-1.4515,-1.4515,-1.4556,-1.4616,-1.4506,-1.542,-1.6218,-1.6425,-1.7542,-1.8441,-1.8867,-1.9157,-1.9241,-1.9241,-1.9402,-1.9506,-1.9401,-1.9585,-1.9688,-1.9688,-1.9688,-1.9629,-1.9511,-1.9806,-1.9438,-1.8403,-1.8733,-1.8859,-1.8827,-1.8992,-1.9075,-0.9423,-0.8733,-0.8026,-0.6599,-0.5778,-0.5012,-0.3843,-0.3285,-0.2581,-0.0939,-0.0391,0.0235,0.1565,0.2425,0.3519,0.4927,0.5315,0.5628,0.618,0.6338,0.6338,0.6338,0.6213,0.6183,0.6183,0.6044,0.5879,0.5725,0.5525,0.0,0.4824,0.4367,0.39,0.3424,0.2954,0.1879,0.0202,0.0067,-0.0873,-0.2554,-0.2619,-0.2889,-0.3226,-0.3362,-0.3431,-0.3498,-0.3828,-0.4028,-0.4231,-0.5014,-0.5866,-0.6785,-0.7442,-0.8296,-0.921,-0.9274,-0.9344,-0.9414,-0.9484,-0.9484,-0.9484,-0.9484,-0.9484,-0.9548,-0.9798,-0.9862,-1.0053,-1.1163,-1.1834,-1.2451,-1.345,-1.4079,-1.4515,-1.4515,-1.4515,-1.4515,-1.4515,-1.4565,-1.4556,-1.4556,-1.4625,-1.4684,-1.4684,-1.4846,-1.504,-1.516,-1.6285,-1.7138,-1.7406,-1.8451,-1.9333,-1.9516,-1.9762,-1.9901,-1.9854,-2.0004,-2.0037,-1.993,-2.009,-2.0182,-2.0182,-2.0182,-2.0182,-2.0182,-2.0504,-2.0279,-1.9446,-1.9446,-1.9426,-1.9274,-1.9274,-1.9208,0.0,0.0,0.0,-0.778,-0.6659,-0.577,-0.5157,-0.4613,-0.3832,-0.2815,-0.235,-0.1568,0.0392,0.0862,0.1643,0.3904,0.4295,0.4763,0.6025,0.6254,0.6254,0.6254,0.6115,0.6023,0.6023,0.5884,0.5793,0.5793,0.5517,0.5227,0.5086,0.4425,0.3625,0.2753,0.2686,0.2014,0.0538,0.0202,-0.0739,-0.2154,-0.2554,-0.2889,-0.3159,-0.3226,-0.3295,-0.3498,-0.3694,-0.3892,-0.4095,-0.4948,-0.58,-0.6785,-0.7377,-0.8231,-0.9017,-0.921,-0.9274,-0.9338,-0.9478,-0.9484,-0.9484,-0.9484,-0.9484,-0.9548,-0.9862,-0.9926,-1.0174,-1.1958,-1.2258,-1.2389,-1.407,-1.4515,-1.4515,-1.4515,-1.4524,-1.4533,-1.4533,-1.4643,-1.4743,-1.4734,-1.4862,-1.4999,-1.5008,-1.54,-1.5892,-1.6527,-1.7449,-1.828,-1.9101,-1.9643,-1.9924,-1.9924,-1.9936,-1.9889,-1.9734,-2.0159,-2.0435,-2.0435,-2.0894,-2.1221,-2.1221,-2.1221,-2.1221,-2.1221,-2.1221,-2.1031,-2.0635,-2.0646,-2.0248,-1.9605,-1.9605,-1.9407,-1.0677,0.0,0.0,0.0,0.0,0.0,-0.5925,-0.5538,-0.5148,-0.4059,-0.3127,-0.227,-0.1642,-0.0784,0.0235,0.1642,0.2659,0.3439,0.3904,0.4538,0.5019,0.5019,0.5507,0.5864,0.5864,0.5735,0.5647,0.0,0.5508,0.5222,0.4882,0.4448,0.3964,0.3491,0.2954,0.2149,0.0941,0.0336,-0.0605,-0.1749,-0.2153,-0.2488,-0.2822,-0.3092,-0.3228,-0.3295,-0.3496,-0.3959,-0.4553,-0.4558,-0.5348,-0.6527,-0.6658,-0.7642,-0.8835,-0.8894,-0.9022,-0.9081,-0.928,-0.9344,-0.9344,-0.9478,-0.9484,-0.9548,-0.9612,-0.9919,-1.0548,-1.171,-1.2266,-1.2826,-1.4079,-1.4455,-1.4515,-1.4515,-1.4735,-1.4937,-1.4937,-1.5281,-1.5517,-1.528,-1.5224,-1.5378,-1.5804,-1.6383,-1.6835,-1.6867,-1.7912,-1.8797,-1.9037,-1.9784,-2.0375,-2.0616,-2.0822,-2.0981,-2.0919,-2.1047,-2.1065,-2.0951,-2.1152,-2.1221,-2.1221,-2.1221,-2.1221,-2.1221,-2.1221,-2.1169,-2.1031,-2.0775,-2.0377,-1.9977,-1.9736,-1.9407,-1.1485,-1.0939,-1.0263,-0.9494,0.0,0.0,-0.7011,-0.6626,-0.616,-0.5226,-0.437,-0.3595,-0.3127,-0.2426,-0.1567,-0.047,0.0388,0.1309,0.2691,0.3417,0.3823,0.386,0.4277,0.4708,0.4995,0.4948,0.508,0.5355,0.541,0.5229,0.496,0.4628,0.4295,0.4023,0.3155,0.2283,0.1343,0.047,-0.047,-0.148,-0.1817,-0.2218,-0.2686,-0.2889,-0.3092,-0.3226,-0.3431,-0.3892,-0.4619,-0.4625,-0.5484,-0.6863,-0.6863,-0.7587,-0.8705,-0.877,-0.8835,-0.8958,-0.921,-0.9274,-0.9338,-0.9478,-0.9484,-0.9548,-0.9612,-1.0104,-1.085,-1.1772,-1.2704,-1.3675,-1.4344,-1.4632,-1.4799,-1.4964,-1.5184,-1.5349,-1.5349,-1.5597,-1.5807,-1.5754,-1.5957,-1.6272,-1.6641,-1.7405,-1.803,-1.8197,-1.9,-1.9722,-2.0102,-2.0538,-2.0896,-2.1082,-2.1276,-2.1388,-2.1336,-2.1336,-2.1273,-2.1221,-2.1221,-2.1221,-2.1221,-2.1221,-2.1221,-2.1221,-2.1221,-2.1221,-2.1221,-2.0967,-2.0635,-2.0302,-1.9802,-1.9473,-1.2605,-1.1816,-1.1056,-1.041,-0.9311,0.0,-0.825,-0.7795,-0.7099,-0.6311,-0.5851,-0.5306,-0.4126,-0.3814,-0.3422,-0.2254,-0.206,-0.1052,0.1729,0.2395,0.2591,0.2682,0.2754,0.3055,0.3749,0.3804,0.4082,0.4818,0.5024,0.5024,0.4888,0.4556,0.4356,0.422,0.3153,0.2283,0.1676,0.0537,-0.0471,-0.1278,-0.148,-0.195,-0.2552,-0.2686,-0.2889,-0.3159,-0.3429,-0.3894,-0.4486,-0.502,-0.6075,-0.7456,-0.7456,-0.7922,-0.8517,-0.8705,-0.877,-0.8835,-0.9145,-0.9274,-0.9274,-0.9478,-0.9484,-0.9548,-0.9798,-1.0351,-1.1149,-1.2251,-1.3544,-1.4666,-1.4889,-1.5041,-1.5258,-1.5606,-1.5725,-1.5762,-1.5762,-1.579,-1.5947,-1.6334,-1.686,-1.7335,-1.7573,-1.8407,-1.9315,-1.9963,-2.0269,-2.0764,-2.1561,-2.1486,-2.1388,-2.1388,-2.1388,-2.1336,-2.1221,-2.1221,-2.1221,-2.1221,-2.1221,-2.1221,-2.1221,-2.1221,-2.1221,-2.1221,-2.1221,-2.1221,-2.1221,-2.1221,-2.0967,-2.0571,-2.0053,-1.9802,-1.2605,-1.2374,-1.2006,-1.1169,-1.0363,0.0,-0.9377,-0.8627,-0.7872,-0.7714,-0.6703,-0.5739,-0.5403,-0.4623,-0.3916,-0.3473,-0.3447,-0.2578,-0.0301,0.0656,0.1203,0.1196,0.1852,0.236,0.2698,0.2684,0.2878,0.328,0.342,0.3424,0.3422,0.3222,0.3355,0.3889,0.2417,0.1679,0.2012,0.0403,-0.0539,-0.0876,-0.1346,-0.1681,-0.1816,-0.2418,-0.2753,-0.2822,-0.3558,-0.4356,-0.5143,-0.5679,-0.6338,-0.706,-0.7391,-0.7922,-0.8517,-0.8517,-0.8582,-0.8576,-0.8958,-0.9081,-0.9081,-0.9414,-0.9484,-0.9612,-1.0174,-1.0912,-1.1949,-1.3675,-1.4818,-1.5478,-1.5423,-1.5506,-1.5588,-1.567,-1.5945,-1.6193,-1.6193,-1.6441,-1.6865,-1.7658,-1.7629,-1.7686,-1.8177,-1.9306,-2.0147,-2.0287,-2.076,-2.1094,-2.1296,-2.1285,-2.1221,-2.1221,-2.1221,-2.1221,-2.1221,-2.1221,-2.1221,-2.1221,-2.1221,-2.1221,-2.1221,-2.1221,-2.1221,-2.1221,-2.1221,-2.1221,-2.1221,-2.1221,-2.0967,-2.0635,-2.088,-2.0805,-1.3756,-1.3366,-1.2916,-1.2253,-1.1358,0.0,0.0,-0.9825,-0.9296,-0.9296,-0.8675,-0.7996,-0.7442,-0.6881,-0.6086,-0.4867,-0.4725,-0.4136,-0.2464,-0.149,-0.0833,-0.0548,0.0068,0.0737,0.1407,0.1608,0.2075,0.2744,0.2882,0.2952,0.2952,0.2887,0.3021,0.3487,0.2149,0.1612,0.1878,0.0471,-0.0404,-0.0674,-0.101,-0.1346,-0.1614,-0.195,-0.2485,-0.3153,-0.3556,-0.442,-0.5477,-0.5943,-0.6535,-0.7256,-0.7591,-0.8052,-0.8517,-0.8517,-0.8517,-0.8517,-0.8829,-0.9037,-0.9271,-0.9479,-1.0023,-1.0586,-1.091,-1.1942,-1.3268,-1.4626,-1.5341,-1.5735,-1.588,-1.5935,-1.6056,-1.6248,-1.6459,-1.6615,-1.6615,-1.6771,-1.7038,-1.7569,-1.7994,-1.8568,-1.9323,-2.0226,-2.0828,-2.0828,-2.1031,-2.1221,-2.1221,-2.1221,-2.1221,-2.1221,-2.1221,-2.1221,-2.1221,-2.1221,-2.1221,-2.1221,-2.1221,-2.1221,-2.1221,-2.1221,-2.1221,-2.1221,-2.1221,-2.1221,-2.1221,-2.14,-2.1336,-2.0903,-2.0955,-2.1008,-1.4866,-1.4381,-1.3676,-1.3362,-1.2293,-1.1409,0.0,0.0,0.0,-1.064,-1.0565,-1.0187,-0.9348,-0.902,-0.8365,-0.6587,-0.6169,-0.5738,-0.47,-0.3997,-0.3261,-0.2354,-0.1745,-0.1008,-0.0067,0.0537,0.1274,0.2144,0.2345,0.248,0.248,0.2552,0.2753,0.3015,0.2016,0.1546,0.1676,0.0538,-0.0135,-0.0404,-0.0674,-0.101,-0.1481,-0.1681,-0.2417,-0.3418,-0.3754,-0.4553,-0.5613,-0.6013,-0.6671,-0.7521,-0.7857,-0.8187,-0.8522,-0.8565,-0.8581,-0.8592,-0.8832,-0.9169,-0.9535,-0.9682,-1.0621,-1.1744,-1.1948,-1.3199,-1.4678,-1.5361,-1.5742,-1.6001,-1.634,-1.6431,-1.6514,-1.6835,-1.6908,-1.6908,-1.6908,-1.6908,-1.7038,-1.7373,-1.824,-1.9166,-2.0096,-2.0764,-2.1221,-2.1221,-2.1221,-2.1221,-2.1221,-2.1221,-2.1221,-2.1221,-2.1221,-2.1221,-2.1221,-2.1221,-2.1221,-2.1221,-2.1221,-2.1221,-2.1221,-2.1221,-2.1221,-2.1221,-2.1285,-2.1336,-2.1348,-2.1827,-2.1815,-2.1348,-2.121,-2.1325,-1.4947,-1.4627,-1.4314,-1.3986,-1.3131,-1.2452,-1.2452,0.0,-1.1031,-1.1031,0.0,-1.041,-1.0075,0.0,0.0,-0.8735,-0.8263,-0.7765,-0.7482,-0.7116,-0.5996,-0.3766,-0.2748,-0.2147,-0.1811,-0.0605,0.0202,0.0269,0.0606,0.0876,0.101,0.1078,0.1481,0.2482,0.1481,0.1279,0.2012,0.0673,0.0,-0.0067,-0.0539,-0.0809,-0.0944,-0.2084,-0.275,-0.308,-0.4553,-0.5355,-0.5617,-0.6152,-0.6806,-0.7521,-0.7857,-0.8187,-0.8544,-0.8748,-0.8824,-0.8923,-0.9278,-0.958,-0.9806,-0.9944,-1.1041,-1.2557,-1.3561,-1.473,-1.5695,-1.6105,-1.6505,-1.678,-1.6826,-1.6844,-1.6853,-1.6899,-1.6908,-1.6908,-1.6908,-1.7038,-1.7373,-1.7978,-1.8375,-1.8767,-1.9562,-2.056,-2.1221,-2.1336,-2.1273,-2.1221,-2.1221,-2.1221,-2.1221,-2.1221,-2.1221,-2.1221,-2.1221,-2.1221,-2.1221,-2.1221,-2.1221,-2.1221,-2.1221,-2.1221,-2.1221,-2.1221,-2.1577,-2.1827,-2.1827,-2.2298,-2.2298,-2.1815,-2.2702,-2.3017,-1.5097,-1.4853,-1.4435,-1.4296,-1.3722,-1.3119,-1.3119,-1.282,-1.2526,-1.2526,0.0,0.0,0.0,0.0,0.0,0.0,-0.9689,-0.934,-0.8714,-0.8493,-0.7599,-0.5416,-0.4515,0.0,-0.2216,-0.1746,-0.1211,-0.0337,-0.0269,-0.0067,0.0337,0.0539,0.0875,0.1481,0.1144,0.1009,0.1144,0.0606,0.0135,-0.0202,-0.0472,-0.0943,-0.1479,-0.2082,-0.2948,-0.4013,-0.4749,-0.547,-0.6237,-0.6511,-0.6907,-0.755,-0.7888,-0.8358,-0.8743,-0.8974,-0.906,-0.9077,-0.9249,-0.9662,-1.0236,-1.1585,-1.2487,-1.3334,-1.4673,-1.5558,-1.6094,-1.624,-1.6573,-1.6908,-1.6908,-1.6908,-1.6908,-1.6908,-1.6908,-1.6908,-1.7038,-1.7166,-1.7442,-1.8375,-1.8834,-1.9431,-2.0344,-2.0688,-2.0955,-2.1325,-2.1336,-2.1273,-2.1221,-2.1221,-2.1221,-2.1221,-2.1221,-2.1221,-2.1221,-2.1221,-2.1221,-2.1221,-2.1221,-2.1221,-2.1221,-2.1221,-2.1221,-2.1221,-2.1639,-2.1877,-2.1877,-2.2689,-2.2944,-2.2763,-2.2871,-2.3065,-1.5347,-1.4962,-1.4472,-1.4472,-1.3982,-1.3492,-1.3492,-1.3492,-1.3492,-1.3492,-1.3492,0.0,0.0,0.0,-1.206,-1.1205,0.0,-1.0603,-1.0095,-0.9888,-0.9059,-0.6969,-0.6106,-0.4951,0.0,-0.315,-0.2734,-0.163,-0.1493,-0.1151,-0.0471,-0.0134,0.0269,0.0674,0.0875,0.0808,0.0606,0.0472,0.0202,-0.0202,-0.0606,-0.121,-0.1945,-0.248,-0.3498,-0.4873,-0.5075,-0.5773,-0.6765,-0.6765,-0.7049,-0.7531,-0.7861,-0.8357,-0.8938,-0.9244,-0.9308,-0.9319,-0.9378,-0.9946,-1.0937,-1.2875,-1.3608,-1.4034,-1.5426,-1.607,-1.6342,-1.6342,-1.6621,-1.6908,-1.6908,-1.6908,-1.6908,-1.6908,-1.6908,-1.7038,-1.7354,-1.7364,-1.7638,-1.8824,-1.9299,-1.9824,-2.0933,-2.1019,-2.1031,-2.1411,-2.1463,-2.1336,-2.1221,-2.1221,-2.1221,-2.1221,-2.1221,-2.1221,-2.1221,-2.1221,-2.1221,-2.1221,-2.1221,-2.1221,-2.1221,-2.1221,-2.1221,-2.1221,-2.1765,-2.2063,-2.2113,-2.3078,-2.3582,-2.3582,-2.3173,-2.3245,0.0,0.0,0.0,-1.4472,0.0,0.0,-1.3492,-1.3492,-1.3492,-1.3492,-1.3492,-1.3492,-1.3477,-1.2959,-1.2586,-1.2572,-1.205,0.0,0.0,-1.189,-1.0742,-0.8401,-0.7349,-0.6407,0.0,-0.4893,-0.4493,-0.4306,-0.3541,-0.2684,-0.1611,-0.1206,-0.0537,0.047,0.0539,0.0606,0.0806,0.0472,0.0202,0.0,-0.1074,-0.1676,-0.1945,-0.3551,-0.4554,-0.5155,-0.5855,-0.6507,-0.7015,-0.7015,-0.7162,-0.7544,-0.7724,-0.8304,-0.903,-0.9416,-0.9567,-0.9599,-0.982,-1.0645,-1.1842,-1.3091,-1.3962,-1.4752,-1.5771,-1.6202,-1.6342,-1.6542,-1.676,-1.6908,-1.6908,-1.6908,-1.6908,-1.6908,-1.6908,-1.7097,-1.8007,-1.7842,-1.792,-1.9475,-1.9354,-1.9431,-2.0869,-2.1423,-2.1698,-2.1698,-2.1537,-2.1336,-2.1221,-2.1221,-2.1221,-2.1221,-2.1221,-2.1221,-2.1221,-2.1221,-2.1221,-2.1221,-2.1221,-2.1221,-2.1221,-2.1221,-2.1221,-2.1221,-2.2125,-2.2592,-2.2592,-2.3616,-2.4054,-2.4054,-2.4054,-2.4054,0.0,0.0,-1.4414,-1.4201,0.0,0.0,0.0,0.0,0.0,-1.3492,-1.3492,-1.3492,-1.3492,-1.3346,-1.32,-1.32,-1.3258,-1.3171,0.0,-1.2645,-1.2204,-1.142,-0.9378,-0.7641,-0.6627,-0.6279,-0.5688,-0.4782,-0.4427,-0.3918,-0.3039,-0.2754,-0.2049,-0.0708,-0.0567,-0.0496,-0.0567,-0.0627,-0.1035,-0.1929,-0.2299,-0.2772,-0.3442,-0.413,-0.4893,-0.5803,-0.6157,-0.6535,-0.698,-0.7057,-0.7274,-0.7534,-0.8196,-0.882,-0.9414,-0.943,-0.9585,-0.9889,-1.0484,-1.1111,-1.1929,-1.339,-1.4178,-1.4752,-1.5638,-1.607,-1.6342,-1.6412,-1.6621,-1.6908,-1.6908,-1.6908,-1.6908,-1.6908,-1.6968,-1.7364,-1.823,-1.8365,-1.8834,-2.0333,-2.0537,-2.0677,-2.1663,-2.18,-2.1812,-2.1698,-2.1549,-2.1336,-2.1221,-2.1221,-2.1221,-2.1221,-2.1221,-2.1221,-2.1221,-2.1221,-2.1221,-2.1221,-2.1221,-2.1221,-2.1221,-2.1221,-2.1348,-2.1639,-2.2298,-2.2786,-2.3138,-2.3806,-2.4112,-2.4112,-2.4112,-2.4112,-1.4947,-1.4706,0.0,-1.4062,-1.374,0.0,-1.3492,0.0,-1.3492,0.0,0.0,0.0,-1.384,-1.3702,-1.3637,-1.4065,-1.4137,-1.3985,0.0,-1.352,-1.3368,-1.3302,-1.1232,-0.9448,-0.8702,-0.8143,-0.7317,-0.6226,-0.594,-0.5412,-0.4424,-0.4058,-0.3334,-0.2178,-0.1888,-0.1815,-0.1962,-0.1857,-0.2266,-0.3115,-0.3336,-0.3756,-0.4385,-0.4812,-0.5383,-0.6175,-0.6393,-0.6706,-0.7013,-0.7242,-0.761,-0.8089,-0.8623,-0.9377,-1.0126,-0.9916,-1.0143,-1.0588,-1.1186,-1.1848,-1.2586,-1.3673,-1.4474,-1.5125,-1.5647,-1.6,-1.6245,-1.6095,-1.6513,-1.6872,-1.6734,-1.6798,-1.6908,-1.6908,-1.7235,-1.7823,-1.869,-1.9023,-1.9607,-2.1198,-2.1262,-2.1325,-2.2061,-2.2061,-2.1874,-2.1698,-2.1549,-2.1336,-2.1221,-2.1221,-2.1221,-2.1221,-2.1221,-2.1221,-2.1221,-2.1221,-2.1221,-2.1221,-2.1221,-2.1221,-2.1221,-2.1221,-2.1348,-2.1639,-2.2298,-2.2786,-2.3138,-2.3806,-2.4112,-2.4112,-2.4112,-2.4171]}]]